[[{"header":{"parameterUnit":"m.s-1","parameterCategory":1,"la1":30.6,"la2":29.2853,"lo1":-89.7004,"lo2":-87.6739,"dy":0.0162,"dx":0.0183,"nx":112,"ny":82,"refTime":"2026-03-09T00:00:00:Z","depth":0,"parameterNumber":2,"parameterNumberName":"U-component_of_WINDS"},"data":[0.0,0.0,0.0,0.0,0.0,0.0,0.0,0.0,0.0,0.0,0.0,0.0,0.0,0.0,0.0,0.0,0.0,0.0,0.0,0.0,0.0,0.0,0.0,0.0,0.0,0.0,0.0,0.0,0.0,0.0,0.0,0.0,0.0,0.0,0.0,0.0,0.0,0.0,0.0,0.0,0.0,0.0,0.0,0.0,0.0,0.0,0.0,0.0,0.0,0.0,0.0,0.0,0.0,0.0,0.0,0.0,0.0,0.0,0.0,0.0,0.0,0.0,0.0,0.0,0.0,0.0,0.0,0.0,0.0,0.0,0.0,0.0,0.0,0.0,0.0,0.0,0.0,0.0,0.0,0.0,0.0,0.0,0.0,0.0,0.0,0.0,0.0,0.0,0.0,0.0,-0.8722,-1.0878,-1.068,-0.9439,-0.7048,-0.73,-0.6402,-0.3633,0.0,0.0,0.0,0.0,0.0,0.0,0.0,0.0,0.0,0.0,0.0,0.0,0.0,0.0,0.0,0.0,0.0,0.0,0.0,0.0,0.0,0.0,0.0,0.0,0.0,0.0,0.0,0.0,0.0,0.0,0.0,0.0,0.0,0.0,0.0,0.0,0.0,0.0,0.0,0.0,0.0,0.0,0.0,0.0,0.0,0.0,0.0,0.0,0.0,0.0,0.0,0.0,0.0,0.0,0.0,0.0,0.0,0.0,0.0,0.0,0.0,0.0,0.0,0.0,0.0,0.0,0.0,0.0,0.0,0.0,0.0,0.0,0.0,0.0,0.0,0.0,0.0,0.0,0.0,0.0,0.0,0.0,0.0,0.0,0.0,0.0,0.0,0.0,0.0,0.0,0.0,0.0,0.0,0.0,0.0,0.0,0.0,0.0,0.0,0.0,0.0,0.0,0.0,0.0,-0.8722,-1.0878,-0.8806,-0.7124,-0.6676,-0.6313,-0.5182,-0.2984,0.0,0.0,0.0,0.0,0.0,0.0,0.0,0.0,0.0,0.0,0.0,0.0,0.0,0.0,0.0,0.0,0.0,0.0,0.0,0.0,0.0,0.0,0.0,0.0,0.0,0.0,0.0,0.0,0.0,0.0,0.0,0.0,0.0,0.0,0.0,0.0,0.0,0.0,0.0,0.0,0.0,0.0,0.0,0.0,0.0,0.0,0.0,0.0,0.0,0.0,0.0,0.0,0.0,0.0,0.0,0.0,0.0,0.0,0.0,0.0,0.0,0.0,0.0,0.0,0.0,0.0,0.0,0.0,0.0,0.0,0.0,0.0,0.0,0.0,0.0,0.0,0.0,0.0,0.0,0.0,0.0,0.0,0.0,0.0,0.0,0.0,0.0,0.0,0.0,0.0,0.0,0.0,0.0,0.0,0.0,0.0,0.0,0.0,0.0,0.0,0.0,0.0,0.0,-0.7695,-0.7877,-0.8968,-0.9061,-0.8372,-0.6734,-0.5381,-0.4066,-0.2774,-0.3547,0.0,0.0,0.0,0.0,0.0,0.0,0.0,0.0,0.0,0.0,0.0,0.0,0.0,0.0,0.0,0.0,0.0,0.0,0.0,0.0,0.0,0.0,0.0,0.0,0.0,0.0,0.0,0.0,0.0,0.0,0.0,0.0,0.0,0.0,0.0,0.0,0.0,0.0,0.0,0.0,0.0,0.0,0.0,0.0,0.0,0.0,0.0,0.0,0.0,0.0,0.0,0.0,0.0,0.0,0.0,0.0,0.0,0.0,0.0,0.0,0.0,0.0,0.0,0.0,0.0,0.0,0.0,0.0,0.0,0.0,0.0,0.0,0.0,0.0,0.0,0.0,0.0,0.0,0.0,0.0,0.0,0.0,0.0,0.0,0.0,0.0,0.0,0.0,0.0,0.0,0.0,0.0,0.0,0.0,0.0,0.0,0.0,0.0,0.0,0.0,0.0,0.0,-0.7142,-0.7171,-0.7376,-0.898,-0.8907,-0.6076,-0.4467,-0.3429,-0.3005,-0.2616,0.0,0.0,0.0,0.0,0.0,0.0,0.0,0.0,0.0,0.0,0.0,0.0,0.0,0.0,0.0,0.0,0.0,0.0,0.0,0.0,0.0,0.0,0.0,0.0,0.0,0.0,0.0,0.0,0.0,0.0,0.0,0.0,0.0,0.0,0.0,0.0,0.0,0.0,0.0,0.0,0.0,0.0,0.0,0.0,0.0,0.0,0.0,0.0,0.0,0.0,0.0,0.0,0.0,0.0,0.0,0.0,0.0,0.0,0.0,0.0,0.0,0.0,0.0,0.0,0.0,0.0,0.0,0.0,0.0,0.0,0.0,0.0,0.0,0.0,0.0,0.0,0.0,0.0,0.0,0.0,0.0,0.0,0.0,0.0,0.0,0.0,0.0,0.0,0.0,0.0,0.0,0.0,0.0,0.0,0.0,0.0,0.0,0.0,0.0,0.0,0.0,0.0,-0.6042,-0.7171,-0.7376,-0.7119,-0.6015,-0.3818,-0.3605,-0.3656,-0.3803,-0.2924,0.0,0.0,0.0,0.0,0.0,0.0,0.0,0.0,0.0,0.0,0.0,0.0,0.0,0.0,0.0,0.0,0.0,0.0,0.0,0.0,0.0,0.0,0.0,0.0,0.0,0.0,0.0,0.0,0.0,0.0,0.0,0.0,0.0,0.0,0.0,0.0,0.0,0.0,0.0,0.0,0.0,0.0,0.0,0.0,0.0,0.0,0.0,0.0,0.0,0.0,0.0,0.0,0.0,0.0,0.0,0.0,0.0,0.0,0.0,0.0,0.0,0.0,0.0,0.0,0.0,0.0,0.0,0.0,0.0,0.0,0.0,0.0,0.0,0.0,0.0,0.0,0.0,0.0,0.0,0.0,0.0,0.0,0.0,0.0,0.0,0.0,0.0,0.0,0.0,0.0,0.0,0.0,0.0,0.0,0.0,0.0,0.0,0.0,0.0,0.0,0.0,0.0,-0.758,-0.818,0.0,-0.7979,-0.6854,-0.424,-0.4107,-0.4096,-0.392,0.0,0.0,0.0,0.0,0.0,0.0,0.0,0.0,0.0,0.0,0.0,0.0,0.0,0.0,0.0,0.0,0.0,0.0,0.0,0.0,0.0,0.0,0.0,0.0,0.0,0.0,0.0,0.0,0.0,0.0,0.0,0.0,0.0,0.0,0.0,0.0,0.0,0.0,0.0,0.0,0.0,0.0,0.0,0.0,0.0,0.0,0.0,0.0,0.0,0.0,0.0,0.0,0.0,0.0,0.0,0.0,0.0,0.0,0.0,0.0,0.0,0.0,0.0,0.0,0.0,0.0,0.0,0.0,0.0,0.0,0.0,0.0,0.0,0.0,0.0,0.0,0.0,0.0,0.0,0.0,0.0,0.0,0.0,0.0,0.0,0.0,0.0,0.0,0.0,0.0,0.0,0.0,0.0,0.0,0.0,0.0,0.0,0.0,0.0,0.0,0.0,0.0,-0.7833,-0.8632,-0.8897,0.0,-0.8736,-0.7617,-0.4772,-0.4621,-0.4107,-0.2742,0.0,0.0,0.0,0.0,0.0,0.0,0.0,0.0,0.0,0.0,0.0,0.0,0.0,0.0,0.0,0.0,0.0,0.0,0.0,0.0,0.0,0.0,0.0,0.0,0.0,0.0,0.0,0.0,0.0,0.0,0.0,0.0,0.0,0.0,0.0,0.0,0.0,0.0,0.0,0.0,0.0,0.0,0.0,0.0,0.0,0.0,0.0,0.0,0.0,0.0,0.0,0.0,0.0,0.0,0.0,0.0,0.0,0.0,0.0,0.0,0.0,0.0,0.0,0.0,0.0,0.0,0.0,0.0,0.0,0.0,0.0,0.0,0.0,0.0,0.0,0.0,0.0,0.0,0.0,0.0,0.0,0.0,0.0,0.0,0.0,0.0,0.0,0.0,0.0,0.0,0.0,0.0,0.0,0.0,0.0,0.0,0.0,0.0,0.0,0.0,0.0,0.0,-0.7957,-0.8778,-0.9099,-0.9133,-0.9002,-0.7794,-0.5034,-0.4993,-0.365,0.0,0.0,0.0,0.0,0.0,0.0,0.0,0.0,0.0,0.0,0.0,0.0,0.0,0.0,0.0,0.0,0.0,0.0,0.0,0.0,0.0,0.0,0.0,0.0,0.0,0.0,0.0,0.0,0.0,0.0,0.0,0.0,0.0,0.0,0.0,0.0,0.0,0.0,0.0,0.0,0.0,0.0,0.0,0.0,0.0,0.0,0.0,0.0,0.0,0.0,0.0,0.0,0.0,0.0,0.0,0.0,0.0,0.0,0.0,0.0,0.0,0.0,0.0,0.0,0.0,0.0,0.0,0.0,0.0,0.0,0.0,0.0,0.0,0.0,0.0,0.0,0.0,0.0,0.0,0.0,0.0,0.0,0.0,0.0,0.0,0.0,0.0,0.0,0.0,0.0,0.0,0.0,0.0,0.0,0.0,0.0,0.0,0.0,0.0,0.0,0.0,0.0,0.0,-0.8486,-0.8667,-0.9483,-1.2023,-1.0504,-0.8137,-0.5187,-0.5047,-0.3633,-0.0215,0.0,0.0,0.0,0.0,0.0,0.0,0.0,0.0,0.0,0.0,0.0,0.0,0.0,0.0,0.0,0.0,0.0,0.0,0.0,0.0,0.0,0.0,0.0,0.0,0.0,0.0,0.0,0.0,0.0,0.0,0.0,0.0,0.0,0.0,0.0,0.0,0.0,0.0,0.0,0.0,0.0,0.0,0.0,0.0,0.0,0.0,0.0,0.0,0.0,0.0,0.0,0.0,0.0,0.0,0.0,0.0,0.0,0.0,0.0,0.0,0.0,0.0,0.0,0.0,0.0,0.0,0.0,0.0,0.0,0.0,0.0,0.0,0.0,0.0,0.0,0.0,0.0,0.0,0.0,0.0,0.0,0.0,0.0,0.0,0.0,0.0,0.0,0.0,0.0,0.0,0.0,0.0,0.0,0.0,0.0,0.0,0.0,0.0,0.0,0.0,0.0,0.0,-0.8337,-0.9124,-1.0385,-1.2889,-1.1864,-0.9819,-0.6917,-0.5688,-0.4175,-0.2135,0.0,0.0,0.0,0.0,0.0,0.0,0.0,0.0,0.0,0.0,0.0,0.0,0.0,0.0,0.0,0.0,0.0,0.0,0.0,0.0,0.0,0.0,0.0,0.0,0.0,0.0,0.0,0.0,0.0,0.0,0.0,0.0,0.0,0.0,0.0,0.0,0.0,0.0,0.0,0.0,0.0,0.0,0.0,0.0,0.0,0.0,0.0,0.0,0.0,0.0,0.0,0.0,0.0,0.0,0.0,0.0,0.0,0.0,0.0,0.0,0.0,0.0,0.0,0.0,0.0,0.0,0.0,0.0,0.0,0.0,0.0,0.0,0.0,0.0,0.0,0.0,0.0,0.0,0.0,0.0,0.0,0.0,0.0,0.0,0.0,0.0,0.0,0.0,0.0,0.0,0.0,0.0,0.0,0.0,0.0,0.0,0.0,0.0,0.0,0.0,0.0,0.0,-0.8125,-0.9961,-1.1384,-1.2282,-1.2699,-1.2001,-0.9708,-0.6954,-0.521,-0.4906,0.0,0.0,0.0,0.0,0.0,0.0,0.0,0.0,0.0,0.0,0.0,0.0,0.0,0.0,0.0,0.0,0.0,0.0,0.0,0.0,0.0,0.0,0.0,0.0,0.0,0.0,0.0,0.0,0.0,0.0,0.0,0.0,0.0,0.0,0.0,0.0,0.0,0.0,0.0,0.0,0.0,0.0,0.0,0.0,0.0,0.0,0.0,0.0,0.0,0.0,0.0,0.0,0.0,0.0,0.0,0.0,0.0,0.0,0.0,0.0,-0.6707,0.0,0.0,0.0,0.0,0.0,0.0,0.0,0.0,0.0,0.0,0.0,0.0,0.0,0.0,0.0,0.0,0.0,0.0,0.0,0.0,0.0,0.0,0.0,0.0,0.0,0.0,0.0,0.0,0.0,0.0,0.0,0.0,0.0,0.0,0.0,0.0,0.0,0.0,0.0,0.0,0.0,-1.0608,-1.0689,-1.0753,-1.1474,-1.1127,-1.11,-1.1737,-0.9409,-0.6783,-0.4141,-0.3815,0.0,0.0,0.0,0.0,0.0,0.0,0.0,0.0,0.0,0.0,0.0,0.0,0.0,0.0,0.0,0.0,0.0,0.0,0.0,0.0,0.0,0.0,0.0,0.0,0.0,0.0,0.0,0.0,0.0,0.0,0.0,0.0,0.0,0.0,0.0,0.0,0.0,0.0,0.0,0.0,0.0,0.0,0.0,0.0,0.0,0.0,0.0,0.0,0.0,0.0,0.0,0.0,0.0,0.0,0.0,0.0,0.0,0.0,0.0,0.0,-0.8444,0.0,0.0,0.0,0.0,0.0,0.0,0.0,0.0,0.0,0.0,0.0,0.0,0.0,0.0,0.0,0.0,0.0,0.0,0.0,0.0,0.0,0.0,0.0,0.0,0.0,0.0,0.0,0.0,0.0,0.0,0.0,0.0,0.0,0.0,0.0,0.0,0.0,0.0,0.0,0.0,-1.0329,-0.9995,-0.9777,-1.0545,-1.0427,-1.0462,-1.0894,-0.9941,-0.8238,-0.5694,-0.3793,0.0,0.0,0.0,0.0,0.0,0.0,0.0,0.0,0.0,0.0,0.0,0.0,0.0,0.0,0.0,0.0,0.0,0.0,0.0,0.0,0.0,0.0,0.0,0.0,0.0,0.0,0.0,0.0,0.0,0.0,0.0,0.0,0.0,0.0,0.0,0.0,0.0,0.0,0.0,0.0,0.0,0.0,0.0,0.0,0.0,0.0,0.0,0.0,0.0,0.0,0.0,0.0,0.0,-0.884,-0.8897,-0.952,-0.9131,-0.9205,-0.9651,-1.0246,-1.0275,-0.9882,0.0,0.0,0.0,0.0,0.0,0.0,0.0,0.0,0.0,0.0,0.0,0.0,0.0,0.0,0.0,0.0,0.0,0.0,0.0,0.0,0.0,0.0,0.0,0.0,0.0,-1.7814,-1.7963,0.0,0.0,0.0,0.0,0.0,0.0,0.0,0.0,0.0,0.0,0.0,0.0,-0.8942,-0.8878,-0.8892,-0.9527,-0.9892,-0.983,-0.9119,-0.9323,-0.8819,-0.7286,-0.4208,-0.219,0.0,0.0,0.0,0.0,0.0,0.0,0.0,0.0,0.0,0.0,0.0,0.0,0.0,0.0,0.0,0.0,0.0,0.0,0.0,0.0,0.0,0.0,0.0,0.0,0.0,0.0,0.0,0.0,0.0,0.0,0.0,0.0,-0.3203,-0.2359,0.0,0.0,0.0,0.0,0.0,0.0,0.0,0.0,0.0,0.0,0.0,0.0,0.0,-0.7751,-0.4919,-0.7497,-0.9094,-0.9667,-0.9567,-1.1214,-1.4274,-1.134,-1.0044,-1.0264,-1.3249,0.0,-1.0147,-1.0194,0.0,0.0,0.0,0.0,0.0,0.0,0.0,0.0,0.0,0.0,0.0,0.0,0.0,0.0,0.0,0.0,0.0,0.0,0.0,0.0,0.0,0.0,-1.564,-1.6834,-1.9235,-2.1384,0.0,-2.0149,-1.919,-2.1345,-1.7523,0.0,0.0,0.0,0.0,0.0,0.0,0.0,-0.7974,-0.8533,-0.879,-0.8381,-0.8694,-0.8796,-0.8532,-0.7819,-0.6967,-0.6,-0.461,-0.3157,-0.1662,-0.1459,0.0,0.0,0.0,0.0,0.0,0.0,0.0,0.0,0.0,0.0,0.0,0.0,0.0,0.0,0.0,0.0,0.0,0.0,0.0,0.0,0.0,0.0,0.0,0.0,0.0,0.0,0.0,0.0,0.0,-0.4339,-0.3652,-0.3242,-0.3329,-0.3187,0.0,0.0,0.0,0.0,0.0,0.0,0.0,0.0,0.0,-0.6849,-0.8619,-0.8895,-0.7501,-0.8876,-1.067,-1.2844,-1.2888,-1.3764,-1.5305,-1.3819,-1.3102,-1.3154,-1.4642,-1.4479,-1.3125,-1.3125,-1.2244,-1.0695,0.0,0.0,0.0,0.0,-0.7595,-0.6928,-0.5225,-0.4711,0.0,-0.718,0.0,0.0,0.0,0.0,0.0,0.0,0.0,0.0,0.0,0.0,0.0,-1.9197,-1.9857,-2.0078,-2.0569,-2.0011,-1.9636,0.0,-1.8888,-1.6879,-1.5368,0.0,0.0,0.0,0.0,-0.855,-0.7591,-0.8068,-0.8246,-0.7565,-0.768,-0.7657,-0.7257,-0.6877,-0.6233,-0.526,-0.4266,-0.3336,-0.2477,-0.1685,-0.0956,0.0,0.0,0.0,0.0,0.0,0.0,0.0,0.0,0.0,0.0,0.0,0.0,0.0,0.0,0.0,0.0,0.0,0.0,0.0,0.0,0.0,0.0,0.0,0.0,0.0,0.0,0.0,0.0,-0.5131,-0.446,-0.4,-0.3526,-0.3005,0.0,0.0,0.0,0.0,0.0,0.0,-0.6011,-0.6109,-0.6678,-0.7902,-0.8668,-0.9259,-0.9644,-1.0625,-1.2521,-1.5333,-1.6281,-1.6718,-1.6671,-1.5792,-1.5371,-1.5334,-1.5334,-1.535,-1.539,-1.539,-1.539,-1.5056,-1.1552,-1.0143,-1.0039,-0.9979,-0.8298,-0.5933,-0.5094,-0.5405,-0.6607,-0.9251,0.0,-0.9281,-0.9113,0.0,0.0,0.0,0.0,-1.5371,-1.6935,-1.7855,-1.9015,-2.163,-2.1115,-2.0099,-2.0282,-2.062,-2.0489,0.0,-1.9246,-1.9578,-1.9416,0.0,0.0,0.0,0.0,-0.9689,-0.8296,-0.824,-0.7981,-0.7134,-0.6958,-0.6694,-0.6097,-0.6024,-0.5633,-0.4745,-0.3768,-0.3129,-0.2948,-0.1715,-0.0863,-0.0502,0.0,0.0,0.0,0.0,0.0,0.0,0.0,0.0,0.0,0.0,0.0,0.0,0.0,0.0,0.0,0.0,0.0,0.0,0.0,0.0,0.0,0.0,0.0,0.0,0.0,0.0,0.0,0.0,0.0,-0.4499,-0.3743,0.0,0.0,0.0,0.0,-0.2441,-0.3438,-0.4039,-0.3951,-0.5668,-0.6757,-0.6972,-0.7378,-0.8401,-1.0055,-1.3308,-1.5082,-1.5429,-1.875,-2.0318,-2.0128,-1.6885,-1.5403,-1.5385,-1.5385,-1.5395,-1.539,-1.539,-1.539,-1.5059,-1.1568,-1.0079,-0.9875,-0.962,-0.9375,-0.8742,-0.5823,-0.7046,-0.9917,-0.9839,-0.899,-0.8319,-1.0064,-1.0552,0.0,0.0,-1.6208,-1.7656,-2.071,-2.2314,-2.3211,-2.3371,-2.3828,-2.4239,-2.4367,-2.4414,-2.3465,0.0,-1.9679,-1.9744,-1.9597,0.0,-1.7572,-1.3905,-1.3261,-1.2492,-1.0572,-0.9467,-0.8429,-0.7302,-0.6728,-0.6127,-0.542,-0.5117,-0.4823,-0.4449,-0.336,-0.2679,-0.2531,-0.1606,-0.0911,-0.0502,-0.0172,0.0,0.0,0.0,0.0,0.0,0.0,0.0,0.0,0.0,0.0,0.0,0.0,0.0,0.0,0.0,0.0,0.0,0.0,0.0,0.0,0.0,0.0,0.0,0.0,0.0,0.0,0.0,0.0,-0.5738,-0.4772,0.0,-0.2733,-0.2274,-0.1951,-0.1731,-0.2118,-0.2669,-0.3381,-0.4857,-0.6414,-0.8005,-0.8862,-1.0103,-1.1766,-1.4087,-1.6431,-1.8769,-1.9957,-2.0504,-2.0396,-1.9168,-1.8669,-1.8623,-1.6378,-1.5984,-1.6945,-1.6948,-1.6336,-1.5265,-1.3845,-1.1863,-0.981,-0.9583,-0.9612,-0.9651,-0.8668,-0.9148,-1.0379,-1.1393,-1.1335,-1.139,-1.4207,-1.4807,-1.4883,-1.6792,-1.9099,-2.1298,-2.2716,-2.3592,-2.4172,-2.4248,-2.4461,-2.4679,-2.4846,-2.4889,-2.4535,-2.3304,-2.322,-2.2647,-2.044,-1.9763,-1.8934,-1.7135,-1.4931,-1.3029,-1.1809,-1.0527,-0.9146,-0.7555,-0.6988,-0.6368,-0.5446,-0.4882,-0.4338,-0.3784,-0.3089,-0.2449,-0.1873,-0.1792,-0.1256,-0.02,-0.0061,0.0,0.0,0.0,0.0,0.0,0.0,0.0,0.0,0.0,0.0,0.0,0.0,0.0,0.0,0.0,0.0,0.0,0.0,0.0,0.0,0.0,0.0,0.0,0.0,0.0,0.0,0.0,-0.7021,-0.6432,-0.5402,-0.4173,-0.274,-0.199,-0.1484,-0.1222,-0.1409,-0.2079,-0.3341,-0.5104,-0.7093,-0.9339,-1.1083,-1.2513,-1.36,-1.5896,-1.8247,-2.0605,-2.0543,-2.05,-2.0429,-2.0411,-2.0448,-2.0399,-1.8095,-1.7676,-1.8647,-1.8628,-1.7653,-1.6138,-1.5363,-1.2899,-0.9782,-0.9727,-0.9878,-1.0273,-1.1504,-1.1747,-1.1865,-1.3939,-1.4463,-1.4922,-1.8356,-1.911,-1.896,-1.9745,-2.1724,-2.3646,-2.3959,-2.4302,-2.4566,-2.453,-2.453,-2.458,-2.4791,-2.4922,-2.5023,-2.5063,-2.4309,-2.3291,-2.2153,-2.0798,-1.9641,-1.9001,-1.6835,-1.4795,-1.3387,-1.1876,-1.0293,-0.8603,-0.7516,-0.6467,-0.5415,-0.4594,-0.3874,-0.3268,-0.2702,-0.2168,-0.1649,-0.1526,-0.1002,-0.002,0.0,0.0,0.0,0.0,0.0,0.0,0.0,0.0,0.0,0.0,0.0,0.0,0.0,0.0,0.0,0.0,0.0,0.0,0.0,0.0,0.0,0.0,0.0,0.0,0.0,0.0,-0.8846,-0.8861,-0.8221,-0.6515,-0.5523,-0.4364,-0.277,-0.2106,-0.1511,-0.0869,-0.1437,-0.2412,-0.3774,-0.6503,-0.8897,-1.0802,-1.3756,-1.5351,-1.5496,-1.8795,-2.0497,-2.0605,-2.0605,-2.0551,-2.0507,-2.0429,-2.0399,-2.0399,-2.0405,-2.0372,-2.0292,-2.0233,-1.9292,-1.7708,-1.5959,-1.3099,-0.9999,-1.0183,-1.0343,-1.0918,-1.4124,-1.481,-1.4716,-1.7487,-1.8185,-1.8626,-2.207,-2.319,-2.3334,-2.359,-2.4121,-2.4631,-2.4631,-2.4657,-2.4613,-2.4284,-2.419,-2.4266,-2.4447,-2.476,-2.5018,-2.5156,-2.2679,-2.1533,-2.4659,-2.2369,-1.9932,-1.9259,-1.895,0.0,-1.5383,-1.3504,-1.1835,-1.0351,-0.8209,-0.6445,-0.5289,-0.42,-0.3373,-0.2908,-0.2204,-0.1822,-0.1872,-0.0797,-0.0133,-0.0002,0.0,0.0,0.0,0.0,0.0,0.0,0.0,0.0,0.0,0.0,0.0,0.0,0.0,0.0,0.0,0.0,0.0,0.0,0.0,0.0,0.0,0.0,0.0,0.0,-0.6316,-0.7577,-0.81,-0.8003,-0.7489,-0.6418,-0.5405,-0.4285,-0.3015,-0.1916,-0.1254,-0.1171,-0.1922,-0.31,-0.4731,-0.7255,-0.9828,-1.2391,-1.4264,-1.6073,-1.7852,-1.8799,-1.9692,-2.0521,-2.0585,-2.0555,-2.0507,-2.0429,-2.0399,-2.0411,-2.0511,-2.048,-2.0372,-2.0353,-2.0062,-1.9438,-1.7683,-1.5689,-1.3792,-1.3807,-1.3781,-1.4239,-1.7406,-1.8223,-1.8349,-2.1306,-2.2096,-2.2112,-2.3094,-2.5111,-2.7094,-2.7186,-2.7474,-2.7764,-2.7764,-2.6055,-2.4303,-2.4228,-2.4303,-2.4394,-2.4303,-2.4482,-2.4679,-2.4813,-2.4128,-2.3801,-2.4705,-2.4044,-2.2775,-2.084,-1.9482,0.0,-1.6513,-1.4274,-1.2122,-1.0248,-0.8112,-0.6349,-0.5149,-0.3945,-0.3013,-0.2498,-0.2047,-0.1678,-0.141,-0.053,-0.0038,-0.0001,0.0,0.0,0.0,0.0,0.0,0.0,0.0,0.0,0.0,0.0,0.0,0.0,0.0,0.0,0.0,0.0,0.0,0.0,0.0,0.0,0.0,0.0,0.0,0.0,-0.5832,-0.7675,-0.8392,-0.794,-0.7284,-0.6553,-0.557,-0.4496,-0.3361,-0.2332,-0.1803,-0.1952,-0.3092,-0.4518,-0.6234,-0.8972,-1.1594,-1.4027,-1.5766,-1.7579,-1.9443,-1.9495,-1.9843,-2.0511,-2.1288,-2.1264,-2.0565,-2.1223,-2.1939,0.0,-2.2697,-2.1876,-2.0531,-2.0938,-2.0803,0.0,0.0,0.0,0.0,0.0,-1.7361,-1.7531,-1.9279,-2.0618,-2.1803,-2.3218,-2.3611,-2.3702,-2.4903,-2.665,-2.8237,-2.838,-2.7725,-2.6955,-2.6759,-2.531,-2.3871,-2.3768,-2.3915,-2.4036,-2.3933,-2.4056,-2.4229,-2.432,-2.4247,0.0,-2.4211,-2.4356,-2.3988,-2.2463,-2.0771,-1.9151,-1.7693,-1.5345,-1.2891,-1.0543,-0.8576,-0.6742,-0.5024,-0.3521,0.0,0.0,0.0,-0.121,-0.0718,-0.0246,0.0,0.0,0.0,0.0,0.0,0.0,0.0,0.0,0.0,0.0,0.0,0.0,0.0,0.0,0.0,0.0,0.0,0.0,0.0,0.0,0.0,0.0,0.0,0.0,0.0,0.0,-0.7363,-0.885,-0.9408,-0.8631,-0.7715,-0.6885,-0.5921,-0.4881,-0.3814,-0.3191,-0.2982,-0.3285,-0.4874,-0.6588,-0.8348,0.0,0.0,0.0,0.0,-1.9163,-2.0112,-2.036,-2.0448,-2.0369,-2.203,-2.2117,-2.0847,-2.2195,-2.3661,-2.5144,-2.5311,-2.3573,-2.0672,-2.1544,-2.1311,-2.0418,-2.0413,-2.0447,-2.0508,-2.047,-2.0377,-2.0218,-2.0026,0.0,0.0,-2.3707,-2.343,-2.3874,-2.6405,-2.7174,-2.7232,-2.7538,-2.5924,-2.4032,-2.3567,-2.3453,-2.3312,-2.2729,-2.2758,-2.2936,-2.2959,-2.3099,-2.3231,-2.327,-2.3077,-2.3021,-2.3307,-2.3623,-2.3779,-2.3593,-2.1952,-2.0144,-1.8473,-1.6063,-1.3532,-1.093,0.0,0.0,-0.4803,-0.3051,-0.1875,-0.1439,-0.1022,-0.056,-0.0024,0.0,0.0,0.0,0.0,0.0,0.0,0.0,0.0,0.0,0.0,0.0,0.0,0.0,0.0,0.0,0.0,0.0,0.0,0.0,0.0,0.0,0.0,0.0,0.0,0.0,0.0,-1.2842,-1.2203,-1.125,-1.0737,-1.0672,-0.9834,-0.761,-0.6178,-0.5092,-0.4402,-0.4356,-0.4767,-0.5723,-0.7454,-0.9436,-1.1647,-1.359,-1.5173,-1.6349,-1.7998,-1.8704,-1.839,-1.9784,-2.0155,-1.9466,0.0,0.0,-2.1954,-2.1344,-2.1269,-2.166,-2.3026,-2.2461,-2.0603,-2.0741,-2.0682,-2.0487,-2.0487,-2.05,-2.0469,-2.0255,-2.005,-1.9873,-1.9731,-2.157,-2.3881,-2.3348,-2.3045,-2.2998,-2.3771,-2.3997,0.0,-2.4065,-2.3869,-2.3567,-2.3265,-2.3168,-2.2535,-1.9998,-1.9421,-1.9502,-1.9678,-1.9735,-1.9829,-1.9993,-1.9717,-2.0105,-2.2194,-2.2054,-2.1819,-2.2143,-1.9787,-1.7665,-1.6817,-1.41,-1.1781,-1.0582,-0.7611,-0.5267,-0.4148,-0.27,-0.1578,-0.0899,-0.0427,-0.0122,-0.0003,0.0,0.0,0.0,0.0,0.0,0.0,0.0,0.0,0.0,0.0,0.0,0.0,0.0,0.0,0.0,0.0,0.0,0.0,0.0,0.0,0.0,0.0,-0.6727,-0.6498,0.0,-1.3452,-1.6936,-1.6427,-1.5246,-1.4288,-1.3914,-1.2267,-0.823,-0.6954,-0.615,-0.546,-0.5759,-0.6393,-0.738,-0.9349,-1.1269,-1.3015,-1.4928,-1.6219,-1.6693,-1.8071,-1.8705,-1.8507,-1.9402,-1.9858,-1.9859,-2.0762,-2.1284,-2.1442,-2.1283,-2.0976,-2.0661,-2.1908,-2.1732,-2.0543,-2.0518,-2.0497,-2.0497,-2.046,-2.0201,-1.9802,-1.9464,-1.9192,-1.8922,-1.8342,-1.9598,-2.1384,-2.0937,-2.0713,-2.0877,-2.2424,-2.2893,-2.2944,-2.307,-2.1996,-2.082,-2.0685,-2.0639,-2.0256,-1.8725,-1.729,-1.6287,-1.6219,-1.7488,-1.8601,-1.8487,-1.8467,-1.8895,-2.0177,-2.0135,-2.0354,-2.1568,-1.8843,-1.6483,-1.5962,-1.375,-1.1416,-0.9241,-0.7884,-0.6224,-0.3941,-0.1995,-0.0743,-0.0373,-0.0131,0.0,0.0,0.0,0.0,0.0,0.0,0.0,0.0,0.0,0.0,0.0,0.0,0.0345,0.0,0.0,0.0,0.0,0.0,0.0,0.0,-0.6487,-0.7384,-0.7217,-0.8957,-1.0812,-1.174,-1.3312,-1.5911,-2.0328,-2.0464,-1.9586,-1.8318,-1.7342,-1.4917,-0.9958,-0.8558,-0.7708,-0.6978,-0.7444,-0.8123,-0.8919,-1.1112,-1.2853,-1.3844,-1.6006,-1.7025,-1.6596,-1.7987,-1.8694,-1.8624,-1.902,-1.9498,-2.0015,-2.0878,-2.0965,-2.0365,-2.1019,-2.1033,-2.0619,-2.1276,-2.115,-2.0472,-2.0477,-2.0474,-2.0477,-2.0405,-1.989,-1.9165,-1.8948,-1.8628,-1.8122,-1.6975,-1.7482,-1.8586,-1.8419,-1.8385,-1.8877,-2.117,-2.1883,-2.1958,-2.2183,-2.0368,-1.8159,-1.753,-1.6902,-1.6484,-1.6698,-1.5088,-1.3525,-1.3676,-1.5714,-1.7418,-1.7096,-1.7584,-1.8083,-1.815,-1.8269,-1.8949,-2.067,-1.784,-1.5392,-1.5007,-1.3219,-1.0945,-0.8249,-0.8193,-0.6873,-0.3208,-0.1118,0.0,0.0,0.0,0.0,0.0,0.0,0.0,0.0,0.0,0.0,0.0,0.0,0.0,0.0,0.0,0.0699,-0.3108,-0.3723,-0.379,-0.244,-0.2535,-0.3386,0.0,-0.7395,-0.9426,-0.9572,-1.2239,-1.4969,-1.6396,-1.9108,-2.2193,-2.5401,-2.4622,-2.3057,-2.1437,-1.995,-1.7854,-1.4678,-1.1857,-0.9872,-0.9117,-0.9608,-1.0256,-1.1023,-1.3235,-1.4754,-1.5258,-1.7269,-1.7615,-1.5873,-1.7823,-1.8235,-1.688,-1.8476,-1.8943,-1.8299,-1.9094,-1.9465,-1.9456,-1.9475,-1.9862,-2.0525,-2.0615,-2.0558,-2.0402,-2.0413,-2.0415,-2.0404,-2.0347,-1.9819,-1.9186,-1.9731,-1.9344,-1.8331,-1.6719,-1.6525,-1.7073,-1.7676,-1.8048,-1.8326,-1.8825,-1.8971,-1.9012,-1.9209,-1.9036,-1.8056,-1.5132,-1.2251,-1.036,-1.1391,-1.1488,-1.1841,-1.3655,-1.4011,-1.4041,-1.4287,-1.5483,-1.6554,-1.6847,-1.6868,-1.7147,-1.8012,-1.5451,-1.3358,-1.3123,-1.0483,-0.8804,-0.9246,-0.6941,-0.4021,-0.0678,-0.015,0.0,0.0,0.0,0.0,0.0,0.0,0.0,0.0,0.0,0.0,0.0,0.0,0.0,0.0,0.0,0.0747,-0.4014,-0.3909,-0.3888,-0.454,-0.5202,-0.6193,-0.8229,-1.0535,-1.2522,-1.3465,-1.5856,-1.8462,-2.0753,-2.3217,-2.5462,0.0,-2.693,-2.6079,-2.4943,-2.3427,-2.1664,-1.9591,-1.6513,-1.3443,-1.0549,-1.1237,-1.1763,-1.1534,-1.3463,-1.5016,-1.5795,-1.6712,-1.7196,-1.7213,-1.7324,-1.7607,-1.8052,-1.8371,-1.8845,-1.9447,-1.9285,-1.9195,-1.9177,-1.9198,-1.969,-2.0467,-1.9953,-1.9986,-2.0386,-2.032,-2.0308,-2.0276,-1.9715,-1.9254,-1.8885,-1.863,-1.7899,-1.6843,-1.5507,-1.5106,-1.5225,-1.5453,-1.5391,-1.5335,-1.5881,-1.6102,-1.6178,-1.6269,-1.6355,-1.5814,-1.3236,-1.1511,-1.0087,-0.8694,-0.9143,-1.0113,-1.0887,-1.1773,-1.2156,-1.1272,-1.2476,-1.376,-1.4179,-1.4029,-1.4083,-1.4751,-1.4345,-1.328,-1.136,-1.0033,-0.7911,-0.4343,-0.2817,-0.1485,-0.0111,0.0,0.0,0.0,0.0,0.0,0.0,0.0,0.0,0.0,0.0,0.0,0.0,0.0,0.0,0.0,0.0,0.0733,-0.4846,-0.465,-0.4934,-0.6565,-0.7846,-0.9227,-1.1279,-1.3541,-1.5643,-1.7203,-1.9591,-2.2132,-2.4604,-2.6632,-2.8222,-2.9157,-2.9166,-2.8859,-2.8349,-2.6502,-2.4633,-2.3082,-2.0377,-1.699,-1.2856,-1.2661,-1.2576,-1.2095,-1.3485,-1.4675,-1.545,-1.6017,-1.6606,-1.7267,-1.6663,-1.6997,-1.8406,-1.8141,-1.862,-1.9809,-1.939,-1.9036,-1.8774,-1.9071,-1.9419,-1.9779,-1.9606,-1.9705,-2.0014,-2.0157,-2.0219,-2.015,-1.9224,-1.8847,-1.8678,-1.7454,-1.6533,-1.5772,-1.4879,-1.4373,-1.4082,-1.393,-1.3672,-1.351,-1.4159,-1.4417,-1.4499,-1.4511,-1.4221,-1.3589,-1.221,-1.1272,-1.0142,-0.7967,-0.8189,-0.8824,-0.8498,-0.9776,-1.0718,-0.9841,-1.0493,-1.129,-1.165,-1.1998,-1.2068,-1.1585,-1.3291,-1.3512,-1.0397,-0.842,-0.5441,-0.0519,0.0,0.0,0.0,0.0,0.0,0.0,0.0,0.0,0.0,0.0,0.0,0.0,0.0,0.0,0.0,0.0,0.0,0.0,0.0,0.0763,-0.5549,-0.6502,-0.7814,-0.8469,-1.0145,-1.1922,-1.2917,-1.5641,-1.8493,-2.028,-2.3464,-2.6322,-2.771,-2.9513,-3.113,-3.2176,-3.1819,-3.141,-3.1455,-2.8741,-2.6088,-2.4355,-2.2564,-2.013,0.0,-1.3847,-1.2513,-1.3198,-1.3654,-1.3927,-1.3976,-1.5645,-1.6018,-1.4743,-1.5808,-1.6488,-1.6667,-1.756,-1.8024,-1.8079,-1.8768,-1.8688,-1.7975,-1.8815,-1.875,-1.8065,-1.967,-1.9857,-1.9092,-1.9892,-2.0161,-2.002,-1.9145,-1.8838,-1.8663,-1.6752,-1.5977,-1.5841,-1.5411,-1.4755,-1.4069,-1.3944,-1.3991,-1.4123,-1.4405,-1.4506,-1.4511,-1.4578,-1.3296,-1.1976,-1.2365,-1.0673,-0.9012,-0.9491,-0.9,-0.8201,-0.7415,-0.8271,-0.9571,-1.0885,-1.0341,-0.9664,-0.968,-1.1565,-1.1967,-0.8722,-1.197,-1.3675,-1.0591,-0.441,-0.0231,-0.0019,0.0,0.0,0.0,0.0,0.0,0.0,0.0,0.0,0.0,0.0,0.0,0.0,0.0,0.0,0.0,0.0,0.0,0.0,0.0,0.0856,-0.9279,-0.9933,-1.0679,-1.2497,-1.3828,-1.5301,-1.7486,-1.9503,-2.1334,-2.2928,-2.4818,-2.6354,-2.7054,-2.8783,-3.0296,-3.0882,-3.1328,-3.169,-3.1845,-2.9974,-2.8123,-2.688,-2.463,0.0,0.0,0.0,0.0,-1.2752,-1.2641,-1.3106,-1.4174,-1.4259,-1.4931,-1.6353,-1.5782,-1.6105,-1.7451,-1.7209,-1.7359,-1.7922,-1.7539,-1.7233,-1.6958,-1.672,-1.708,-1.7909,-1.7881,-1.8026,-1.8288,-1.8417,-1.8469,-1.8346,-1.7432,-1.7119,-1.7013,-1.5697,-1.5166,-1.5046,-1.4694,-1.432,-1.3963,-1.3923,-1.3952,-1.3882,-1.302,-1.3615,-1.4386,-1.3513,-1.3305,-1.3186,-1.2536,-1.1622,-1.0541,-0.9326,-0.8596,-0.7869,-0.6601,-0.611,-0.6748,-0.9586,-0.9998,-0.9633,-0.8922,-0.9463,-0.9095,-0.6507,-0.7397,-0.7162,-0.3849,-0.1432,0.0,0.0,0.0,0.0,0.0,0.0,0.0,0.0,0.0,0.0,0.0,0.0,0.0,0.0,0.0,0.0,0.0,0.0,0.0,0.0,0.0,0.086,-1.1975,-1.2899,-1.3938,-1.6039,-1.741,-1.877,-2.079,-2.2212,-2.3395,-2.435,-2.5201,-2.5972,-2.6686,-2.74,-2.8391,-2.9958,-3.0274,-3.0723,-3.1812,-3.0508,-2.9175,-2.8475,-2.632,-2.4217,0.0,0.0,0.0,-1.3929,-1.3575,-1.3762,-1.4466,-1.3977,-1.4511,-1.6356,-1.5524,-1.5658,-1.6967,-1.6712,-1.7035,-1.7886,-1.6971,-1.6546,-1.6512,-1.5997,-1.6222,-1.7011,-1.7045,-1.7198,-1.7403,-1.7538,-1.7587,-1.7472,-1.6561,-1.624,-1.6143,-1.4849,-1.4513,-1.465,-1.432,-1.4101,-1.3959,-1.3949,-1.3977,-1.3868,-1.2963,-1.3502,-1.4222,-1.3321,-1.3275,-1.3298,-1.2456,-1.1814,-1.1027,-0.9524,-0.8781,-0.8064,-0.6755,-0.6009,-0.6354,-0.8948,-0.9654,-0.9396,-0.8031,-0.6982,-0.6045,-0.5234,-0.4059,-0.2479,-0.0273,0.0,0.0,0.0,0.0,0.0,0.0,0.0,0.0,0.0,0.0,0.0,0.0,0.0,0.0,0.0,0.0,0.0,0.0,0.0,0.0,0.0,0.0,0.0549,-1.3815,-1.5456,-1.7501,-1.9069,-2.0722,-2.216,-2.2798,-2.3793,-2.4546,-2.4555,-2.4721,-2.5269,-2.6507,-2.5571,-2.5785,-2.9415,-2.8858,-2.8877,-3.1471,-3.0404,-2.9316,0.0,0.0,0.0,0.0,0.0,0.0,-1.6761,0.0,-1.5691,-1.4847,-1.479,-1.4825,-1.4883,-1.5066,-1.5188,-1.5231,-1.6006,-1.6845,-1.7707,-1.6875,-1.6503,-1.6541,-1.6536,-1.6119,-1.5488,-1.7082,-1.7256,-1.6488,-1.7145,-1.7363,-1.7223,-1.6355,-1.606,-1.5893,-1.4179,-1.4022,-1.4596,-1.4222,-1.4103,-1.4096,-1.4019,-1.4054,-1.4096,-1.4034,-1.4029,-1.4051,-1.3846,-1.3116,-1.2372,-1.2158,-1.1341,-1.0475,-1.0215,-0.9623,-0.8825,-0.7828,-0.7854,-0.8276,-0.8994,-0.931,-0.8868,-0.7012,-0.4489,-0.3215,-0.4625,-0.2069,0.0,0.0,0.0,0.0,0.0,0.0,0.0,0.0,0.0,0.0,0.0,0.0,0.0,0.0,0.0,0.0,0.0,0.0,0.0,0.0,0.0,0.0,0.0,0.0,0.0,-1.8949,-2.0024,-2.096,-2.2572,-2.3112,-2.3555,-2.4691,-2.4454,-2.3969,-2.3886,-2.3548,-2.3267,-2.3211,-2.4048,-2.5329,-2.7075,-2.8251,0.0,-3.0814,-3.0613,0.0,-2.9282,-2.8173,-2.6801,-2.5088,-2.4322,0.0,0.0,-1.7332,-1.5654,-1.6025,-1.6034,-1.6055,-1.6079,-1.6067,-1.552,-1.4419,-1.3978,-1.4201,-1.5076,-1.4839,-1.5075,-1.5711,-1.5714,-1.5566,-1.5342,-1.5774,-1.5792,-1.5485,-1.4973,-1.4752,-1.4654,-1.379,-1.3448,-1.341,-1.2947,-1.3277,-1.3844,-1.3012,-1.3399,-1.4224,-1.405,-1.404,-1.3948,-1.3089,-1.3281,-1.3579,-1.2486,-1.2323,-1.2418,-1.2233,-1.1675,-1.1314,-1.1927,-1.1315,-1.033,-0.9488,-0.9826,-0.9918,-0.8631,-0.8542,-0.8284,-0.6999,-0.5484,-0.3742,-0.1618,-0.0566,0.0,0.0,0.0,0.0,0.0,0.0,0.0,0.0,0.0,0.0,0.0,0.0,0.0,0.0,0.0,0.0,0.0,0.0,0.0,0.0,0.0,0.0,0.0,0.0,0.0,-2.1631,-2.2647,-2.3416,-2.4127,-2.443,-2.4511,-2.4491,-2.4021,-2.3439,-2.2772,-2.2187,-2.184,-2.1996,-2.2661,-2.3777,-2.562,-2.6889,0.0,-2.9414,-2.9586,-2.9332,0.0,-2.8164,0.0,-2.6487,-2.6111,-2.5376,0.0,-2.0694,-1.8554,-1.8264,-1.8264,-1.8065,-1.7644,-1.7597,-1.6825,-1.5206,-1.4364,-1.4176,-1.4628,-1.4629,-1.4882,-1.5331,-1.4957,-1.4749,-1.4662,0.0,-1.4089,-1.4008,-1.3418,-1.322,-1.3214,-1.2699,-1.2532,-1.2533,-1.215,-1.2502,-1.3076,-1.2435,-1.2888,-1.3751,-1.3574,-1.3697,-1.3792,-1.3072,-1.3084,-1.3142,-1.2178,-1.2195,-1.2381,-1.1783,-1.1777,-1.2063,-1.2629,-1.2079,-1.1312,-1.0949,-1.0695,-1.0187,-0.8982,-0.891,-0.8754,-0.7789,-0.6229,-0.4447,-0.248,-0.0937,0.0,0.0,0.0,0.0,0.0,0.0,0.0,0.0,0.0,0.0,0.0,0.0,0.0,0.0,0.0,0.0,0.0,0.0,0.0,0.0,0.0,0.0,0.0,0.0,0.0,-2.3321,-2.4495,-2.5446,-2.4896,-2.5091,-2.5,-2.3336,-2.2976,-2.2658,-2.1494,-2.0837,-2.0751,-2.1714,-2.1563,-2.2125,-2.472,-2.5447,-2.6259,-2.7968,-2.8148,-2.8104,-2.8103,-2.7995,-2.795,-2.8008,-2.7379,-2.7007,-2.7075,-2.5084,-2.3084,-2.129,-2.1189,-2.0714,-1.9662,-1.9188,-1.8246,-1.6773,-1.5723,-1.5227,-1.5262,-1.5146,-1.5148,-1.5225,-1.4461,-1.4076,-1.3984,0.0,0.0,-1.2695,-1.2483,-1.2408,-1.2394,-1.2252,-1.2242,-1.2262,-1.1509,-1.1714,-1.2311,-1.2008,-1.2419,-1.3086,-1.3002,-1.3254,-1.3539,-1.3278,-1.2953,-1.2609,-1.2198,-1.2119,-1.1975,-1.1234,-1.1649,-1.234,-1.252,-1.2077,-1.17,-1.1895,-1.0862,-0.9847,-0.9742,-0.9713,-0.9475,-0.8739,-0.6823,-0.5278,-0.5016,-0.2515,-0.05,-0.0058,0.0,0.0,0.0,0.0,0.0,0.0,0.0,0.0,0.0,0.0,0.0,0.0,0.0,0.0,0.0,0.0,0.0,0.0,0.0,0.0,0.0,0.0,0.0,-2.7087,-2.7684,-2.7932,-2.7216,-2.5762,-2.43,-2.3483,-2.1983,-2.0716,-2.0606,-2.0094,-1.9801,-2.0151,-2.1323,-2.2707,-2.4075,-2.5587,-2.6968,-2.8041,-2.8193,-2.8422,0.0,-2.8501,-2.834,-2.9046,-2.8413,0.0,0.0,0.0,-2.7338,-2.4934,-2.4801,-2.4061,-2.2461,-1.9668,-1.8003,-1.7591,-1.5318,-1.4487,-1.5136,-1.4347,-1.4346,-1.5052,-1.4839,-1.471,-1.4635,-1.4422,0.0,-1.3288,-1.2606,-1.1973,-1.1376,-1.075,-1.0529,-1.0543,-1.0432,-1.0915,-1.1459,-1.0605,-1.1535,-1.312,-1.3264,-1.3191,-1.2936,-1.2341,-1.1881,-1.1519,-1.1167,-1.0718,-1.056,-1.1412,-1.1216,-1.0955,-1.155,-1.1239,-1.085,-1.1061,-1.0708,-1.0369,-1.035,-0.9442,-0.857,-0.826,-0.7451,-0.6384,-0.5046,-0.4444,-0.3133,-0.0365,0.0,0.0,0.0,0.0,0.0,0.0,0.0,0.0,0.0,0.0,0.0,0.0,0.0,0.0,0.0,0.0,0.0,0.0,0.0,0.0,0.0,0.0,0.0,-2.9816,-3.0222,-2.9888,-2.9216,-2.7638,-2.5729,-2.3824,-2.1941,-2.0474,-2.0119,-1.9467,-1.9157,-1.9729,-2.0988,-2.2114,-2.2701,-2.3586,-2.4512,-2.5416,-2.5556,-2.6002,-2.7269,-2.7854,-2.8488,-2.9365,-2.9512,-2.9739,-3.0196,0.0,-2.9913,-2.7798,-2.7282,-2.625,-2.452,-2.1952,-2.013,-1.9113,-1.7335,-1.6169,-1.5611,-1.502,-1.4698,-1.4623,-1.4055,-1.3752,-1.3642,-1.3333,0.0,-1.2509,-1.1888,-1.1438,-1.1024,-0.9867,-0.9715,-1.0118,-0.9722,-1.0079,-1.0741,-1.0545,-1.1012,-1.1769,-1.2256,-1.2536,-1.259,-1.2036,-1.152,-1.1038,-1.0602,-1.0379,-1.0321,-1.0636,-1.0668,-1.0642,-1.0797,-1.0698,-1.0522,-1.0504,-1.0923,-1.1136,-1.0478,-0.9684,-0.9123,-0.9091,-0.8243,-0.7359,-0.6723,-0.5542,-0.4207,-0.274,-0.1065,0.0,0.0,0.0,0.0,0.0,0.0,0.0,0.0,0.0,0.0,0.0,0.0,0.0,0.0,0.0,0.0,0.0,0.0,0.0,0.0,0.0,0.0896,-3.1847,-3.2297,-3.1877,-3.107,-2.9399,-2.7207,-2.4417,-2.2331,-2.0753,-1.9913,-1.9087,-1.8764,-1.9539,-2.0327,-2.092,-2.1065,-2.1327,-2.1833,-2.2708,-2.2974,-2.3793,-2.5658,-2.7266,0.0,-2.9684,-3.0394,0.0,-3.2023,0.0,0.0,-3.0428,-2.9372,-2.82,-2.6815,-2.4666,-2.2737,-2.1081,-1.9665,-1.8069,-1.6231,-1.5781,-1.5068,-1.4132,-1.3339,-1.2913,-1.2754,-1.2234,0.0,0.0,-1.1259,-1.1031,-1.0967,-0.9621,-0.9431,-0.9841,-0.9235,-0.929,-0.9744,-1.0292,-1.0324,-1.0237,-1.0864,-1.1534,-1.2011,-1.1634,-1.1084,-1.0494,-1.0046,-0.9983,-0.9966,-0.9668,-0.9983,-1.0326,-1.0133,-1.0081,-1.0089,-1.0136,-1.0916,-1.1308,-1.0335,-1.0017,-0.9821,-0.9675,-0.8824,-0.8077,-0.7885,-0.6136,-0.4812,-0.4701,-0.2235,-0.0389,-0.0037,0.0,0.0,0.0,0.0,0.0,0.0,0.0,0.0,0.0,0.0,0.0,0.0,0.0,0.0,0.0,0.0,0.0,0.0019,0.0724,0.2412,-3.3029,-3.3865,-3.4219,-3.2749,-3.0036,-2.724,-2.5452,-2.307,-2.101,-2.0058,-1.9182,-1.8665,-1.8952,-1.9065,-1.9194,-1.9392,-2.0103,-2.0918,-2.1792,-2.26,-2.4015,-2.6496,0.0,0.0,-3.053,-3.0755,-3.1159,-3.2036,0.0,0.0,-3.3083,-3.1465,-3.0478,-3.0253,-2.7004,-2.4721,-2.3573,-2.0888,-1.8597,-1.6717,-1.5587,-1.4589,-1.3742,-1.3604,-1.3494,-1.3396,-1.2844,0.0,0.0,-1.1434,-1.0975,-1.1036,-1.034,-0.9637,-0.9014,-0.9,-0.8554,-0.802,-0.861,-0.9003,-0.9277,-0.958,-1.014,-1.0672,-1.0545,-0.9932,-0.9239,-0.9066,-0.8606,-0.8306,-0.907,-0.9134,-0.9104,-0.9563,-0.9226,-0.9084,-1.0128,-1.0123,-0.9932,-0.9997,-1.0096,-0.9809,-0.8651,-0.8759,-0.8401,-0.6644,-0.6144,-0.5476,-0.417,-0.2928,-0.1613,-0.0148,0.0,0.0,0.0,0.0,0.0,0.0,0.0,0.0,0.0,0.0,0.0,0.0,0.0,0.0,0.0,0.0,0.0,0.0074,0.3063,0.4603,-3.277,-3.3617,-3.3582,-3.3022,-3.0801,-2.8144,-2.589,-2.2956,-2.043,-1.9497,-1.821,-1.7445,-1.801,-1.8185,-1.8271,-1.8393,-1.8296,-1.8493,-1.9338,-1.9785,-2.1351,-2.4916,-2.6152,-2.7817,0.0,0.0,-3.1092,0.0,0.0,0.0,-3.3355,-3.2715,-3.1376,-2.9192,-2.7718,-2.5646,-2.2966,-2.1604,-1.9446,-1.6493,-1.5814,-1.471,-1.3278,-1.3124,-1.3089,-1.3108,-1.2656,0.0,0.0,-1.1433,-1.0993,-1.0887,-0.9272,-0.875,-0.878,-0.7793,-0.7538,-0.7714,-0.7828,-0.7857,-0.7896,-0.8339,-0.8377,-0.8419,-0.9263,-0.9188,-0.8767,-0.835,-0.7915,-0.7694,-0.8033,-0.8087,-0.8134,-0.8362,-0.8159,-0.8146,-0.8956,-0.9094,-0.9068,-0.9185,-0.9288,-0.9209,-0.8684,-0.8346,-0.7997,-0.759,-0.6579,-0.5556,-0.4732,-0.3774,-0.237,-0.0231,0.0,0.0,0.0,0.0,0.0,0.0,0.0,0.0,0.0,0.0,0.0,0.0,0.0,0.0,0.0,0.0,0.1058,0.3096,0.4405,0.4458,-3.1409,-3.2415,-3.2471,-3.2104,-3.0314,-2.7987,-2.5374,-2.2486,-2.0005,-1.8819,-1.7432,-1.6606,-1.7202,-1.7171,-1.7083,-1.7153,-1.6465,-1.6315,-1.7391,-1.7596,-1.9005,-2.2732,0.0,-2.5886,0.0,-3.0528,-3.1339,0.0,0.0,0.0,-3.257,-3.2343,-3.1187,-2.8913,-2.7718,-2.5677,-2.2691,-2.176,-1.9729,-1.6602,-1.5954,-1.4828,-1.3273,-1.2948,-1.2832,-1.2873,0.0,0.0,0.0,-1.116,-1.08,-1.0836,-0.8773,-0.8198,-0.8349,-0.6914,-0.6618,-0.6953,-0.7039,-0.6858,-0.6682,-0.7244,-0.7011,-0.6724,-0.776,-0.8066,-0.7918,-0.7328,-0.6867,-0.6504,-0.6478,-0.6543,-0.6676,-0.6799,-0.6754,-0.6884,-0.7563,-0.7885,-0.8071,-0.8061,-0.8305,-0.839,-0.8069,-0.7602,-0.7324,-0.759,-0.6375,-0.5245,-0.4754,-0.3676,-0.2334,-0.0673,-0.0202,0.0,0.0,0.0,0.0,0.0,0.0,0.0,0.0,0.0,0.0,0.0,0.0,0.05,0.15,0.15,0.2753,0.5082,0.4567,0.4101,-2.8869,-3.0356,-3.1437,-2.9848,-2.8165,-2.6252,-2.3708,-2.1701,-1.9905,-1.8174,-1.712,-1.653,-1.6607,-1.5913,-1.5342,-1.5424,-1.4703,0.0,-1.6465,-1.6702,-1.7677,0.0,-2.1319,-2.3183,-2.6604,-3.0,0.0,0.0,0.0,0.0,-3.0868,-2.9952,-2.979,-3.0547,-2.7112,-2.4667,-2.3488,-2.1263,-1.9165,-1.7254,-1.594,-1.4841,-1.3972,-1.3289,-1.2961,0.0,0.0,0.0,0.0,-1.0615,-1.032,-1.0955,-0.9471,-0.8362,-0.7524,-0.6698,-0.5858,-0.5234,-0.6038,-0.6013,-0.5712,-0.6312,-0.6238,-0.5936,-0.6085,-0.6323,-0.641,-0.5876,-0.5093,-0.4414,-0.4345,-0.4351,-0.4436,-0.4934,-0.4939,-0.5101,-0.6089,-0.6596,-0.6794,-0.6636,-0.7213,-0.7381,-0.6388,-0.6438,-0.6433,-0.5915,-0.5253,-0.4534,-0.38,-0.2257,-0.1346,-0.1645,-0.0671,0.0,0.0,0.0,0.0,0.0,0.0,0.0,0.0,0.0,0.0,0.0,0.0,0.1673,0.5039,0.5039,0.5059,0.5062,0.3335,0.3973,-2.3278,-2.411,-2.452,-2.3492,-2.2874,-2.2166,-2.0818,-1.9552,-1.8372,-1.7223,-1.581,-1.4798,-1.4818,-1.4141,-1.3785,-1.4414,-1.4282,0.0,0.0,0.0,0.0,-2.1016,-2.4679,-2.7182,0.0,0.0,0.0,0.0,0.0,0.0,-2.8182,-2.7245,-2.7059,-2.7776,-2.6014,-2.4208,-2.2421,-2.096,-1.9183,-1.7068,-1.606,-1.5059,-1.4126,-1.3361,0.0,0.0,0.0,0.0,0.0,-1.022,-0.9681,-0.9298,-0.838,-0.7625,-0.6932,-0.5897,-0.533,-0.5128,-0.5384,-0.4809,-0.3942,-0.3812,-0.3247,-0.266,-0.2842,-0.3841,-0.4694,-0.3501,-0.2764,-0.2303,-0.2045,-0.2047,-0.2152,-0.2299,-0.2742,-0.3284,-0.4061,-0.4459,-0.4703,-0.4785,-0.5162,-0.5357,-0.51,-0.504,-0.5086,-0.5229,-0.4811,-0.4332,-0.401,-0.2796,-0.2188,-0.279,-0.1139,0.0,0.0,0.0,0.0,0.0,0.0,0.0,0.0,0.0,0.0,0.0,0.0,0.0539,0.1616,0.396,0.5697,0.6788,0.5819,0.6543,-1.8392,-1.9562,-1.9896,-1.9153,-1.902,-1.8761,-1.7593,-1.688,-1.6219,-1.5352,-1.4299,-1.3548,-1.3559,-1.3132,-1.2988,-1.3527,-1.3327,-1.3512,0.0,0.0,0.0,-2.0427,0.0,0.0,0.0,0.0,0.0,0.0,0.0,0.0,-2.5994,-2.5047,-2.4658,-2.4974,-2.4047,-2.2867,-2.1414,-2.0327,-1.904,-1.758,-1.6348,-1.5422,-1.4778,-1.3678,0.0,0.0,0.0,0.0,0.0,-0.9835,-0.9292,-0.8942,-0.7765,-0.7225,-0.6903,-0.4874,-0.4141,-0.4155,-0.4159,-0.3282,-0.2113,-0.175,-0.076,0.029,0.0297,-0.1008,-0.2234,-0.1077,-0.0476,-0.0091,0.0334,0.0355,0.0206,-0.007,-0.0491,-0.1081,-0.1961,-0.246,-0.2745,-0.2813,-0.3129,-0.3361,-0.3334,-0.3468,-0.3775,-0.4389,-0.4326,-0.4148,-0.3898,-0.2996,-0.2214,-0.1816,-0.0397,0.0388,0.0031,0.0,0.0,0.0,0.0,0.0,0.0,0.1221,0.1889,0.1889,0.1889,0.1889,0.1889,0.4043,0.5632,0.6677,0.7492,0.8507,0.0,-1.6124,-1.6877,-1.6144,-1.6058,-1.5742,-1.4186,-1.3866,0.0,-1.2957,-1.276,-1.2707,-1.2708,-1.2656,-1.2631,-1.2689,-1.2004,-1.2061,0.0,-1.4151,0.0,0.0,-2.2299,0.0,-2.4137,0.0,0.0,0.0,0.0,0.0,-2.4048,-2.3149,-2.2492,-2.2143,-2.1352,-2.0791,-2.0517,-1.9403,-1.8699,-1.8406,-1.6601,-1.5744,-1.5674,-1.4127,0.0,0.0,0.0,0.0,0.0,-0.9421,-0.9029,-0.9375,-0.7511,-0.7087,-0.7126,-0.3888,-0.2416,-0.2055,-0.2066,-0.1283,-0.0261,-0.0019,0.127,0.2802,0.3152,0.2094,0.0874,0.1422,0.1797,0.2176,0.2796,0.2855,0.257,0.191,0.179,0.1439,0.023,-0.0459,-0.0793,-0.0689,-0.1073,-0.1366,-0.1225,-0.1728,-0.2438,-0.3207,-0.3672,-0.3821,-0.3522,-0.2825,-0.1524,0.0646,0.1346,0.1214,0.0099,0.0,0.0,0.0,0.0,0.0109,0.0327,0.3329,0.4993,0.4998,0.5001,0.5001,0.5001,0.5327,0.5527,0.5702,0.8496,0.9867,-0.8478,0.0,-1.0567,-0.9813,-1.0186,-1.0818,0.0,-1.1677,-1.2232,-1.2703,-1.2265,-1.179,-1.1738,-1.1237,-1.1006,-1.1564,-1.1478,-1.1746,-1.2862,-1.5277,0.0,-2.0851,-2.3038,-2.4042,-2.3358,0.0,0.0,0.0,0.0,-2.1828,-2.0497,-2.0142,-1.96,-1.8696,-1.842,-1.8708,-1.9599,-1.8666,-1.7722,-1.6747,-1.5696,-1.5158,-1.5055,-1.3418,0.0,0.0,0.0,0.0,-0.8831,-0.8626,-0.8047,-0.7242,-0.6818,-0.6263,-0.5614,-0.4793,-0.1227,0.3219,0.3208,0.2518,0.1758,0.2415,0.3274,0.4144,0.4691,0.4562,0.4219,0.4272,0.4369,0.4651,0.5342,0.5319,0.4965,0.4445,0.3947,0.3419,0.2798,0.2149,0.1617,0.1544,0.1354,0.1155,0.0926,0.0325,-0.0222,-0.0571,-0.1508,-0.2491,-0.3318,-0.1994,-0.0542,0.0552,0.2805,0.3075,0.0234,0.0,0.0,0.0,0.0,0.1108,0.3577,0.447,0.4953,0.4996,0.5057,0.5068,0.5089,0.7769,0.9656,1.0751,1.0204,1.0882,-0.5342,-0.6885,-0.8346,-0.8027,-0.8395,-0.9037,-0.9953,-1.0252,-1.0597,-1.1437,-1.1259,-1.0918,-1.0827,-1.0446,-1.0257,-1.0602,-1.0675,0.0,0.0,0.0,-1.8223,-2.0856,-2.2322,-2.3062,0.0,0.0,0.0,0.0,0.0,-1.9628,-1.8666,-1.8547,-1.8184,-1.7489,-1.7028,-1.7251,-1.8192,-1.7339,-1.6544,-1.5816,-1.4651,-1.4058,-1.3976,-1.261,-1.1794,0.0,0.0,0.0,-0.8412,-0.7682,-0.7133,-0.6593,-0.5242,-0.3914,-0.2565,-0.1029,0.1849,0.501,0.5029,0.4328,0.3562,0.4555,0.5146,0.5628,0.651,0.6819,0.6732,0.6139,0.6099,0.6346,0.693,0.7044,0.6868,0.631,0.5882,0.5472,0.4919,0.4449,0.4059,0.3695,0.361,0.3475,0.3006,0.2308,0.1701,0.1455,0.0285,-0.07,-0.1131,-0.0598,0.0386,0.1866,0.2624,0.2535,0.1307,0.0468,0.0,0.0,0.139,0.2975,0.4719,0.4899,0.4954,0.4996,0.5818,0.6649,0.7489,1.0914,1.3745,1.589,1.3804,1.3728,-0.3803,-0.5719,-0.7698,-0.807,-0.8221,-0.8521,-0.941,-0.9184,-0.9057,-0.9994,-1.0249,-1.0231,-1.0109,-1.0072,-1.0021,-0.9878,0.0,0.0,-1.3075,-1.5019,-1.7066,-1.9362,-2.0618,0.0,0.0,0.0,0.0,0.0,0.0,-1.7711,-1.7533,-1.7441,-1.7221,-1.6853,-1.611,-1.5891,-1.6195,-1.5557,-1.5036,-1.4644,-1.3261,-1.255,-1.2388,-1.1517,-1.104,0.0,0.0,0.0,-0.8126,-0.6384,-0.5802,-0.5743,-0.311,-0.1078,0.074,0.3587,0.463,0.4704,0.5162,0.5146,0.5126,0.6271,0.6729,0.7034,0.808,0.8521,0.8485,0.764,0.7515,0.7733,0.8121,0.8417,0.8481,0.7814,0.7654,0.7492,0.6792,0.6562,0.634,0.5808,0.577,0.5621,0.5124,0.4289,0.3589,0.3247,0.2113,0.1389,0.1716,0.1233,0.1603,0.3548,0.2291,0.1659,0.2517,0.0994,0.0201,0.0695,0.3293,0.4878,0.5078,0.5357,0.5605,0.5783,0.724,0.876,1.0305,1.3678,1.6673,1.9249,1.7565,1.6997,-0.3552,-0.4393,-0.5188,-0.6346,-0.6521,-0.6673,-0.7659,-0.7848,-0.8275,-0.9876,-1.0211,-1.0179,-1.0044,-0.9965,-0.9871,-0.9687,0.0,-1.0029,0.0,0.0,-1.4849,-1.6039,0.0,0.0,0.0,0.0,0.0,0.0,0.0,-1.65,-1.5812,-1.5668,-1.5218,-1.4373,-1.4178,-1.3723,-1.3011,-1.3374,-1.2819,-1.1327,-1.1034,-1.05,-0.9766,-0.945,-0.8929,0.0,0.0,-0.666,-0.4869,-0.4012,-0.2798,-0.1409,-0.0551,0.0776,0.2265,0.2773,0.2973,0.3293,0.5581,0.6194,0.6106,0.698,0.7573,0.8015,0.8316,0.8647,0.9033,0.9545,0.9482,0.9302,0.9542,0.9916,1.0076,0.9412,0.9333,0.9267,0.8756,0.8469,0.8263,0.8106,0.7821,0.7554,0.7395,0.6594,0.5889,0.5534,0.4606,0.381,0.3481,0.3674,0.389,0.4022,0.4371,0.4013,0.2635,0.0967,0.117,0.3897,0.4537,0.529,0.6355,0.7362,0.8325,0.9304,0.9697,1.002,1.0305,1.3678,1.5544,1.6087,1.8373,1.8528,-0.293,-0.3543,-0.4557,-0.5819,-0.6675,-0.744,-0.8416,-0.8424,-0.8604,-0.988,-1.0174,-1.0149,-0.9971,-0.983,-0.9687,-0.9562,0.0,-1.003,-1.0717,-1.2243,-1.3975,0.0,0.0,0.0,0.0,0.0,0.0,0.0,0.0,0.0,-1.5414,-1.5307,-1.4815,-1.3823,-1.3316,-1.2596,-1.1656,-1.1026,-1.0541,-1.0156,-0.9175,-0.849,-0.8059,-0.7741,-0.728,-0.668,0.0,-0.4731,-0.3196,-0.2208,-0.0858,0.0646,0.1334,0.2567,0.4023,0.4645,0.4865,0.5085,0.6614,0.7061,0.7085,0.7858,0.8291,0.8678,0.9509,0.9903,1.0213,1.087,1.0707,1.0366,1.064,1.1023,1.1218,1.0613,1.0387,1.0303,1.0204,1.0091,0.9953,0.9767,0.9617,0.9401,0.9042,0.8463,0.7909,0.7464,0.6829,0.6137,0.5399,0.5336,0.5239,0.4899,0.4935,0.4313,0.2635,0.2567,0.4028,0.7397,0.6727,0.6474,0.711,0.7913,0.8037,0.7348,0.9226,1.1144,1.3058,1.4561,1.5306,1.5361,1.768,1.8657,-0.3278,-0.3788,-0.4826,-0.5685,-0.6766,-0.7906,-0.9037,-0.873,-0.8495,-0.955,-0.9684,-0.9542,-0.9359,-0.9289,0.0,-0.9226,-0.952,-1.0066,-1.0955,-1.2026,-1.3625,0.0,0.0,0.0,0.0,0.0,0.0,0.0,0.0,0.0,-1.5385,-1.5133,-1.4536,-1.3561,-1.2666,-1.1769,-1.0833,-0.9163,-0.8623,-0.9195,-0.7641,-0.6749,-0.6466,-0.6373,-0.5833,-0.4877,-0.3854,-0.2633,-0.1274,0.0071,0.1263,0.236,0.3423,0.4605,0.5819,0.6691,0.7012,0.7095,0.7707,0.7895,0.8059,0.901,0.9335,0.9586,1.083,1.1246,1.1436,1.2148,1.2033,1.1661,1.163,1.1967,1.2167,1.1692,1.141,1.1277,1.138,1.1417,1.1366,1.1174,1.1136,1.0991,1.0488,1.016,0.9741,0.9079,0.8737,0.8141,0.7086,0.6569,0.6109,0.5657,0.5104,0.429,0.3144,0.4124,0.6265,0.9712,0.8726,0.7841,0.7494,0.8677,0.8542,0.6863,0.9797,1.2687,1.5397,1.5327,1.5714,1.6546,1.7702,1.884,-0.5758,-0.5936,-0.5828,-0.5661,-0.5753,-0.6329,-0.8015,-0.7345,-0.6856,-0.8467,-0.8253,-0.7757,-0.7686,-0.7959,-0.8247,-0.836,-0.9081,-0.973,-1.005,0.0,0.0,0.0,0.0,0.0,0.0,0.0,0.0,0.0,0.0,0.0,-1.5318,-1.4551,-1.3663,-1.2722,-1.1831,-1.0939,-1.0,-0.8322,-0.7491,-0.7464,-0.6478,-0.5497,-0.4616,-0.547,-0.4486,-0.2059,-0.1346,0.0091,0.208,0.3596,0.4322,0.4621,0.6243,0.7132,0.7516,0.7598,0.7635,0.7748,0.854,0.8816,0.9057,1.0603,1.107,1.1163,1.1892,1.211,1.2382,1.3684,1.4005,1.3708,1.2615,1.2719,1.3039,1.2757,1.2678,1.2597,1.2349,1.2364,1.2404,1.2443,1.2329,1.2137,1.1964,1.1763,1.1273,1.0235,1.0113,0.9607,0.8171,0.7327,0.6619,0.6034,0.5377,0.4887,0.4651,0.4741,0.6215,0.9518,0.9775,0.9092,0.7473,1.0602,1.2336,1.2236,1.4075,1.5134,1.5394,1.5334,1.6957,2.0114,1.9933,1.989,-0.6093,-0.5594,-0.5144,-0.5508,-0.5246,-0.5358,-0.7144,-0.721,-0.7181,-0.8234,-0.8264,-0.8031,-0.7837,0.0,-0.8494,-0.9555,-1.0149,-1.0747,-1.1509,0.0,0.0,0.0,0.0,0.0,0.0,0.0,0.0,0.0,0.0,0.0,0.0,-1.3693,-1.2779,-1.1878,-1.1483,-1.0831,-0.9844,-0.8636,-0.7677,-0.6978,-0.5576,-0.4544,-0.3899,-0.3628,-0.2452,-0.0542,0.0752,0.2275,0.395,0.5207,0.5957,0.6387,0.7199,0.7598,0.7757,0.8318,0.8476,0.8637,0.9992,1.0402,1.0507,1.1521,1.2119,1.2576,1.3241,1.3796,1.4405,1.541,1.5684,1.5429,1.4305,1.4382,1.4602,1.4038,1.4126,1.4338,1.4238,1.4255,1.4291,1.4231,1.4182,1.4145,1.4039,1.3592,1.3006,1.234,1.123,1.0161,0.9269,0.842,0.7514,0.6535,0.5543,0.5745,0.7736,0.7799,0.8294,0.9625,1.1873,1.1919,0.9129,1.0349,1.2134,1.4372,1.5059,1.5399,1.5392,1.5329,1.7093,2.0483,2.0164,2.0012,-0.6235,-0.5314,-0.4646,-0.5126,-0.4802,-0.4713,-0.5983,-0.6377,-0.6766,-0.7749,-0.7584,-0.7222,-0.7055,0.0,0.0,0.0,-1.0726,-1.1484,0.0,0.0,0.0,0.0,0.0,0.0,0.0,0.0,0.0,0.0,0.0,0.0,0.0,-1.2775,-1.1971,-1.1364,-1.0992,-1.0445,-0.9654,-0.8668,-0.7736,-0.6849,-0.5128,-0.3932,-0.3207,-0.195,-0.05,0.1131,0.3239,0.4771,0.5855,0.6873,0.7659,0.821,0.8144,0.8261,0.8563,0.919,0.9375,0.9517,1.0947,1.135,1.1427,1.2568,1.3214,1.3783,1.4882,1.5627,1.6304,1.7304,1.7589,1.7446,1.6762,1.6273,1.5854,1.5331,1.5589,1.5948,1.5945,1.592,1.5859,1.5718,1.5449,1.5351,1.5731,1.5168,1.4433,1.3724,1.2639,1.1384,0.9962,0.9334,0.83,0.6345,0.5402,0.5791,0.8009,0.8992,0.955,0.9691,1.3107,1.408,1.1763,1.1718,1.29,1.5351,1.539,1.5403,1.5402,1.6455,1.8183,2.0483,2.0238,2.064,-0.6433,-0.5428,-0.4591,-0.4517,-0.4392,-0.4334,-0.4447,-0.4583,-0.5152,-0.684,-0.588,-0.4781,-0.49,-0.6704,0.0,-0.9543,-1.0502,0.0,0.0,0.0,0.0,0.0,0.0,0.0,0.0,0.0,0.0,0.0,0.0,0.0,0.0,-1.1829,-1.1249,-1.1181,-1.0276,-0.9621,-0.9296,-0.824,-0.7471,-0.698,-0.5161,-0.3677,-0.2435,-0.0622,0.1225,0.3188,0.6188,0.7657,0.798,0.8841,0.9601,1.0115,0.9322,0.9493,1.0217,1.0275,1.0251,1.0349,1.1211,1.1425,1.1691,1.3822,1.4482,1.4805,1.6813,1.7524,1.7914,1.9308,1.975,1.983,1.9966,1.8341,1.6628,1.6545,1.699,1.7435,1.7435,1.7214,1.7006,1.6846,1.592,1.5556,1.6871,1.6447,1.5488,1.4144,1.4361,1.35,1.0138,1.0,0.886,0.532,0.4953,0.4897,0.476,0.7673,0.9568,0.9727,1.3119,1.5164,1.528,1.5306,1.5323,1.5409,1.539,1.5403,1.5402,1.8905,2.0572,2.0507,2.0468,2.2085,-0.6405,-0.5527,-0.4718,-0.4666,-0.4547,-0.4145,-0.3068,-0.2845,-0.3402,-0.5266,-0.3401,-0.2464,-0.5893,-0.6818,0.0,-0.9535,0.0,0.0,0.0,0.0,0.0,0.0,0.0,0.0,0.0,0.0,0.0,0.0,0.0,0.0,0.0,-1.0417,-0.9777,-1.0137,-0.9132,-0.8713,-0.8943,-0.8174,-0.7326,-0.6414,-0.5039,-0.3655,-0.2297,-0.0386,0.1716,0.3955,0.5941,0.7512,0.8736,0.951,0.9942,1.0112,0.9912,0.9953,1.0138,1.0205,1.0614,1.1228,1.2064,1.2947,1.3958,1.5532,1.6568,1.7435,1.8592,1.9289,1.9837,2.0435,2.0705,2.0809,2.0888,2.0479,1.9849,1.9129,1.9464,1.9914,1.9797,1.977,1.9545,1.8961,1.8694,1.8363,1.7838,1.7848,1.7716,1.7035,1.5569,1.347,1.0501,1.0175,0.9699,0.8421,0.8148,0.8054,0.8011,0.8926,1.0522,1.291,1.4166,1.4919,1.5158,1.524,1.5323,1.5409,1.5409,1.5398,1.5402,1.8905,2.0572,2.0565,2.2908,2.4351,-0.5991,-0.5338,-0.4827,-0.4754,-0.463,-0.4269,-0.3247,-0.21,-0.1603,-0.2767,-0.1412,-0.1098,-0.4714,-0.6393,0.0,0.0,0.0,0.0,0.0,0.0,0.0,0.0,0.0,0.0,0.0,0.0,0.0,0.0,0.0,0.0,0.0,-0.9777,-0.9282,-0.9487,-0.8734,-0.8349,-0.8371,-0.7784,-0.704,-0.6156,-0.5022,-0.3801,-0.2482,0.0128,0.2523,0.4729,0.6428,0.7838,0.8936,0.9024,0.9248,0.9559,0.9623,0.9819,1.0063,1.0175,1.076,1.1621,1.2429,1.3646,1.513,1.6737,1.788,1.887,2.0195,2.0894,2.1344,2.1856,2.2138,2.2285,2.2365,2.2638,2.2547,2.1004,2.135,2.1939,2.1625,2.1714,2.1723,2.1276,2.0732,2.0079,1.9359,1.9928,2.005,1.8656,1.6142,1.3902,1.2518,1.0976,0.9933,0.9754,0.9535,0.9347,0.9214,0.9312,1.0855,1.4274,1.4618,1.4775,1.4968,1.5168,1.5287,1.5311,1.6729,1.7471,1.7471,1.9547,2.0542,2.0585,2.3934,2.5322,-0.5357,-0.501,-0.491,-0.4825,-0.4612,-0.4324,-0.4062,-0.1932,0.0,0.0,0.0,-0.0526,-0.2278,-0.5521,-0.811,0.0,0.0,0.0,0.0,0.0,0.0,0.0,0.0,0.0,0.0,0.0,0.0,0.0,0.0,0.0,0.0,-0.9732,-0.9509,-0.9279,-0.884,-0.8302,-0.7722,-0.719,-0.6649,0.0,-0.5087,-0.4067,-0.2922,0.0645,0.3401,0.5466,0.7329,0.8335,0.8593,0.7819,0.7932,0.8578,0.8732,0.9237,0.9904,1.0109,1.0781,1.1716,1.2528,1.3904,1.5658,1.7677,1.873,1.9596,2.1647,2.23,2.2521,2.3329,2.3738,2.3978,2.4112,2.4641,2.4636,2.2556,2.2976,2.3696,2.3055,2.3221,2.3519,2.3517,2.2167,2.1106,2.128,2.2293,2.2113,1.9231,1.6302,1.4531,1.4866,1.1875,0.9728,0.9765,0.95,0.9214,0.8902,0.9068,1.0581,1.3801,1.4441,1.4734,1.4794,1.5038,1.5171,1.5189,1.8757,2.0593,2.0594,2.0528,2.0507,2.0585,2.392,2.5302,-0.5091,-0.5031,-0.5042,-0.4982,-0.3904,-0.2541,-0.1247,-0.045,0.0,0.0,0.0,-0.0524,-0.2272,-0.4336,0.0,0.0,0.0,0.0,0.0,0.0,0.0,0.0,0.0,0.0,0.0,0.0,0.0,0.0,0.0,0.0,-1.0157,-0.9858,-0.9727,-0.9822,-0.8539,-0.7811,-0.7779,-0.6838,-0.6282,0.0,-0.5193,-0.4263,-0.3206,-0.0119,0.2966,0.5904,0.7069,0.7582,0.7622,0.753,0.7541,0.7668,0.8371,0.8746,0.8992,0.977,1.1057,1.2555,1.3367,1.507,1.7271,1.9493,2.052,2.1207,2.2978,2.3461,2.3446,2.3853,2.4137,2.445,2.5097,2.5411,2.5579,2.5611,2.5661,2.5502,2.4741,2.4824,2.4779,2.3912,2.3285,2.2932,2.2977,2.3059,2.2113,1.9231,1.6714,1.4212,1.1571,1.0377,0.9695,0.9509,0.9106,0.8818,0.8736,0.9033,0.9519,1.0283,1.3086,1.4734,1.4794,1.4859,1.4992,1.5209,1.8757,2.0593,2.0594,2.0528,2.0507,2.058,2.3773,2.5168,-0.4558,-0.5017,-0.5051,-0.5046,-0.435,-0.3004,-0.0563,0.0,0.0,0.0,0.0,-0.0272,-0.1183,-0.3415,0.0,0.0,0.0,0.0,0.0,0.0,0.0,0.0,0.0,0.0,0.0,0.0,0.0,0.0,0.0,-1.1088,-1.0971,-1.0702,-1.057,-1.0563,-0.9242,-0.8422,-0.8232,-0.7164,-0.6568,-0.647,-0.5638,-0.4484,-0.2996,0.0375,0.3509,0.6295,0.6504,0.6593,0.6562,0.6241,0.6297,0.6673,0.7581,0.817,0.8674,1.0071,1.1462,1.2831,1.4119,1.6141,1.8468,2.0333,2.1582,2.2564,2.3787,2.4394,2.4746,2.4907,2.5412,2.5992,2.6437,2.6801,2.7131,2.7438,2.7255,2.6794,2.5943,2.6,2.5901,2.4831,2.4089,2.3616,2.3517,2.3168,2.2534,2.137,1.9254,1.6512,1.295,1.229,1.1908,1.1227,1.0961,1.052,0.9809,0.9995,1.0546,1.1488,1.3341,1.5256,1.712,1.7187,1.735,1.7683,1.9536,2.0545,2.0602,2.2176,2.2888,2.2786,2.4434,2.512,-0.338,-0.4351,-0.4649,-0.5019,-0.5065,-0.4287,-0.1503,-0.063,-0.0422,-0.0424,-0.0193,-0.0098,-0.039,0.0,0.0,0.0,0.0,0.0,0.0,0.0,0.0,0.0,0.0,0.0,0.0,0.0,0.0,0.0,0.0,-1.1836,-1.2022,-1.1861,-1.1675,-1.1489,-1.0337,-0.9465,-0.8938,-0.7871,-0.7318,-0.7246,-0.6324,-0.485,-0.2845,0.0786,0.3653,0.577,0.5589,0.5521,0.5482,0.4825,0.4964,0.5676,0.6742,0.758,0.8424,1.0408,1.1765,1.287,1.4812,1.6947,1.9076,2.0831,2.225,2.345,2.4436,2.5274,2.5944,2.6166,2.6768,2.7427,2.7772,2.8108,2.8417,2.8568,2.8351,2.7837,2.6863,2.7,2.6879,2.5466,2.4775,2.4359,2.4182,2.3344,2.296,2.3689,2.1872,1.9121,1.5592,1.4876,1.4314,1.3329,1.3155,1.2556,1.1222,1.1237,1.2103,1.3938,1.4345,1.6132,1.9676,1.9837,2.001,2.0392,2.0399,2.0476,2.0605,2.3973,2.5453,2.5191,2.5187,2.5114,-0.0551,-0.1738,-0.3194,-0.4727,-0.5097,-0.4945,-0.445,-0.321,-0.2167,0.0,-0.1003,-0.0468,0.0,0.0,0.0,0.0,0.0,0.0,0.0,0.0,0.0,0.0,0.0,0.0,0.0,0.0,0.0,0.0,-1.1778,-1.2292,-1.2881,-1.2844,-1.2742,-1.2576,-1.1382,-1.0412,-0.9849,-0.8813,-0.8453,-0.8705,-0.7254,-0.5549,-0.3576,-0.0733,0.1279,0.2618,0.4095,0.4655,0.4487,0.4448,0.4527,0.4829,0.6412,0.714,0.757,1.0039,1.1601,1.2862,1.5387,1.701,1.8469,2.1578,2.2665,2.3198,2.5385,2.6161,2.6493,2.7302,2.7152,2.7055,2.8527,2.8395,2.816,2.92,2.9401,2.8987,2.7582,2.7908,2.7585,2.4614,2.5561,2.6814,2.6801,2.4527,2.296,2.3689,2.1872,1.9158,1.5718,1.4935,1.4464,1.3856,1.3379,1.279,1.2023,1.1787,1.2319,1.3748,1.5418,1.7426,1.9786,1.9998,2.018,2.0399,2.0399,2.0476,2.0605,2.3973,2.5453,2.521,2.507,2.5023,0.0,-0.0536,-0.1291,-0.2043,-0.3654,-0.5281,-0.6193,-0.5832,-0.5565,-0.6456,-0.606,-0.5201,0.0,0.0,0.0,0.0,0.0,0.0,0.0,0.0,0.0,0.0,0.0,0.0,0.0,0.0,0.0,0.0,-1.2819,-1.3088,-1.3413,-1.3271,-1.3224,-1.3368,-1.2326,-1.1522,-1.1064,-1.0072,-0.9312,-0.8753,-0.7439,-0.6224,-0.5025,-0.1748,0.0524,0.193,0.364,0.4302,0.4233,0.4714,0.4979,0.5283,0.6926,0.7608,0.7968,1.0513,1.1832,1.2775,1.5936,1.7986,1.9609,2.2064,2.3508,2.4551,2.6073,2.69,2.7489,2.8391,2.8741,2.9012,2.9757,2.9582,2.9332,2.9813,3.0141,3.017,2.9545,2.9525,2.8891,2.6461,2.6702,2.7299,2.7299,2.6458,2.539,2.4208,2.1959,1.9865,1.8394,1.6162,1.4563,1.4181,1.3778,1.3371,1.2983,1.2888,1.3382,1.4562,1.6207,1.7945,1.9707,2.001,2.023,2.0399,2.2357,2.3387,2.3407,2.4876,2.5429,2.5082,2.4903,2.4832,0.0,0.0,0.0,0.0,-0.2206,-0.4912,-0.705,0.0,-0.7907,0.0,-0.9955,0.0,0.0,0.0,0.0,0.0,0.0,0.0,0.0,0.0,0.0,0.0,0.0,0.0,0.0,0.0,0.0,0.0,-1.3361,-1.349,-1.3826,-1.3447,-1.3367,-1.3754,-1.2894,-1.2286,-1.2008,-1.1148,-1.0096,-0.8871,-0.7753,-0.6896,-0.6125,-0.2266,0.0253,0.1682,0.3312,0.4134,0.4362,0.5039,0.5518,0.5965,0.7398,0.7987,0.8356,1.0885,1.2076,1.2913,1.6273,1.8683,2.0564,2.2322,2.4096,2.5726,2.6772,2.7687,2.8563,2.9441,2.994,3.0354,3.0933,3.0742,3.0455,3.0752,3.1064,3.1224,3.0965,3.0874,3.0276,2.8251,2.7587,2.7376,2.7313,2.7813,2.7294,2.4588,2.2697,2.1318,2.0591,1.7164,1.4856,1.5016,1.4441,1.3955,1.3741,1.3933,1.4537,1.5582,1.691,1.8286,1.9656,2.0,2.0214,2.0339,2.2999,2.4784,2.5601,2.5531,2.5332,2.4996,2.4783,2.4707,0.0,0.0,0.0,0.0,-0.1321,-0.3504,-0.6839,0.0,-0.7764,-0.867,-1.012,0.0,0.0,0.0,0.0,0.0,0.0,0.0,0.0,0.0,0.0,0.0,0.0,0.0,0.0,0.0,0.0,0.0,-1.2671,-1.3154,-1.4114,-1.3426,-1.3184,-1.3606,-1.2863,-1.2413,-1.2292,-1.1864,-1.0957,-0.9627,-0.8618,-0.7517,-0.6251,-0.2168,0.0179,0.1135,0.2808,0.4043,0.4892,0.5239,0.5815,0.654,0.7455,0.7856,0.8209,1.0701,1.2223,1.3471,1.6328,1.8582,2.0496,2.2308,2.4119,2.5913,2.7615,2.8723,2.9592,3.0482,2.9975,2.9674,3.1843,3.1494,3.0926,3.2257,3.2485,3.2108,3.0886,3.1596,3.1625,2.8742,2.7893,2.76,2.7345,2.7813,2.7294,2.4588,2.4529,2.3726,2.0863,1.7338,1.5583,1.6904,1.5436,1.4288,1.4082,1.4727,1.5547,1.6559,1.753,1.8587,1.9738,1.9928,2.006,2.0205,2.0585,2.2363,2.5601,2.5332,2.5144,2.4996,2.4783,2.4707,-0.0404,0.0,0.0,0.0,-0.2098,-0.4775,-0.713,-0.8039,-0.8919,-1.0799,-1.1656,0.0,0.0,0.0,0.0,0.0,0.0,0.0,0.0,0.0,0.0,0.0,0.0,0.0,0.0,0.0,0.0,0.0,0.0,-1.2433,-1.2995,-1.232,-1.2094,-1.255,-1.23,-1.2063,-1.1787,-1.1097,-1.0285,-0.9441,-0.8808,-0.7616,-0.5837,-0.2519,-0.0274,0.1143,0.3773,0.5224,0.5796,0.6554,0.698,0.7219,0.8055,0.8415,0.8711,1.0628,1.203,1.3363,1.615,1.8715,2.1095,2.3098,2.4927,2.6706,2.8496,2.9648,3.0527,3.1385,3.1457,3.156,3.2701,3.2939,3.2964,3.3415,3.3232,3.2973,3.3026,3.2281,3.1452,3.1102,3.0864,2.9992,2.769,2.7813,2.7483,2.5346,2.5201,2.4176,2.0973,1.9395,1.8401,1.8009,1.7335,1.6704,1.6195,1.6318,1.6806,1.7733,1.8186,1.8843,1.9817,2.0089,2.0192,2.0188,2.1449,2.3251,2.5601,2.5241,2.4991,2.4802,2.4647,2.4498,-0.1551,-0.0587,-0.0565,-0.2884,-0.3862,-0.4915,-0.741,-0.8445,-0.9446,-1.1344,-1.2372,0.0,0.0,0.0,0.0,0.0,0.0,0.0,0.0,0.0,0.0,0.0,0.0,0.0,0.0,0.0,0.0,0.0,0.0,0.0,-1.1672,-1.1128,-1.093,-1.1186,-1.1074,-1.0906,-1.0652,-0.9805,-0.9161,-0.8729,-0.8438,-0.6927,-0.4317,-0.2159,0.0206,0.2723,0.5242,0.6385,0.6536,0.7336,0.7709,0.7818,0.8407,0.8849,0.9288,1.067,1.2203,1.3962,1.6431,1.9126,2.1776,2.3837,2.5913,2.7892,2.9439,3.0723,3.1764,3.2373,3.2653,3.3027,3.3964,3.4417,3.4622,3.4493,3.4122,3.3878,3.4144,3.2892,3.1817,3.2091,3.2301,3.1637,2.9229,2.8469,2.7513,2.5538,2.5378,2.4548,2.1913,2.0952,2.0139,1.9204,1.8663,1.8197,1.7738,1.7674,1.7927,1.8526,1.8897,1.9388,2.0012,2.0217,2.0288,2.0275,2.208,2.3846,2.5564,2.5293,2.5006,2.4692,2.4566,2.4446,0.0,0.0,0.0,-0.8341,0.0,0.0,-0.7528,0.0,-0.9115,-0.9983,0.0,0.0,0.0,0.0,0.0,0.0,0.0,0.0,0.0,0.0,0.0,0.0,0.0,0.0,0.0,0.0,0.0,0.0,-1.0635,-1.0636,-1.0187,-0.9929,-0.9735,-0.9565,-0.9207,-0.8994,-0.8939,-0.8141,-0.768,-0.7516,-0.7461,-0.5433,-0.1736,-0.0977,0.168,0.5757,0.7044,0.7388,0.7059,0.7465,0.7899,0.8309,0.8473,0.9039,0.9908,1.0843,1.28,1.5317,1.7279,1.9812,2.2487,2.4514,2.7016,2.9418,3.0439,3.1953,3.3356,3.3409,3.3451,3.3875,3.5556,3.5846,3.5649,3.5457,3.5193,3.4794,3.4012,3.3484,3.2816,3.1504,3.1819,3.2214,3.1837,2.9758,2.7421,2.5144,2.5184,2.4996,2.3681,2.1812,2.0592,2.0566,1.9394,1.8605,1.8595,1.8765,1.8901,1.8981,1.9718,2.0221,2.037,2.0372,2.0389,2.0441,2.2121,2.3815,2.5476,2.5484,2.5222,2.4692,2.4549,2.4566,-0.3311,0.0,0.0,0.0,0.0,0.0,0.0,0.0,0.0,-0.9093,0.0,0.0,0.0,0.0,0.0,0.0,0.0,0.0,0.0,0.0,0.0,0.0,0.0,0.0,0.0,0.0,0.0,0.0,-0.9344,-0.9142,-0.8958,-0.8625,-0.8354,-0.8064,-0.7835,-0.7569,-0.728,-0.6671,-0.6054,-0.5511,-0.5482,-0.3913,-0.0958,0.0357,0.2503,0.5287,0.7094,0.7772,0.7613,0.8173,0.8274,0.8152,0.8875,0.9361,0.9905,1.1952,1.4039,1.6234,1.8761,2.1414,2.4046,2.6157,2.8267,3.0177,3.1185,3.2772,3.4209,3.4038,3.4605,3.5398,3.5868,3.5885,3.5757,3.564,3.5268,3.4908,3.4832,3.3862,3.2866,3.2488,3.1435,3.0675,3.0838,2.9007,2.7467,2.7265,2.5911,2.4726,2.4219,2.3708,2.301,2.1983,2.1541,2.1126,2.064,2.0604,2.0664,2.0772,2.0931,2.1367,2.2086,2.206,2.1869,2.149,2.2489,2.3631,2.4915,2.5222,2.5126,2.4692,2.4411,2.4429,-0.3673,-0.3314,-0.2791,-0.2468,0.0,0.0,-0.5586,-0.6086,0.0,0.0,0.0,0.0,0.0,0.0,0.0,0.0,0.0,0.0,0.0,0.0,0.0,0.0,0.0,0.0,0.0,-1.0176,-0.9416,-0.8606,-0.8116,-0.7636,-0.7147,-0.6865,-0.6579,-0.6378,-0.6048,-0.5739,-0.5443,-0.4793,-0.4269,-0.3894,-0.3981,-0.2563,0.0214,0.1221,0.2946,0.5231,0.7077,0.7646,0.7355,0.8096,0.8224,0.8001,0.8981,0.9849,1.0824,1.3092,1.5505,1.8001,2.0463,2.2832,2.517,2.7698,2.9535,3.1059,3.2454,3.3926,3.5073,3.4948,3.4886,3.5054,3.5801,3.5554,3.5196,3.5638,3.5483,3.4975,3.399,3.2786,3.1789,3.1405,3.0385,2.9425,2.9042,2.7794,2.6923,2.7209,2.6268,2.5401,2.5041,2.4651,2.408,2.3202,2.2827,2.2412,2.1796,2.1809,2.1886,2.1949,2.1971,2.2228,2.2731,2.271,2.2656,2.2538,2.2776,2.3487,2.4631,2.4847,2.4847,2.4596,2.4462,2.4513,-0.4233,-0.3857,-0.3847,-0.5157,-0.4866,0.0,-0.5691,-0.5515,-0.5325,0.0,0.0,0.0,0.0,0.0,0.0,0.0,0.0,0.0,0.0,0.0,0.0,0.0,0.0,0.0,-1.0729,-0.9545,-0.8413,-0.7525,-0.6831,-0.5972,-0.4943,-0.4753,-0.461,-0.444,-0.3942,-0.3619,-0.3389,-0.2637,-0.2339,-0.2491,-0.2552,-0.1175,0.1446,0.1792,0.3192,0.5417,0.688,0.7242,0.688,0.7747,0.8046,0.8093,0.917,1.0686,1.249,1.4607,1.7359,2.0342,2.2531,2.441,2.6302,2.9221,3.0895,3.2089,3.387,3.5057,3.5814,3.5894,3.4668,3.3618,3.503,3.4856,3.4559,3.5475,3.5566,3.475,3.2193,3.0958,3.0087,2.9106,2.8936,2.8449,2.6899,2.6291,2.6033,2.5876,2.6251,2.6341,2.5821,2.4906,2.4266,2.4135,2.3521,2.2918,2.2359,2.2555,2.2708,2.2745,2.2862,2.2932,2.2939,2.2958,2.314,2.3553,2.3154,2.3584,2.4912,2.4614,2.4465,2.4465,2.4645,2.4723,-0.4174,-0.42,-0.4314,-0.4128,0.0,0.0,-0.4804,-0.5047,-0.5156,0.0,0.0,0.0,0.0,0.0,0.0,0.0,0.0,0.0,0.0,0.0,0.0,0.0,0.0,0.0,-1.006,-0.9252,-0.8182,-0.6744,-0.5049,-0.3706,-0.2891,-0.2806,-0.2542,-0.2143,-0.1976,-0.1513,-0.0742,-0.0444,-0.0339,-0.046,0.0264,0.0961,0.1667,0.2486,0.3866,0.5657,0.6128,0.7051,0.8236,0.8513,0.8819,0.9241,1.0844,1.2634,1.4687,1.7826,2.0276,2.252,2.5825,2.7627,2.8825,3.1092,3.2566,3.3555,3.4147,3.5001,3.5833,3.5942,3.4724,3.3111,3.1953,3.364,3.5541,3.5158,3.4433,3.3273,3.121,3.0027,2.9106,2.8107,2.791,2.7372,2.5644,2.5289,2.5362,2.5697,2.5598,2.5491,2.5496,2.4852,2.4296,2.4127,2.4109,2.381,2.2999,2.3164,2.3423,2.3632,2.3673,2.3957,2.4522,2.455,2.4549,2.4525,2.3967,2.4938,2.7471,2.5293,2.4247,2.4266,2.4726,2.4846,-0.4296,-0.4365,-0.4418,-0.3843,0.0,0.0,0.0,0.0,-0.2812,-0.3672,0.0,0.0,0.0,0.0,0.0,0.0,0.0,0.0,0.0,0.0,0.0,0.0,0.0,0.0,-0.9176,-0.8081,-0.6424,-0.4173,-0.2772,-0.1608,-0.065,-0.0441,-0.0166,0.017,0.0434,0.0688,0.0949,0.1411,0.117,0.0266,0.144,0.1617,0.0955,0.2523,0.3604,0.4262,0.5406,0.6764,0.8226,0.9123,1.0303,1.1658,1.2837,1.4709,1.7117,2.0133,2.2888,2.5476,2.783,2.9474,3.0807,3.2468,3.3273,3.3764,3.4629,3.4941,3.4959,3.4763,3.3424,3.2155,3.2615,3.3015,3.3145,3.2471,3.2754,3.2834,3.1694,2.9594,2.7574,2.6497,2.6757,2.6681,2.5243,2.4886,2.4988,2.5478,2.5282,2.5185,2.5539,2.5304,2.4896,2.4453,2.4725,2.4521,2.3492,2.3803,2.3959,2.3762,2.4251,2.4522,2.445,2.4847,2.5045,2.5039,2.4281,2.491,2.6943,2.6428,2.5514,2.4264,2.6117,2.7098,0.0,0.0,0.0,0.0,0.0,-0.3828,0.0,0.0,0.0,0.0,0.0,0.0,0.0,0.0,0.0,0.0,0.0,0.0,0.0,0.0,0.0,0.0,0.0,0.0,0.0,-0.6541,-0.432,-0.1608,-0.0705,0.0285,0.159,0.1995,0.2285,0.2474,0.3055,0.3171,0.2697,0.3323,0.2746,0.0944,0.2189,0.1905,0.0345,0.2389,0.3273,0.3286,0.5197,0.6849,0.8304,1.0032,1.219,1.4455,1.4967,1.6818,1.9505,2.2129,2.5186,2.8184,2.9397,3.0844,3.2331,3.3525,3.3823,3.3907,3.4969,3.4695,3.3947,3.3514,3.2104,3.1352,3.4173,3.2669,3.0407,3.0338,3.1628,3.282,3.2457,2.9554,2.6774,2.6005,2.63,2.6415,2.5552,2.5161,2.5129,2.5503,2.5285,2.5218,2.5663,2.5721,2.5452,2.4689,2.5062,2.4913,2.3831,2.4116,2.4151,2.3645,2.4465,2.4656,2.3934,2.4758,2.534,2.5573,2.4808,2.489,2.5903,2.7338,2.6941,2.4957,2.7606,2.9144,0.0,0.0,0.0,0.0,-0.3974,0.0,0.0,0.0,0.0,0.0,0.0,0.0,0.0,0.0,0.0,0.0,0.0,0.0,0.0,0.0,0.0,0.0,0.0,0.0,0.0,-0.5074,-0.2859,-0.0854,0.0307,0.1689,0.3496,0.4221,0.4578,0.4557,0.5597,0.5951,0.5539,0.5868,0.4929,0.2795,0.3503,0.2808,0.0948,0.2385,0.3734,0.4998,0.6294,0.7999,0.9979,1.1974,1.4384,1.6906,1.7166,1.8927,2.166,2.4266,2.6893,2.936,3.1092,3.2294,3.3237,3.4317,3.4893,3.5079,3.4652,3.3996,3.3398,3.3397,3.2104,3.1352,3.4173,3.2353,3.0262,3.2107,3.2724,3.282,3.2457,3.0106,2.821,2.8795,2.7706,2.6714,2.6834,2.6649,2.6397,2.6154,2.5863,2.5629,2.5458,2.5454,2.5167,2.4421,2.4675,2.462,2.3941,2.3607,2.3521,2.3682,2.3973,2.4072,2.3905,2.5069,2.5987,2.6531,2.6322,2.6342,2.6602,2.7147,2.7382,2.7317,2.7986,2.8569,0.0,0.0,0.0,0.0,0.0,0.0,-0.3517,0.0,-0.3955,0.0,0.0,0.0,0.0,0.0,0.0,0.0,0.0,0.0,0.0,0.0,0.0,0.0,0.0,0.0,0.0,0.0,0.0,0.0,0.1694,0.3381,0.515,0.6118,0.6929,0.7551,0.8347,0.8537,0.8109,0.8128,0.6698,0.3866,0.4506,0.3518,0.1171,0.2866,0.4432,0.5828,0.6761,0.861,1.1118,1.297,1.4969,1.7105,1.9175,2.1622,2.4155,2.5764,2.8295,3.1044,3.1734,3.2943,3.4235,3.4737,3.4805,3.4639,3.4326,3.416,3.3751,3.2303,3.204,3.2613,3.442,3.3384,3.2015,3.2732,3.1743,3.0604,3.0468,2.9231,2.8432,2.924,2.879,2.8248,2.8166,2.7036,2.6085,2.5928,2.5741,2.5628,2.5621,2.5668,2.5365,2.4503,2.4607,2.447,2.3774,2.375,2.3764,2.3755,2.3957,2.4389,2.5139,2.5954,2.6536,2.6925,2.7321,2.743,2.7328,2.8352,2.8694,2.85,2.8307,2.8219,-0.5146,0.0,0.0,0.0,0.0,0.0,0.0,0.0,0.0,0.0,0.0,0.0,0.0,0.0,0.0,0.0,0.0,0.0,0.0,0.0,0.0,0.0,0.0,0.0,0.0,0.0,0.0,0.0,0.0,0.469,0.6665,0.7786,0.8831,0.9844,1.0401,1.0556,1.0295,0.9729,0.8011,0.5206,0.5565,0.443,0.2106,0.3991,0.5557,0.6855,0.7882,0.9691,1.2069,1.3934,1.5819,1.7842,2.0684,2.336,2.5764,2.6637,2.8988,3.1727,3.1682,3.2872,3.4469,3.4622,3.4588,3.4468,3.4256,3.4374,3.4178,3.2109,3.2388,3.3525,3.456,3.4298,3.3424,3.2224,3.0376,2.8947,2.9085,2.8205,2.7824,2.9206,2.9152,2.8876,2.8972,2.753,2.6372,2.6297,2.6114,2.5991,2.5921,2.5944,2.559,2.4693,2.4608,2.4333,2.3702,2.3601,2.3705,2.3961,2.4121,2.4801,2.6129,2.6711,2.7043,2.7103,2.7764,2.8073,2.7926,2.8725,2.8928,2.856,2.7924,2.7927,0.0,0.0,0.0,-0.2963,0.0,0.0,0.0,0.0,0.0889,0.0,0.0,0.0,0.0,0.0,0.0,0.0,0.0,0.0,0.0,0.0,0.0,0.0,0.0,0.0,0.0,0.0,0.0,0.0,0.0,0.0,0.809,0.9254,1.0147,1.0827,1.1373,1.1778,1.202,1.0406,0.8791,0.7191,0.6757,0.5727,0.4255,0.5952,0.7304,0.8431,1.0139,1.1605,1.2926,1.5054,1.7542,2.012,2.1477,2.3561,2.5889,2.6784,2.869,3.0824,3.0843,3.2029,3.356,3.3785,3.4483,3.5158,3.4575,3.4483,3.4426,3.3554,3.3305,3.3507,3.4377,3.4602,3.3708,3.032,2.9049,2.8761,2.9283,2.7282,2.6235,2.9127,2.8484,2.7846,2.9,2.8595,2.8012,2.7793,2.753,2.7081,2.6378,2.6191,2.5754,2.4891,2.4496,2.4177,2.3805,2.2856,2.2866,2.4286,2.4445,2.5066,2.6329,2.7086,2.7378,2.7099,2.7621,2.8042,2.8269,2.7476,2.7128,2.7151,2.6567,2.7732,0.0,0.0,-0.3471,-0.4341,0.0,0.0,0.0,0.0,0.0,0.0,0.0,0.0,0.0,0.0,0.0,0.0,0.0,0.0,0.0,0.0,0.0,0.0,0.0,0.0,0.0,0.0,0.0,0.0,0.4511,0.0,0.0,1.0849,1.2196,1.3619,1.3556,1.3821,1.4479,1.212,1.0191,0.8742,0.7604,0.6527,0.561,0.7103,0.853,0.9874,1.1404,1.2778,1.4069,1.5916,1.7471,1.8915,2.1027,2.2831,2.4391,2.589,2.8024,3.0356,3.1468,3.145,3.1148,3.2553,3.3299,3.3749,3.4245,3.4892,3.5408,3.5131,3.4973,3.4662,3.3608,3.396,3.4017,3.1722,3.0541,2.9916,2.9937,2.9091,2.866,2.9693,2.9477,2.917,2.9383,2.9171,2.8699,2.7847,2.7137,2.6559,2.6224,2.5603,2.4972,2.4462,2.4164,2.3976,2.3823,2.4008,2.4418,2.5147,2.5381,2.5868,2.6698,2.7353,2.7692,2.7705,2.83,2.8339,2.7769,2.8076,2.7801,2.7041,2.5048,2.5941,-0.5408,-0.4183,0.0,-0.3909,-0.2709,0.0,-0.145,0.0,0.0,0.0,0.0,0.0,0.0,0.0,0.0,0.0,0.0,0.0,0.0,0.3847,0.0,0.0,0.0,0.0,0.0,0.0,0.199,0.4675,0.5702,0.0,0.0,0.0,1.375,1.5268,1.4839,1.502,1.5949,1.312,1.1249,1.0348,0.9016,0.8047,0.7451,0.8659,0.998,1.1342,1.2542,1.39,1.5346,1.6536,1.7646,1.8782,2.0616,2.1937,2.3079,2.5252,2.725,2.9094,3.0488,3.0359,2.9851,3.1553,3.2374,3.2908,3.4061,3.4666,3.5031,3.5265,3.5533,3.5272,3.3223,3.2959,3.3039,3.2429,3.1355,3.0402,3.0207,2.9511,2.9052,2.9546,2.9199,2.8874,2.8954,2.8787,2.8516,2.8167,2.7254,2.6542,2.6283,2.5326,2.4571,2.4397,2.4034,2.3885,2.4116,2.4743,2.5425,2.6226,2.6534,2.6969,2.7461,2.7884,2.818,2.8243,2.8502,2.8268,2.7643,2.7814,2.7545,2.6811,2.454,2.4741]},{"header":{"parameterUnit":"m.s-1","parameterCategory":1,"la1":30.6,"la2":29.2853,"lo1":-89.7004,"lo2":-87.6739,"dy":0.0162,"dx":0.0183,"nx":112,"ny":82,"refTime":"2026-03-09T00:00:00:Z","depth":0,"parameterNumber":3,"parameterNumberName":"V-component_of_WINDS"},"data":[0.0,0.0,0.0,0.0,0.0,0.0,0.0,0.0,0.0,0.0,0.0,0.0,0.0,0.0,0.0,0.0,0.0,0.0,0.0,0.0,0.0,0.0,0.0,0.0,0.0,0.0,0.0,0.0,0.0,0.0,0.0,0.0,0.0,0.0,0.0,0.0,0.0,0.0,0.0,0.0,0.0,0.0,0.0,0.0,0.0,0.0,0.0,0.0,0.0,0.0,0.0,0.0,0.0,0.0,0.0,0.0,0.0,0.0,0.0,0.0,0.0,0.0,0.0,0.0,0.0,0.0,0.0,0.0,0.0,0.0,0.0,0.0,0.0,0.0,0.0,0.0,0.0,0.0,0.0,0.0,0.0,0.0,0.0,0.0,0.0,0.0,0.0,0.0,0.0,0.0,-0.7649,-1.0413,-1.0449,-0.9564,-0.7793,-0.7173,-0.6022,-0.393,0.0,0.0,0.0,0.0,0.0,0.0,0.0,0.0,0.0,0.0,0.0,0.0,0.0,0.0,0.0,0.0,0.0,0.0,0.0,0.0,0.0,0.0,0.0,0.0,0.0,0.0,0.0,0.0,0.0,0.0,0.0,0.0,0.0,0.0,0.0,0.0,0.0,0.0,0.0,0.0,0.0,0.0,0.0,0.0,0.0,0.0,0.0,0.0,0.0,0.0,0.0,0.0,0.0,0.0,0.0,0.0,0.0,0.0,0.0,0.0,0.0,0.0,0.0,0.0,0.0,0.0,0.0,0.0,0.0,0.0,0.0,0.0,0.0,0.0,0.0,0.0,0.0,0.0,0.0,0.0,0.0,0.0,0.0,0.0,0.0,0.0,0.0,0.0,0.0,0.0,0.0,0.0,0.0,0.0,0.0,0.0,0.0,0.0,0.0,0.0,0.0,0.0,0.0,0.0,-0.7649,-1.0413,-0.928,-0.8196,-0.7886,-0.808,-0.7099,-0.4466,0.0,0.0,0.0,0.0,0.0,0.0,0.0,0.0,0.0,0.0,0.0,0.0,0.0,0.0,0.0,0.0,0.0,0.0,0.0,0.0,0.0,0.0,0.0,0.0,0.0,0.0,0.0,0.0,0.0,0.0,0.0,0.0,0.0,0.0,0.0,0.0,0.0,0.0,0.0,0.0,0.0,0.0,0.0,0.0,0.0,0.0,0.0,0.0,0.0,0.0,0.0,0.0,0.0,0.0,0.0,0.0,0.0,0.0,0.0,0.0,0.0,0.0,0.0,0.0,0.0,0.0,0.0,0.0,0.0,0.0,0.0,0.0,0.0,0.0,0.0,0.0,0.0,0.0,0.0,0.0,0.0,0.0,0.0,0.0,0.0,0.0,0.0,0.0,0.0,0.0,0.0,0.0,0.0,0.0,0.0,0.0,0.0,0.0,0.0,0.0,0.0,0.0,0.0,-0.6778,-0.7475,-0.8623,-0.9141,-0.9017,-0.799,-0.6675,-0.5471,-0.4462,-0.5568,0.0,0.0,0.0,0.0,0.0,0.0,0.0,0.0,0.0,0.0,0.0,0.0,0.0,0.0,0.0,0.0,0.0,0.0,0.0,0.0,0.0,0.0,0.0,0.0,0.0,0.0,0.0,0.0,0.0,0.0,0.0,0.0,0.0,0.0,0.0,0.0,0.0,0.0,0.0,0.0,0.0,0.0,0.0,0.0,0.0,0.0,0.0,0.0,0.0,0.0,0.0,0.0,0.0,0.0,0.0,0.0,0.0,0.0,0.0,0.0,0.0,0.0,0.0,0.0,0.0,0.0,0.0,0.0,0.0,0.0,0.0,0.0,0.0,0.0,0.0,0.0,0.0,0.0,0.0,0.0,0.0,0.0,0.0,0.0,0.0,0.0,0.0,0.0,0.0,0.0,0.0,0.0,0.0,0.0,0.0,0.0,0.0,0.0,0.0,0.0,0.0,0.0,-0.6602,-0.7329,-0.7123,-0.8863,-0.9183,-0.7114,-0.494,-0.3825,-0.4118,-0.4375,0.0,0.0,0.0,0.0,0.0,0.0,0.0,0.0,0.0,0.0,0.0,0.0,0.0,0.0,0.0,0.0,0.0,0.0,0.0,0.0,0.0,0.0,0.0,0.0,0.0,0.0,0.0,0.0,0.0,0.0,0.0,0.0,0.0,0.0,0.0,0.0,0.0,0.0,0.0,0.0,0.0,0.0,0.0,0.0,0.0,0.0,0.0,0.0,0.0,0.0,0.0,0.0,0.0,0.0,0.0,0.0,0.0,0.0,0.0,0.0,0.0,0.0,0.0,0.0,0.0,0.0,0.0,0.0,0.0,0.0,0.0,0.0,0.0,0.0,0.0,0.0,0.0,0.0,0.0,0.0,0.0,0.0,0.0,0.0,0.0,0.0,0.0,0.0,0.0,0.0,0.0,0.0,0.0,0.0,0.0,0.0,0.0,0.0,0.0,0.0,0.0,0.0,-0.5634,-0.7329,-0.7123,-0.7702,-0.7012,-0.4315,-0.3849,-0.3608,-0.3394,-0.408,0.0,0.0,0.0,0.0,0.0,0.0,0.0,0.0,0.0,0.0,0.0,0.0,0.0,0.0,0.0,0.0,0.0,0.0,0.0,0.0,0.0,0.0,0.0,0.0,0.0,0.0,0.0,0.0,0.0,0.0,0.0,0.0,0.0,0.0,0.0,0.0,0.0,0.0,0.0,0.0,0.0,0.0,0.0,0.0,0.0,0.0,0.0,0.0,0.0,0.0,0.0,0.0,0.0,0.0,0.0,0.0,0.0,0.0,0.0,0.0,0.0,0.0,0.0,0.0,0.0,0.0,0.0,0.0,0.0,0.0,0.0,0.0,0.0,0.0,0.0,0.0,0.0,0.0,0.0,0.0,0.0,0.0,0.0,0.0,0.0,0.0,0.0,0.0,0.0,0.0,0.0,0.0,0.0,0.0,0.0,0.0,0.0,0.0,0.0,0.0,0.0,0.0,-0.5583,-0.6053,0.0,-0.6347,-0.5501,-0.3298,-0.3053,-0.31,-0.3289,0.0,0.0,0.0,0.0,0.0,0.0,0.0,0.0,0.0,0.0,0.0,0.0,0.0,0.0,0.0,0.0,0.0,0.0,0.0,0.0,0.0,0.0,0.0,0.0,0.0,0.0,0.0,0.0,0.0,0.0,0.0,0.0,0.0,0.0,0.0,0.0,0.0,0.0,0.0,0.0,0.0,0.0,0.0,0.0,0.0,0.0,0.0,0.0,0.0,0.0,0.0,0.0,0.0,0.0,0.0,0.0,0.0,0.0,0.0,0.0,0.0,0.0,0.0,0.0,0.0,0.0,0.0,0.0,0.0,0.0,0.0,0.0,0.0,0.0,0.0,0.0,0.0,0.0,0.0,0.0,0.0,0.0,0.0,0.0,0.0,0.0,0.0,0.0,0.0,0.0,0.0,0.0,0.0,0.0,0.0,0.0,0.0,0.0,0.0,0.0,0.0,0.0,-0.5929,-0.5499,-0.5137,0.0,-0.5406,-0.4577,-0.2591,-0.2058,-0.1959,-0.2231,0.0,0.0,0.0,0.0,0.0,0.0,0.0,0.0,0.0,0.0,0.0,0.0,0.0,0.0,0.0,0.0,0.0,0.0,0.0,0.0,0.0,0.0,0.0,0.0,0.0,0.0,0.0,0.0,0.0,0.0,0.0,0.0,0.0,0.0,0.0,0.0,0.0,0.0,0.0,0.0,0.0,0.0,0.0,0.0,0.0,0.0,0.0,0.0,0.0,0.0,0.0,0.0,0.0,0.0,0.0,0.0,0.0,0.0,0.0,0.0,0.0,0.0,0.0,0.0,0.0,0.0,0.0,0.0,0.0,0.0,0.0,0.0,0.0,0.0,0.0,0.0,0.0,0.0,0.0,0.0,0.0,0.0,0.0,0.0,0.0,0.0,0.0,0.0,0.0,0.0,0.0,0.0,0.0,0.0,0.0,0.0,0.0,0.0,0.0,0.0,0.0,0.0,-0.5728,-0.53,-0.4812,-0.4831,-0.499,-0.4188,-0.1983,-0.0813,-0.0143,0.0,0.0,0.0,0.0,0.0,0.0,0.0,0.0,0.0,0.0,0.0,0.0,0.0,0.0,0.0,0.0,0.0,0.0,0.0,0.0,0.0,0.0,0.0,0.0,0.0,0.0,0.0,0.0,0.0,0.0,0.0,0.0,0.0,0.0,0.0,0.0,0.0,0.0,0.0,0.0,0.0,0.0,0.0,0.0,0.0,0.0,0.0,0.0,0.0,0.0,0.0,0.0,0.0,0.0,0.0,0.0,0.0,0.0,0.0,0.0,0.0,0.0,0.0,0.0,0.0,0.0,0.0,0.0,0.0,0.0,0.0,0.0,0.0,0.0,0.0,0.0,0.0,0.0,0.0,0.0,0.0,0.0,0.0,0.0,0.0,0.0,0.0,0.0,0.0,0.0,0.0,0.0,0.0,0.0,0.0,0.0,0.0,0.0,0.0,0.0,0.0,0.0,0.0,-0.4949,-0.5442,-0.5869,-0.6426,-0.5152,-0.3475,-0.1537,-0.0564,-0.004,-0.0002,0.0,0.0,0.0,0.0,0.0,0.0,0.0,0.0,0.0,0.0,0.0,0.0,0.0,0.0,0.0,0.0,0.0,0.0,0.0,0.0,0.0,0.0,0.0,0.0,0.0,0.0,0.0,0.0,0.0,0.0,0.0,0.0,0.0,0.0,0.0,0.0,0.0,0.0,0.0,0.0,0.0,0.0,0.0,0.0,0.0,0.0,0.0,0.0,0.0,0.0,0.0,0.0,0.0,0.0,0.0,0.0,0.0,0.0,0.0,0.0,0.0,0.0,0.0,0.0,0.0,0.0,0.0,0.0,0.0,0.0,0.0,0.0,0.0,0.0,0.0,0.0,0.0,0.0,0.0,0.0,0.0,0.0,0.0,0.0,0.0,0.0,0.0,0.0,0.0,0.0,0.0,0.0,0.0,0.0,0.0,0.0,0.0,0.0,0.0,0.0,0.0,0.0,-0.5159,-0.6845,-0.7897,-0.7937,-0.6475,-0.4683,-0.269,-0.1235,-0.0448,-0.0478,0.0,0.0,0.0,0.0,0.0,0.0,0.0,0.0,0.0,0.0,0.0,0.0,0.0,0.0,0.0,0.0,0.0,0.0,0.0,0.0,0.0,0.0,0.0,0.0,0.0,0.0,0.0,0.0,0.0,0.0,0.0,0.0,0.0,0.0,0.0,0.0,0.0,0.0,0.0,0.0,0.0,0.0,0.0,0.0,0.0,0.0,0.0,0.0,0.0,0.0,0.0,0.0,0.0,0.0,0.0,0.0,0.0,0.0,0.0,0.0,0.0,0.0,0.0,0.0,0.0,0.0,0.0,0.0,0.0,0.0,0.0,0.0,0.0,0.0,0.0,0.0,0.0,0.0,0.0,0.0,0.0,0.0,0.0,0.0,0.0,0.0,0.0,0.0,0.0,0.0,0.0,0.0,0.0,0.0,0.0,0.0,0.0,0.0,0.0,0.0,0.0,0.0,-0.6319,-0.9048,-1.0386,-0.9339,-0.8485,-0.714,-0.5081,-0.281,-0.1457,-0.1384,0.0,0.0,0.0,0.0,0.0,0.0,0.0,0.0,0.0,0.0,0.0,0.0,0.0,0.0,0.0,0.0,0.0,0.0,0.0,0.0,0.0,0.0,0.0,0.0,0.0,0.0,0.0,0.0,0.0,0.0,0.0,0.0,0.0,0.0,0.0,0.0,0.0,0.0,0.0,0.0,0.0,0.0,0.0,0.0,0.0,0.0,0.0,0.0,0.0,0.0,0.0,0.0,0.0,0.0,0.0,0.0,0.0,0.0,0.0,0.0,-0.3892,0.0,0.0,0.0,0.0,0.0,0.0,0.0,0.0,0.0,0.0,0.0,0.0,0.0,0.0,0.0,0.0,0.0,0.0,0.0,0.0,0.0,0.0,0.0,0.0,0.0,0.0,0.0,0.0,0.0,0.0,0.0,0.0,0.0,0.0,0.0,0.0,0.0,0.0,0.0,0.0,0.0,-0.8901,-1.0412,-1.1038,-1.0286,-0.9254,-0.8441,-0.7991,-0.5766,-0.3916,-0.2767,-0.3048,0.0,0.0,0.0,0.0,0.0,0.0,0.0,0.0,0.0,0.0,0.0,0.0,0.0,0.0,0.0,0.0,0.0,0.0,0.0,0.0,0.0,0.0,0.0,0.0,0.0,0.0,0.0,0.0,0.0,0.0,0.0,0.0,0.0,0.0,0.0,0.0,0.0,0.0,0.0,0.0,0.0,0.0,0.0,0.0,0.0,0.0,0.0,0.0,0.0,0.0,0.0,0.0,0.0,0.0,0.0,0.0,0.0,0.0,0.0,0.0,-0.365,0.0,0.0,0.0,0.0,0.0,0.0,0.0,0.0,0.0,0.0,0.0,0.0,0.0,0.0,0.0,0.0,0.0,0.0,0.0,0.0,0.0,0.0,0.0,0.0,0.0,0.0,0.0,0.0,0.0,0.0,0.0,0.0,0.0,0.0,0.0,0.0,0.0,0.0,0.0,0.0,-1.0742,-1.1652,-1.1861,-1.121,-1.0427,-0.9629,-0.8861,-0.7802,-0.6523,-0.4971,-0.4441,0.0,0.0,0.0,0.0,0.0,0.0,0.0,0.0,0.0,0.0,0.0,0.0,0.0,0.0,0.0,0.0,0.0,0.0,0.0,0.0,0.0,0.0,0.0,0.0,0.0,0.0,0.0,0.0,0.0,0.0,0.0,0.0,0.0,0.0,0.0,0.0,0.0,0.0,0.0,0.0,0.0,0.0,0.0,0.0,0.0,0.0,0.0,0.0,0.0,0.0,0.0,0.0,0.0,-0.5078,-0.5479,-0.5304,-0.4958,-0.4292,-0.3465,-0.3478,-0.3264,-0.281,0.0,0.0,0.0,0.0,0.0,0.0,0.0,0.0,0.0,0.0,0.0,0.0,0.0,0.0,0.0,0.0,0.0,0.0,0.0,0.0,0.0,0.0,0.0,0.0,0.0,-1.1186,-1.0215,0.0,0.0,0.0,0.0,0.0,0.0,0.0,0.0,0.0,0.0,0.0,0.0,-1.214,-1.262,-1.2466,-1.1712,-1.138,-1.0542,-0.9,-0.9043,-0.8553,-0.716,-0.5899,-0.5096,0.0,0.0,0.0,0.0,0.0,0.0,0.0,0.0,0.0,0.0,0.0,0.0,0.0,0.0,0.0,0.0,0.0,0.0,0.0,0.0,0.0,0.0,0.0,0.0,0.0,0.0,0.0,0.0,0.0,0.0,0.0,0.0,0.5548,0.6145,0.0,0.0,0.0,0.0,0.0,0.0,0.0,0.0,0.0,0.0,0.0,0.0,0.0,-0.286,-0.141,-0.3029,-0.3767,-0.359,-0.3744,-0.3402,-0.2613,-0.2153,-0.1862,-0.1741,-0.1862,0.0,-0.1607,-0.1274,0.0,0.0,0.0,0.0,0.0,0.0,0.0,0.0,0.0,0.0,0.0,0.0,0.0,0.0,0.0,0.0,0.0,0.0,0.0,0.0,0.0,0.0,-1.2497,-1.1678,-1.2373,-1.2722,0.0,-0.8813,-0.7559,-0.8896,-0.6726,0.0,0.0,0.0,0.0,0.0,0.0,0.0,-1.3141,-1.2832,-1.2154,-1.1122,-1.1078,-1.067,-0.9559,-0.9195,-0.8758,-0.8146,-0.7597,-0.6544,-0.486,-0.4393,0.0,0.0,0.0,0.0,0.0,0.0,0.0,0.0,0.0,0.0,0.0,0.0,0.0,0.0,0.0,0.0,0.0,0.0,0.0,0.0,0.0,0.0,0.0,0.0,0.0,0.0,0.0,0.0,0.0,0.4819,0.557,0.6261,0.6568,0.6289,0.0,0.0,0.0,0.0,0.0,0.0,0.0,0.0,0.0,-0.1409,-0.2863,-0.337,-0.2804,-0.3474,-0.3441,-0.2701,-0.1897,-0.1325,-0.0903,-0.0513,-0.0773,-0.1528,-0.1571,-0.0981,0.0,0.0086,0.024,0.042,0.0,0.0,0.0,0.0,0.1356,0.176,0.2084,0.2048,0.0,0.1543,0.0,0.0,0.0,0.0,0.0,0.0,0.0,0.0,0.0,0.0,0.0,-1.2646,-1.1814,-1.0788,-0.9866,-0.8238,-0.7488,0.0,-0.7631,-0.5812,-0.5518,0.0,0.0,0.0,0.0,-1.0992,-1.1745,-1.1684,-1.1246,-1.0317,-1.0619,-1.0539,-0.9718,-0.9465,-0.9154,-0.8711,-0.8238,-0.7537,-0.6539,-0.5469,-0.4269,0.0,0.0,0.0,0.0,0.0,0.0,0.0,0.0,0.0,0.0,0.0,0.0,0.0,0.0,0.0,0.0,0.0,0.0,0.0,0.0,0.0,0.0,0.0,0.0,0.0,0.0,0.0,0.0,0.4977,0.541,0.6528,0.719,0.7254,0.0,0.0,0.0,0.0,0.0,0.0,0.1639,0.1119,0.0146,-0.1411,-0.2506,-0.3166,-0.3368,-0.3325,-0.2719,-0.1544,-0.0497,0.0182,0.0546,0.0517,-0.0067,-0.1072,-0.1072,-0.0234,0.111,0.111,0.111,0.1119,0.1265,0.1629,0.2088,0.2442,0.238,0.2086,0.1879,0.1756,0.151,0.0363,0.0,-0.4451,-0.653,0.0,0.0,0.0,0.0,-1.384,-1.341,-1.2502,-1.1882,-1.2614,-1.0701,-0.8583,-0.8143,-0.7302,-0.6905,0.0,-0.7196,-0.6361,-0.6781,0.0,0.0,0.0,0.0,-0.9646,-1.0571,-1.0787,-1.064,-1.0002,-1.0219,-1.0161,-0.9524,-0.9455,-0.9329,-0.9068,-0.8563,-0.8151,-0.7885,-0.603,-0.5024,-0.5093,0.0,0.0,0.0,0.0,0.0,0.0,0.0,0.0,0.0,0.0,0.0,0.0,0.0,0.0,0.0,0.0,0.0,0.0,0.0,0.0,0.0,0.0,0.0,0.0,0.0,0.0,0.0,0.0,0.0,0.7414,0.8765,0.0,0.0,0.0,0.0,0.5647,0.4501,0.3481,0.2665,0.229,0.1467,0.0046,-0.1235,-0.1901,-0.1909,-0.2467,-0.1852,-0.0101,-0.0041,0.0754,0.2071,0.0996,0.0471,0.0403,0.0403,0.0672,0.111,0.111,0.111,0.1086,0.1114,0.1777,0.2832,0.3549,0.3907,0.3847,0.2323,0.1514,0.0693,-0.2091,-0.4556,-0.698,-0.9933,-1.0879,0.0,0.0,-1.2437,-1.1965,-1.3257,-1.2115,-1.0578,-1.0651,-0.9266,-0.7817,-0.7276,-0.7116,-0.6951,0.0,-0.611,-0.5895,-0.6367,0.0,-0.7686,-0.7748,-0.8945,-1.0116,-1.0805,-1.0843,-1.074,-1.0575,-1.0021,-0.9435,-0.8888,-0.8953,-0.9071,-0.9173,-0.8752,-0.8371,-0.809,-0.6101,-0.5036,-0.5093,-0.1749,0.0,0.0,0.0,0.0,0.0,0.0,0.0,0.0,0.0,0.0,0.0,0.0,0.0,0.0,0.0,0.0,0.0,0.0,0.0,0.0,0.0,0.0,0.0,0.0,0.0,0.0,0.0,0.0,0.7684,0.8654,0.0,0.8538,0.7739,0.6918,0.6087,0.5021,0.3995,0.3017,0.2679,0.1794,0.021,-0.0309,-0.104,-0.1995,-0.22,-0.1546,0.0,0.0959,0.1839,0.264,0.2226,0.151,0.061,0.0536,0.1013,0.1893,0.2043,0.1717,0.1201,0.2348,0.2876,0.3117,0.3703,0.357,0.2904,0.1567,0.0479,-0.1022,-0.5283,-0.7361,-0.8544,-1.0417,-1.1311,-1.1628,-1.1114,-1.1138,-1.1324,-1.1079,-0.9953,-0.8738,-0.8408,-0.783,-0.7252,-0.6657,-0.6495,-0.646,-0.6299,-0.5521,-0.4865,-0.4625,-0.562,-0.6798,-0.799,-0.8234,-0.8624,-0.9563,-0.9817,-0.9765,-0.9413,-0.9358,-0.9179,-0.8757,-0.8413,-0.8333,-0.8599,-0.8374,-0.8074,-0.7725,-0.8085,-0.6242,-0.1904,-0.0622,0.0,0.0,0.0,0.0,0.0,0.0,0.0,0.0,0.0,0.0,0.0,0.0,0.0,0.0,0.0,0.0,0.0,0.0,0.0,0.0,0.0,0.0,0.0,0.0,0.0,0.0,0.0,0.5944,0.7733,0.8439,0.8699,0.8433,0.7837,0.7132,0.6289,0.5547,0.4697,0.3694,0.3607,0.283,0.1188,0.0484,-0.041,-0.158,-0.1952,-0.1396,0.0,0.0987,0.1884,0.269,0.2823,0.2375,0.1426,0.1345,0.1858,0.2745,0.2992,0.252,0.1732,0.2847,0.3246,0.3202,0.3184,0.2601,0.1558,-0.005,-0.1599,-0.3543,-0.7647,-0.9214,-0.9691,-1.0705,-1.1426,-1.1562,-1.0333,-1.0072,-0.9976,-0.9197,-0.8309,-0.7628,-0.7676,-0.7676,-0.7515,-0.6933,-0.6445,-0.6123,-0.5959,-0.4835,-0.4002,-0.4156,-0.4897,-0.6099,-0.787,-0.794,-0.8075,-0.9072,-0.9195,-0.9146,-0.8987,-0.8761,-0.8504,-0.822,-0.7721,-0.7562,-0.7842,-0.7683,-0.7261,-0.6614,-0.7761,-0.5753,-0.0115,0.0,0.0,0.0,0.0,0.0,0.0,0.0,0.0,0.0,0.0,0.0,0.0,0.0,0.0,0.0,0.0,0.0,0.0,0.0,0.0,0.0,0.0,0.0,0.0,0.0,0.0,0.4828,0.4761,0.5519,0.7561,0.8266,0.8473,0.8218,0.7726,0.7107,0.6386,0.6163,0.5681,0.4809,0.5127,0.4607,0.3072,0.1203,-0.0033,-0.0609,-0.1644,-0.1433,0.0,0.0,0.0807,0.2201,0.269,0.2912,0.2912,0.2868,0.309,0.3578,0.3796,0.3402,0.2686,0.2492,0.2724,0.3033,0.2164,0.1178,-0.0048,-0.2459,-0.4599,-0.6706,-0.8958,-0.9977,-1.0431,-1.1064,-1.131,-1.1192,-1.0688,-0.932,-0.8003,-0.8003,-0.7597,-0.7408,-0.854,-0.8804,-0.8593,-0.8062,-0.7041,-0.6064,-0.5462,-0.4101,-0.3507,-0.5073,-0.5216,-0.5668,-0.7489,-0.8142,0.0,-0.9473,-0.9109,-0.8959,-0.9403,-0.8281,-0.7414,-0.7214,-0.6887,-0.6764,-0.6977,-0.6636,-0.5958,-0.4846,-0.4896,-0.3376,-0.0059,0.0,0.0,0.0,0.0,0.0,0.0,0.0,0.0,0.0,0.0,0.0,0.0,0.0,0.0,0.0,0.0,0.0,0.0,0.0,0.0,0.0,0.0,0.0,0.0,0.5712,0.6792,0.6159,0.6253,0.6773,0.7821,0.7827,0.7852,0.8173,0.7755,0.7394,0.719,0.7431,0.7171,0.6193,0.5875,0.5062,0.3553,0.1783,0.021,-0.117,-0.1356,-0.1161,-0.0493,0.018,0.1122,0.2201,0.269,0.2912,0.2823,0.1749,0.1882,0.2818,0.3087,0.3178,0.3122,0.284,0.245,0.2061,0.2341,0.0481,-0.2479,-0.438,-0.579,-0.7135,-0.8989,-1.0011,-1.0488,-1.0646,-1.1115,-1.1501,-1.1331,-1.0615,-0.9832,-0.9832,-0.9099,-0.8427,-0.8699,-0.8487,-0.8221,-0.8487,-0.7955,-0.7252,-0.6707,-0.624,-0.61,-0.6504,-0.6555,-0.7072,-0.8739,-0.8776,0.0,-0.9248,-0.8704,-0.8293,-0.8262,-0.7766,-0.7368,-0.7219,-0.663,-0.6353,-0.6551,-0.574,-0.5164,-0.496,-0.2663,-0.0956,-0.002,0.0,0.0,0.0,0.0,0.0,0.0,0.0,0.0,0.0,0.0,0.0,0.0,0.0,0.0,0.0,0.0,0.0,0.0,0.0,0.0,0.0,0.0,0.0,0.0,0.8291,0.9692,0.9079,0.7803,0.7189,0.781,0.7493,0.7301,0.7461,0.7395,0.73,0.7221,0.785,0.7946,0.7235,0.6884,0.594,0.4288,0.2462,0.0806,-0.0636,-0.1192,-0.1257,-0.0806,0.0232,0.1021,0.1573,0.1903,0.2016,0.0,0.0892,0.0907,0.1751,0.2016,0.237,0.0,0.0,0.0,0.0,0.0,-0.0872,-0.3567,-0.4941,-0.6107,-0.7348,-0.9322,-1.0205,-1.0677,-1.148,-1.2075,-1.2351,-1.212,-1.0991,-0.9944,-1.0406,-1.0034,-0.9584,-0.9784,-0.942,-0.9106,-0.9427,-0.9054,-0.8521,-0.8196,-0.8349,0.0,-0.8514,-0.815,-0.8201,-0.9362,-0.9194,-0.8981,-0.9113,-0.8332,-0.7708,-0.7451,-0.7038,-0.6626,-0.626,-0.5745,0.0,0.0,0.0,-0.4326,-0.2961,-0.1026,0.0,0.0,0.0,0.0,0.0,0.0,0.0,0.0,0.0,0.0,0.0,0.0,0.0,0.0,0.0,0.0,0.0,0.0,0.0,0.0,0.0,0.0,0.0,0.0,0.0,0.0,1.1613,1.2877,1.2205,0.9337,0.7418,0.7782,0.7344,0.6906,0.6639,0.7002,0.72,0.7045,0.8031,0.8509,0.8168,0.0,0.0,0.0,0.0,0.1466,0.0439,-0.1112,-0.1564,-0.0934,0.0192,0.0724,0.0728,0.0727,0.0723,0.0768,0.0221,0.0206,0.0677,0.0894,0.1257,0.1697,0.1966,0.1295,-0.0045,-0.1252,-0.2637,-0.3976,-0.4854,0.0,0.0,-0.988,-1.0616,-1.1006,-1.2736,-1.3254,-1.3135,-1.2622,-1.0805,-0.9225,-1.0308,-1.0565,-1.0685,-1.0963,-1.0673,-1.0332,-1.0282,-0.9864,-0.9445,-0.9402,-0.9915,-1.0431,-1.0744,-0.9725,-0.9068,-0.9592,-0.9318,-0.8969,-0.8861,-0.7878,-0.7082,-0.6797,0.0,0.0,-0.4782,-0.4609,-0.3931,-0.253,-0.375,-0.3174,-0.0135,0.0,0.0,0.0,0.0,0.0,0.0,0.0,0.0,0.0,0.0,0.0,0.0,0.0,0.0,0.0,0.0,0.0,0.0,0.0,0.0,0.0,0.0,0.0,0.0,0.0,0.0,1.2456,1.3029,1.2604,1.1216,1.0261,0.9414,0.8601,0.7664,0.7139,0.729,0.7858,0.8299,0.8485,0.9937,1.0479,0.9729,0.891,0.7606,0.5789,0.3093,0.1308,0.0562,-0.0907,-0.1277,-0.051,0.0,0.0,0.0911,0.0373,0.0139,0.0142,-0.0201,-0.0098,0.0315,0.0226,0.0226,0.0223,0.0179,-0.0582,-0.1791,-0.3208,-0.4399,-0.5371,-0.5938,-0.7427,-0.9347,-1.0702,-1.1427,-1.1781,-1.1722,-1.1704,0.0,-1.1608,-1.0878,-1.0308,-1.0972,-1.1175,-1.087,-0.97,-0.9368,-0.9198,-0.8864,-0.8735,-0.8519,-0.8128,-0.8727,-0.9969,-1.205,-1.0697,-0.943,-0.9859,-0.881,-0.7958,-0.7886,-0.6688,-0.5874,-0.5926,-0.499,-0.4171,-0.3653,-0.4301,-0.4683,-0.4521,-0.2304,-0.0692,-0.0019,0.0,0.0,0.0,0.0,0.0,0.0,0.0,0.0,0.0,0.0,0.0,0.0,0.0,0.0,0.0,0.0,0.0,0.0,0.0,0.0,0.0,0.0,0.6246,0.6033,0.0,0.9729,1.2475,1.295,1.2456,1.0865,1.0156,0.9455,0.856,0.7589,0.692,0.6712,0.7273,0.779,0.8125,0.9597,1.0281,0.9763,0.9058,0.778,0.587,0.3349,0.1554,0.0565,-0.0678,-0.0997,-0.0433,0.0,0.0464,0.0983,0.0511,0.0046,-0.0361,-0.0526,-0.0522,-0.0403,-0.0627,-0.0671,-0.0671,-0.1072,-0.1457,-0.1994,-0.3083,-0.4211,-0.5292,-0.6182,-0.7425,-0.8803,-0.9819,-1.0327,-1.0695,-1.1487,-1.1728,-1.1628,-1.1377,-1.0728,-1.0154,-1.0426,-1.0516,-1.0321,-0.9541,-0.848,-0.7682,-0.778,-0.8295,-0.8773,-0.8967,-0.9007,-0.9421,-1.0728,-0.9821,-0.9169,-0.9943,-0.8144,-0.6701,-0.6734,-0.5695,-0.4846,-0.4532,-0.4348,-0.4042,-0.3533,-0.2823,-0.2448,-0.2531,-0.0948,0.0,0.0,0.0,0.0,0.0,0.0,0.0,0.0,0.0,0.0,0.0,0.0,-0.0872,0.0,0.0,0.0,0.0,0.0,0.0,0.0,0.8266,0.7748,0.7312,0.7125,0.7055,0.7195,0.7802,0.9002,1.1268,1.2054,1.1885,1.0576,0.9564,0.8656,0.778,0.7181,0.6583,0.5934,0.6471,0.703,0.745,0.8839,0.9555,0.9338,0.8872,0.7714,0.5674,0.3578,0.1882,0.0569,-0.0373,-0.0723,-0.0437,0.0228,0.0686,0.1023,0.0826,0.0275,-0.0495,-0.0743,-0.097,-0.1207,-0.1432,-0.1477,-0.1432,-0.2055,-0.2091,-0.1888,-0.2705,-0.3663,-0.4813,-0.6011,-0.6886,-0.7698,-0.8884,-0.9217,-0.9412,-1.1021,-1.1513,-1.137,-1.0879,-1.01,-0.9403,-0.9174,-0.894,-0.8811,-0.9114,-0.7729,-0.6487,-0.6931,-0.7921,-0.8923,-0.9525,-0.9154,-0.8771,-0.8901,-0.847,-0.8437,-0.942,-0.7253,-0.5564,-0.5648,-0.4681,-0.3849,-0.3459,-0.3734,-0.3674,-0.3031,-0.1147,0.0,0.0,0.0,0.0,0.0,0.0,0.0,0.0,0.0,0.0,0.0,0.0,0.0,0.0,0.0,-0.1719,0.971,0.9512,0.938,0.9436,0.8293,0.7429,0.0,0.8735,0.8562,0.7512,0.7797,0.7875,0.6708,0.7866,0.9249,1.007,1.0325,1.0205,0.9713,0.883,0.7625,0.6005,0.6238,0.635,0.5864,0.6572,0.7248,0.7719,0.9054,0.9627,0.9077,0.861,0.7387,0.5311,0.3505,0.1957,0.07,0.004,-0.0289,-0.024,0.0542,0.102,0.119,0.1191,0.0911,0.0313,-0.063,-0.1393,-0.1875,-0.1966,-0.2146,-0.2415,-0.2996,-0.2962,-0.2696,-0.3612,-0.4244,-0.4784,-0.5554,-0.6219,-0.7115,-0.9399,-0.9902,-0.9591,-0.9386,-0.9355,-0.9273,-0.8856,-0.8625,-0.8324,-0.738,-0.6242,-0.5684,-0.698,-0.6971,-0.6597,-0.644,-0.7177,-0.7703,-0.728,-0.7552,-0.8029,-0.8538,-0.7776,-0.719,-0.7553,-0.6125,-0.4928,-0.4776,-0.3508,-0.2925,-0.3759,-0.2682,-0.1514,-0.0495,-0.0154,0.0,0.0,0.0,0.0,0.0,0.0,0.0,0.0,0.0,0.0,0.0,0.0,0.0,0.0,0.0,-0.1698,0.9287,0.8885,0.8681,0.9736,0.9242,0.8682,0.9383,0.9403,0.9181,0.8744,0.8699,0.8609,0.8175,0.8565,0.9017,0.0,0.9076,0.8663,0.7924,0.6939,0.5704,0.412,0.3661,0.3634,0.4076,0.5062,0.5865,0.6263,0.793,0.8757,0.8443,0.8061,0.7123,0.5551,0.3603,0.2123,0.1104,0.0521,0.0288,0.0467,0.1095,0.1553,0.1762,0.1511,0.0817,-0.0223,-0.1046,-0.1705,-0.2233,-0.2765,-0.299,-0.3075,-0.3476,-0.3612,-0.3671,-0.413,-0.4421,-0.475,-0.5415,-0.5989,-0.662,-0.7874,-0.8531,-0.8632,-0.749,-0.7001,-0.6825,-0.6656,-0.6442,-0.6269,-0.6137,-0.5802,-0.5449,-0.525,-0.5413,-0.5606,-0.5607,-0.5934,-0.6127,-0.5712,-0.5918,-0.6307,-0.6839,-0.6136,-0.5548,-0.5662,-0.5186,-0.4443,-0.3392,-0.2548,-0.1936,-0.1656,-0.1053,-0.0486,-0.0036,0.0,0.0,0.0,0.0,0.0,0.0,0.0,0.0,0.0,0.0,0.0,0.0,0.0,0.0,0.0,0.0,-0.1037,0.8925,0.8654,0.8676,0.9872,1.0179,1.0247,1.0472,1.0297,1.0014,0.9733,0.9555,0.9394,0.926,0.904,0.8763,0.843,0.7815,0.7129,0.622,0.4912,0.3517,0.2172,0.1157,0.0853,0.155,0.3069,0.4208,0.4734,0.6614,0.7721,0.7619,0.7384,0.6709,0.5444,0.3618,0.2275,0.1368,0.0911,0.0691,0.0778,0.1569,0.2001,0.2056,0.1627,0.0763,-0.0475,-0.1285,-0.1984,-0.2546,-0.3328,-0.3656,-0.3598,-0.3868,-0.4049,-0.4184,-0.4433,-0.4624,-0.486,-0.56,-0.6027,-0.6307,-0.6681,-0.7193,-0.7412,-0.6083,-0.5498,-0.5277,-0.5246,-0.5071,-0.498,-0.5468,-0.5712,-0.5593,-0.4716,-0.48,-0.5069,-0.5006,-0.5035,-0.5112,-0.5205,-0.481,-0.459,-0.4945,-0.4606,-0.4185,-0.3848,-0.4286,-0.4035,-0.2281,-0.1618,-0.0972,-0.0093,0.0,0.0,0.0,0.0,0.0,0.0,0.0,0.0,0.0,0.0,0.0,0.0,0.0,0.0,0.0,0.0,0.0,0.0,0.0,-0.051,0.8669,0.9157,0.9956,1.0458,1.1023,1.1413,1.1279,1.1468,1.1277,1.0056,1.0202,1.0236,0.9205,0.8882,0.856,0.7873,0.6618,0.5538,0.4912,0.2894,0.1139,0.0106,-0.0788,-0.1363,0.0,0.0756,0.266,0.3567,0.5517,0.6643,0.6629,0.6681,0.6069,0.4684,0.3504,0.2391,0.1312,0.1151,0.0905,0.0513,0.1931,0.2295,0.181,0.1398,0.086,0.0197,-0.1203,-0.2219,-0.2938,-0.3597,-0.3965,-0.4073,-0.4244,-0.409,-0.3882,-0.4567,-0.4923,-0.5223,-0.6226,-0.6377,-0.6191,-0.6651,-0.6598,-0.6214,-0.5529,-0.5316,-0.5246,-0.5055,-0.5038,-0.5176,-0.5505,-0.5468,-0.5442,-0.5931,-0.5901,-0.5584,-0.4862,-0.4775,-0.5089,-0.6065,-0.4577,-0.3187,-0.3262,-0.3591,-0.3403,-0.2154,-0.332,-0.36,-0.1677,-0.062,-0.0041,-0.0003,0.0,0.0,0.0,0.0,0.0,0.0,0.0,0.0,0.0,0.0,0.0,0.0,0.0,0.0,0.0,0.0,0.0,0.0,0.0,-0.0331,1.0305,1.0793,1.1352,1.2334,1.2342,1.2171,1.2415,1.2425,1.207,1.0998,1.0663,1.0315,0.9316,0.8731,0.7976,0.6705,0.5665,0.4383,0.2856,0.1243,-0.0307,-0.1703,-0.2589,0.0,0.0,0.0,0.0,0.2134,0.3744,0.4933,0.5583,0.5581,0.5287,0.4689,0.3789,0.2804,0.1757,0.1619,0.1481,0.1293,0.2192,0.2422,0.212,0.161,0.1007,0.0234,-0.1015,-0.1895,-0.2489,-0.3413,-0.3758,-0.3774,-0.4025,-0.3992,-0.3928,-0.4353,-0.4637,-0.4889,-0.5862,-0.6301,-0.6474,-0.6604,-0.6543,-0.618,-0.5261,-0.5023,-0.513,-0.5289,-0.5545,-0.5871,-0.6285,-0.6509,-0.6683,-0.6901,-0.6507,-0.5849,-0.5065,-0.4179,-0.374,-0.4445,-0.3418,-0.2536,-0.2813,-0.2491,-0.183,-0.0684,-0.0974,-0.1102,-0.0541,-0.0198,0.0,0.0,0.0,0.0,0.0,0.0,0.0,0.0,0.0,0.0,0.0,0.0,0.0,0.0,0.0,0.0,0.0,0.0,0.0,0.0,0.0,-0.0321,1.1414,1.2028,1.2716,1.382,1.3848,1.3575,1.3566,1.328,1.2702,1.1419,1.0762,1.0165,0.9124,0.8377,0.7541,0.6163,0.4998,0.3636,0.1667,0.0067,-0.1593,-0.3181,-0.3992,-0.4379,0.0,0.0,0.0,0.0669,0.2059,0.3336,0.4457,0.4575,0.4575,0.4459,0.3691,0.2867,0.2046,0.1867,0.179,0.1722,0.2009,0.2105,0.2064,0.1576,0.0957,0.0186,-0.0931,-0.1732,-0.233,-0.333,-0.3778,-0.3754,-0.3976,-0.3974,-0.3876,-0.4048,-0.4299,-0.4654,-0.5641,-0.6168,-0.6435,-0.6504,-0.6443,-0.6211,-0.5502,-0.5319,-0.5459,-0.5757,-0.591,-0.6096,-0.6484,-0.6959,-0.7368,-0.7542,-0.7401,-0.6948,-0.5924,-0.4931,-0.4166,-0.4007,-0.309,-0.2277,-0.2021,-0.1341,-0.0595,0.0091,0.0159,0.0097,0.0011,0.0,0.0,0.0,0.0,0.0,0.0,0.0,0.0,0.0,0.0,0.0,0.0,0.0,0.0,0.0,0.0,0.0,0.0,0.0,0.0,0.0,0.0,-0.0205,1.2062,1.2969,1.4109,1.4898,1.5404,1.5445,1.4524,1.3945,1.312,1.1255,1.0493,0.9763,0.8677,0.7879,0.7151,0.6185,0.47,0.3099,0.1443,-0.0597,-0.2629,0.0,0.0,0.0,0.0,0.0,0.0,-0.0732,0.0,0.1857,0.3325,0.3653,0.3834,0.3918,0.3237,0.261,0.2073,0.1859,0.1733,0.1744,0.1402,0.1408,0.1629,0.1229,0.0669,0.0,-0.097,-0.1738,-0.2391,-0.341,-0.3889,-0.3976,-0.4078,-0.3967,-0.3742,-0.3601,-0.3889,-0.4497,-0.5459,-0.5914,-0.6129,-0.6352,-0.6368,-0.6276,-0.6175,-0.6136,-0.6183,-0.6493,-0.6256,-0.6001,-0.6295,-0.695,-0.7646,-0.8053,-0.8665,-0.8825,-0.7526,-0.701,-0.6379,-0.4883,-0.3597,-0.2294,-0.0908,-0.0176,0.0218,0.0192,0.0081,0.0,0.0,0.0,0.0,0.0,0.0,0.0,0.0,0.0,0.0,0.0,0.0,0.0,0.0,0.0,0.0,0.0,0.0,0.0,0.0,0.0,0.0,0.0,0.0,0.0,1.4672,1.5227,1.551,1.6249,1.5958,1.5297,1.469,1.3695,1.2411,1.0697,0.9754,0.8931,0.7879,0.7181,0.6433,0.5447,0.4285,0.0,0.0605,-0.0868,0.0,-0.4115,-0.4651,-0.4907,-0.482,-0.4343,0.0,0.0,-0.0643,0.0547,0.1861,0.2253,0.2507,0.2727,0.2797,0.2389,0.1452,0.1131,0.1024,0.112,0.0843,0.0823,0.0995,0.0514,0.0,-0.0536,-0.1207,-0.1834,-0.2487,-0.3012,-0.3304,-0.3383,-0.3215,-0.3136,-0.3127,-0.3049,-0.3341,-0.3872,-0.4259,-0.5043,-0.5928,-0.6329,-0.6399,-0.632,-0.649,-0.6586,-0.6733,-0.7318,-0.7663,-0.7988,-0.8408,-0.904,-0.9878,-1.1122,-1.0832,-1.033,-1.0538,-1.0087,-0.8891,-0.6329,-0.367,-0.1498,-0.0428,0.0204,0.0451,0.0102,0.0022,0.0,0.0,0.0,0.0,0.0,0.0,0.0,0.0,0.0,0.0,0.0,0.0,0.0,0.0,0.0,0.0,0.0,0.0,0.0,0.0,0.0,0.0,0.0,0.0,0.0,1.5146,1.5565,1.572,1.5743,1.5414,1.48,1.3506,1.2438,1.1243,0.9784,0.8796,0.7949,0.72,0.6498,0.5708,0.4633,0.36,0.0,0.0128,-0.1162,-0.2437,0.0,-0.4335,0.0,-0.4314,-0.367,-0.2779,0.0,-0.1085,-0.0162,0.1157,0.1437,0.17,0.1971,0.2044,0.1731,0.093,0.0564,0.0309,0.016,-0.0096,-0.0195,-0.0201,-0.0359,-0.0708,-0.1154,0.0,-0.1917,-0.2438,-0.2913,-0.2991,-0.2839,-0.2815,-0.2664,-0.2465,-0.2389,-0.2714,-0.326,-0.3683,-0.4564,-0.5591,-0.6008,-0.6351,-0.6652,-0.695,-0.7215,-0.7549,-0.8176,-0.9065,-0.9848,-0.9931,-1.1422,-1.3106,-1.3964,-1.3774,-1.3481,-1.3827,-1.2467,-1.0142,-0.6676,-0.3851,-0.1741,-0.0819,-0.0122,0.0233,0.0032,0.0,0.0,0.0,0.0,0.0,0.0,0.0,0.0,0.0,0.0,0.0,0.0,0.0,0.0,0.0,0.0,0.0,0.0,0.0,0.0,0.0,0.0,0.0,0.0,0.0,0.0,1.4573,1.4864,1.5064,1.4301,1.4196,1.3716,1.1762,1.0714,0.9852,0.8739,0.7791,0.7044,0.6535,0.5929,0.5057,0.386,0.2843,0.1606,-0.0244,-0.1414,-0.2582,-0.395,-0.3872,-0.3618,-0.3625,-0.2576,-0.1534,-0.0886,-0.0821,-0.0302,0.0883,0.0971,0.1086,0.1332,0.109,0.0757,0.0366,-0.0034,-0.0465,-0.0967,-0.1225,-0.1425,-0.1634,-0.1424,-0.1542,-0.1965,0.0,0.0,-0.2554,-0.3055,-0.295,-0.2465,-0.2576,-0.2324,-0.186,-0.1746,-0.2065,-0.2673,-0.333,-0.4246,-0.5254,-0.5755,-0.6464,-0.7237,-0.7666,-0.8094,-0.8585,-0.9192,-1.0351,-1.1414,-1.1332,-1.3579,-1.5937,-1.6243,-1.6623,-1.6866,-1.6753,-1.4092,-1.0606,-0.679,-0.4401,-0.2739,-0.1818,-0.0989,-0.0404,-0.0197,-0.0143,-0.009,-0.001,0.0,0.0,0.0,0.0,0.0,0.0,0.0,0.0,0.0,0.0,0.0,0.0,0.0,0.0,0.0,0.0,0.0,0.0,0.0,0.0,0.0,0.0,0.0,1.4784,1.4412,1.3926,1.3348,1.2496,1.1525,1.064,0.9445,0.8423,0.8013,0.7264,0.6434,0.5826,0.5465,0.4775,0.3276,0.2633,0.1531,-0.0551,-0.1293,-0.205,0.0,-0.2744,-0.2355,-0.235,-0.1178,0.0,0.0,0.0,0.0537,0.0598,0.0433,0.0262,0.0098,-0.0086,-0.0432,-0.096,-0.1273,-0.1555,-0.1892,-0.2304,-0.2433,-0.235,-0.2784,-0.3127,-0.3379,-0.3596,0.0,-0.3685,-0.3585,-0.3236,-0.2731,-0.2017,-0.1691,-0.1599,-0.1258,-0.1485,-0.2046,-0.2595,-0.3748,-0.5168,-0.6577,-0.7425,-0.8083,-0.8966,-0.9536,-0.997,-1.0505,-1.1099,-1.1936,-1.36,-1.4038,-1.4538,-1.6495,-1.7224,-1.7448,-1.7362,-1.421,-1.0785,-0.8723,-0.6399,-0.439,-0.3171,-0.2349,-0.1681,-0.1153,-0.0884,-0.0566,-0.0066,0.0,0.0,0.0,0.0,0.0,0.0,0.0,0.0,0.0,0.0,0.0,0.0,0.0,0.0,0.0,0.0,0.0,0.0,0.0,0.0,0.0,0.0,0.0,1.351,1.2828,1.2,1.1362,1.0402,0.9428,0.8495,0.7608,0.695,0.678,0.6325,0.5811,0.5379,0.4942,0.4149,0.2787,0.2012,0.0963,-0.0832,-0.1228,-0.1647,-0.2266,-0.1765,-0.1244,-0.0769,0.0,0.0649,0.1054,0.0,0.1306,0.091,0.0417,-0.0115,-0.0749,-0.0958,-0.1363,-0.2009,-0.2398,-0.2778,-0.3211,-0.378,-0.4007,-0.3987,-0.4331,-0.4635,-0.4831,-0.4591,0.0,-0.4522,-0.3863,-0.3334,-0.2851,-0.1851,-0.1322,-0.1086,-0.068,-0.0882,-0.1462,-0.2338,-0.3525,-0.4965,-0.6934,-0.7986,-0.8612,-0.9403,-1.0058,-1.0613,-1.1075,-1.1732,-1.2576,-1.3798,-1.4483,-1.5128,-1.6158,-1.7037,-1.7512,-1.6974,-1.5384,-1.3271,-1.057,-0.8419,-0.6448,-0.4657,-0.367,-0.2954,-0.243,-0.1962,-0.1459,-0.0857,-0.0325,0.0,0.0,0.0,0.0,0.0,0.0,0.0,0.0,0.0,0.0,0.0,0.0,0.0,0.0,0.0,0.0,0.0,0.0,0.0,0.0,0.0,-0.0335,1.1749,1.0885,0.9898,0.9056,0.8222,0.7354,0.6371,0.5931,0.5707,0.5663,0.5428,0.5204,0.4872,0.4321,0.3501,0.2121,0.1304,0.0333,-0.1091,-0.1254,-0.1299,-0.1513,-0.1012,0.0,0.0453,0.0995,0.0,0.1748,0.0,0.0,0.1129,0.0449,-0.0431,-0.1464,-0.1725,-0.2289,-0.3104,-0.3645,-0.413,-0.4616,-0.528,-0.5596,-0.5638,-0.5765,-0.5953,-0.6152,-0.5415,0.0,0.0,-0.407,-0.3399,-0.2913,-0.1783,-0.1075,-0.0667,-0.0262,-0.0365,-0.0895,-0.2117,-0.3305,-0.4665,-0.6756,-0.8113,-0.9051,-0.9805,-1.0565,-1.1205,-1.1556,-1.2273,-1.3106,-1.3807,-1.494,-1.5977,-1.6216,-1.7115,-1.7652,-1.6786,-1.6571,-1.5564,-1.2209,-1.0283,-0.85,-0.6223,-0.5146,-0.4363,-0.3656,-0.3143,-0.2599,-0.1971,-0.088,-0.013,-0.0012,0.0,0.0,0.0,0.0,0.0,0.0,0.0,0.0,0.0,0.0,0.0,0.0,0.0,0.0,0.0,0.0,0.0,-0.0006,-0.0237,-0.0854,0.994,0.8995,0.7979,0.7036,0.5975,0.511,0.489,0.4851,0.485,0.5048,0.5005,0.474,0.4028,0.3663,0.2911,0.1271,0.0746,0.0046,-0.1381,-0.1283,-0.1154,-0.1215,0.0,0.0,0.0999,0.1679,0.2111,0.217,0.0,0.0,0.0433,0.0,-0.0798,-0.2182,-0.26,-0.3309,-0.4422,-0.5111,-0.5641,-0.592,-0.6616,-0.6842,-0.6665,-0.6857,-0.6987,-0.7048,-0.6369,0.0,0.0,-0.4275,-0.3513,-0.2957,-0.1638,-0.0992,-0.0729,-0.0275,-0.0131,-0.035,-0.1557,-0.2882,-0.4277,-0.5785,-0.7606,-0.9484,-1.0777,-1.168,-1.226,-1.2364,-1.2759,-1.3488,-1.4874,-1.5429,-1.601,-1.7521,-1.8206,-1.8321,-1.763,-1.6931,-1.5742,-1.3449,-1.1874,-1.0158,-0.7962,-0.6998,-0.6048,-0.4609,-0.4302,-0.396,-0.3228,-0.1725,-0.0536,-0.0049,0.0,0.0,0.0,0.0,0.0,0.0,0.0,0.0,0.0,0.0,0.0,0.0,0.0,0.0,0.0,0.0,0.0,-0.0024,-0.1003,-0.1507,0.8628,0.7453,0.6148,0.5378,0.4397,0.3643,0.3696,0.3636,0.3694,0.4189,0.4037,0.3788,0.3664,0.3043,0.2162,0.0964,0.0399,-0.0323,-0.1479,-0.1253,-0.0839,-0.0544,0.0171,0.0911,0.0,0.0,0.272,0.0,0.0,0.0,0.0509,0.0071,-0.0822,-0.2233,-0.3097,-0.4005,-0.5144,-0.6144,-0.6696,-0.6831,-0.7585,-0.7863,-0.7705,-0.7964,-0.8021,-0.7915,-0.6979,0.0,0.0,-0.4332,-0.3519,-0.3199,-0.1739,-0.1016,-0.071,-0.0051,0.0132,-0.0101,-0.0996,-0.2069,-0.3392,-0.5519,-0.7123,-0.8567,-1.0424,-1.1708,-1.2578,-1.2858,-1.3108,-1.3599,-1.4796,-1.5958,-1.6959,-1.7629,-1.8324,-1.8735,-1.8362,-1.7944,-1.7055,-1.4988,-1.3642,-1.2111,-0.9815,-0.853,-0.749,-0.6511,-0.6003,-0.5296,-0.4113,-0.3098,-0.1852,-0.018,0.0,0.0,0.0,0.0,0.0,0.0,0.0,0.0,0.0,0.0,0.0,0.0,0.0,0.0,0.0,0.0,-0.0187,-0.0553,-0.0977,-0.1091,0.7468,0.6227,0.4853,0.4084,0.3253,0.2572,0.2611,0.2612,0.2767,0.3276,0.3152,0.3003,0.2995,0.2299,0.1495,0.0711,0.0036,-0.0641,-0.133,-0.1192,-0.083,-0.0298,0.0,0.0791,0.0,0.2671,0.3018,0.0,0.0,0.0,0.0711,-0.0141,-0.1225,-0.253,-0.3588,-0.4643,-0.571,-0.6913,-0.7573,-0.7654,-0.8394,-0.8691,-0.8537,-0.857,-0.8533,-0.84,0.0,0.0,0.0,-0.4172,-0.3353,-0.3235,-0.1745,-0.1025,-0.0712,0.003,0.0217,0.0,-0.0662,-0.1552,-0.2802,-0.5215,-0.677,-0.8049,-1.0023,-1.1519,-1.2671,-1.3289,-1.3774,-1.4271,-1.4988,-1.6504,-1.7855,-1.7829,-1.8555,-1.9173,-1.8957,-1.8804,-1.8128,-1.6168,-1.5137,-1.3825,-1.147,-0.9997,-0.8846,-0.7929,-0.7269,-0.6307,-0.4775,-0.4101,-0.296,-0.0812,-0.0238,0.0,0.0,0.0,0.0,0.0,0.0,0.0,0.0,0.0,0.0,0.0,0.0,0.0088,0.0265,0.0265,-0.0084,-0.0748,-0.0754,-0.0806,0.64,0.5216,0.4069,0.3203,0.234,0.1721,0.171,0.2042,0.2312,0.2312,0.252,0.2507,0.1929,0.1427,0.0938,0.0404,-0.0321,0.0,-0.0791,-0.1095,-0.1159,0.0,-0.0605,0.0051,0.1394,0.2427,0.0,0.0,0.0,0.0,0.0808,-0.0719,-0.2083,-0.3278,-0.4112,-0.5131,-0.6294,-0.7477,-0.8234,-0.8509,-0.911,-0.9274,-0.9074,-0.8548,-0.8336,0.0,0.0,0.0,0.0,-0.3785,-0.2983,-0.2961,-0.1627,-0.0971,-0.0724,-0.0117,0.0102,0.0,-0.0661,-0.1555,-0.2724,-0.467,-0.6574,-0.8361,-0.9786,-1.1233,-1.2648,-1.3759,-1.4896,-1.5781,-1.58,-1.7132,-1.8479,-1.8413,-1.9098,-1.9722,-1.946,-1.9294,-1.8665,-1.6846,-1.6201,-1.5218,-1.2812,-1.1437,-1.0098,-0.8447,-0.7788,-0.6883,-0.5206,-0.4527,-0.3625,-0.2135,-0.0789,0.0,0.0,0.0,0.0,0.0,0.0,0.0,0.0,0.0,0.0,0.0,0.0,0.0295,0.0889,0.0889,0.0443,-0.0409,-0.0402,-0.0936,0.5858,0.4632,0.3337,0.2573,0.185,0.1356,0.1319,0.1496,0.1769,0.2039,0.2011,0.1915,0.1754,0.1051,0.0331,-0.0094,-0.0655,0.0,0.0,0.0,0.0,0.0,0.1185,0.2139,0.0,0.0,0.0,0.0,0.0,0.0,0.0307,-0.107,-0.2427,-0.3595,-0.4646,-0.5756,-0.6962,-0.7629,-0.8242,-0.8791,-0.8856,-0.8915,-0.887,-0.8471,0.0,0.0,0.0,0.0,0.0,-0.3494,-0.273,-0.2578,-0.1515,-0.0886,-0.0546,-0.0129,0.0151,0.0302,0.027,-0.0848,-0.2572,-0.4424,-0.5949,-0.7512,-0.9832,-1.1649,-1.2986,-1.3539,-1.4385,-1.4961,-1.4327,-1.5549,-1.6914,-1.6895,-1.8074,-1.9114,-1.8905,-1.9316,-1.9218,-1.7401,-1.6885,-1.6126,-1.4107,-1.2961,-1.1909,-1.0662,-0.9975,-0.8883,-0.6841,-0.643,-0.552,-0.3446,-0.1287,0.0,0.0,0.0,0.0,0.0,0.0,0.0,0.0,0.0,0.0,0.0,0.0,0.0095,0.0285,0.019,-0.0274,-0.109,-0.1078,-0.1768,0.523,0.4069,0.284,0.2182,0.1539,0.1024,0.0922,0.1069,0.1276,0.1546,0.1471,0.1334,0.1216,0.0573,-0.0085,-0.0472,-0.0932,-0.1301,0.0,0.0,0.0,0.0357,0.0,0.0,0.0,0.0,0.0,0.0,0.0,0.0,-0.0284,-0.1587,-0.2864,-0.4123,-0.4947,-0.5967,-0.7217,-0.765,-0.818,-0.8861,-0.8693,-0.8637,-0.8661,-0.8218,0.0,0.0,0.0,0.0,0.0,-0.3291,-0.2599,-0.2543,-0.1509,-0.0935,-0.0649,-0.0287,-0.0009,0.0209,0.0419,-0.0505,-0.2058,-0.3753,-0.5495,-0.7377,-0.9722,-1.1518,-1.2834,-1.3316,-1.3644,-1.3867,-1.3922,-1.48,-1.576,-1.6113,-1.7298,-1.8327,-1.8274,-1.8686,-1.8647,-1.7272,-1.688,-1.6338,-1.4885,-1.391,-1.3059,-1.2224,-1.1269,-1.0015,-0.8311,-0.7804,-0.657,-0.3894,-0.1952,-0.0609,-0.0049,0.0,0.0,0.0,0.0,0.0,0.0,0.0268,0.0414,0.0414,0.0414,0.0414,0.0414,0.0,-0.0381,-0.0746,-0.1575,-0.25,0.0,0.3612,0.256,0.2018,0.1334,0.0791,0.0619,0.0757,0.0,0.0906,0.092,0.0833,0.0416,0.0,-0.0386,-0.0804,-0.1262,-0.1454,0.0,-0.0897,0.0,0.0,0.1413,0.0,0.2218,0.0,0.0,0.0,0.0,0.0,-0.084,-0.2076,-0.3311,-0.4606,-0.493,-0.5717,-0.7065,-0.7497,-0.8082,-0.873,-0.8504,-0.8415,-0.8422,-0.775,0.0,0.0,0.0,0.0,0.0,-0.3175,-0.2525,-0.2733,-0.1579,-0.1075,-0.0938,-0.0546,-0.035,-0.0252,-0.0131,-0.0525,-0.1342,-0.2891,-0.5239,-0.7751,-0.9284,-1.0775,-1.2117,-1.2989,-1.2784,-1.2666,-1.422,-1.4686,-1.4957,-1.5842,-1.6682,-1.7323,-1.7538,-1.7533,-1.7286,-1.6607,-1.6371,-1.6016,-1.5146,-1.433,-1.3651,-1.323,-1.1826,-1.0498,-0.9547,-0.8693,-0.6944,-0.3714,-0.2558,-0.148,-0.0121,0.0,0.0,0.0,0.0,0.0043,0.013,0.0776,0.1118,0.1097,0.1086,0.1086,0.1086,0.0233,-0.0072,0.0112,-0.1922,-0.3064,0.3909,0.0,0.2415,0.1819,0.1341,0.0946,0.0,0.0714,0.0909,0.0888,0.0696,0.0412,-0.0051,-0.054,-0.1036,-0.1497,-0.1818,-0.1992,-0.1808,-0.07,0.0,0.1412,0.2218,0.258,0.2352,0.0,0.0,0.0,0.0,0.0572,-0.0671,-0.1718,-0.2842,-0.4102,-0.4593,-0.5542,-0.7085,-0.7072,-0.7386,-0.8033,-0.7783,-0.7723,-0.7795,-0.7172,0.0,0.0,0.0,0.0,-0.426,-0.314,-0.2537,-0.2231,-0.1637,-0.1147,-0.0752,-0.0546,-0.0687,-0.0961,-0.0928,-0.096,-0.1398,-0.3648,-0.5642,-0.7215,-0.7363,-0.8811,-1.0576,-1.1351,-1.2003,-1.2524,-1.2818,-1.3502,-1.4217,-1.4653,-1.5401,-1.6086,-1.6285,-1.6895,-1.719,-1.6412,-1.6291,-1.6013,-1.5147,-1.4879,-1.451,-1.3758,-1.2743,-1.1471,-0.9846,-0.928,-0.7754,-0.4419,-0.1848,-0.0262,-0.002,0.0,0.0,0.0,0.0,0.0439,0.1418,0.1474,0.1362,0.1108,0.1006,0.0951,0.0943,0.0271,-0.0781,-0.2212,-0.2426,-0.3146,0.3536,0.3119,0.2692,0.2188,0.1746,0.1371,0.1156,0.0919,0.0764,0.08,0.0492,0.0048,-0.052,-0.0937,-0.1396,-0.2061,-0.2196,0.0,0.0,0.0,0.0835,0.2054,0.2494,0.273,0.0,0.0,0.0,0.0,0.0,0.0171,-0.0978,-0.1786,-0.2799,-0.4038,-0.4364,-0.5233,-0.6666,-0.644,-0.6601,-0.7166,-0.6754,-0.6593,-0.6629,-0.6356,-0.6107,0.0,0.0,0.0,-0.4356,-0.3582,-0.2991,-0.2498,-0.1417,-0.0743,-0.0412,-0.0675,-0.0932,-0.1134,-0.0944,-0.1049,-0.1604,-0.3623,-0.482,-0.5531,-0.5992,-0.6909,-0.8094,-0.9544,-1.0303,-1.0882,-1.1649,-1.2262,-1.285,-1.3608,-1.4201,-1.4635,-1.481,-1.5263,-1.5553,-1.5242,-1.5182,-1.5053,-1.4775,-1.4782,-1.4648,-1.4144,-1.3044,-1.1874,-1.0761,-0.9121,-0.7079,-0.4533,-0.2814,-0.1348,-0.0063,0.0018,0.0,0.0,0.052,0.1134,0.1823,0.1545,0.1281,0.1108,0.0974,0.0816,0.0672,-0.0286,-0.184,-0.3925,-0.3796,-0.4394,0.3306,0.3219,0.3052,0.272,0.2222,0.1811,0.1744,0.1168,0.0673,0.0721,0.0313,-0.0268,-0.0973,-0.1304,-0.1767,-0.2601,0.0,0.0,-0.0542,0.0066,0.0894,0.2249,0.244,0.0,0.0,0.0,0.0,0.0,0.0,-0.0386,-0.1264,-0.2026,-0.2882,-0.3929,-0.4091,-0.4669,-0.5815,-0.5739,-0.5847,-0.6141,-0.5698,-0.5424,-0.5355,-0.5524,-0.5565,0.0,0.0,0.0,-0.4715,-0.4047,-0.3503,-0.2926,-0.1163,-0.0276,-0.006,-0.0689,-0.0952,-0.0978,-0.0737,-0.1059,-0.179,-0.3093,-0.3485,-0.3662,-0.4831,-0.5196,-0.5616,-0.7607,-0.8346,-0.8935,-1.0632,-1.1119,-1.1461,-1.2689,-1.3059,-1.3175,-1.333,-1.338,-1.3443,-1.3682,-1.3676,-1.3738,-1.4077,-1.4251,-1.4262,-1.4064,-1.2796,-1.1734,-1.1316,-0.8505,-0.5879,-0.4136,-0.4134,-0.3055,-0.0104,0.0056,0.0075,0.026,0.1231,0.1788,0.1749,0.1361,0.1153,0.1163,0.0969,0.0709,0.0405,-0.0956,-0.2603,-0.4488,-0.4995,-0.577,0.3088,0.309,0.2846,0.2792,0.2357,0.1882,0.1541,0.1138,0.087,0.0951,0.0267,-0.0578,-0.1367,-0.196,-0.2553,-0.3241,0.0,-0.204,0.0,0.0,0.0648,0.1544,0.0,0.0,0.0,0.0,0.0,0.0,0.0,-0.036,-0.0933,-0.1889,-0.2547,-0.2924,-0.3273,-0.3645,-0.4071,-0.4769,-0.5082,-0.4955,-0.4941,-0.4841,-0.4658,-0.5025,-0.5001,0.0,0.0,-0.462,-0.4103,-0.3774,-0.3261,-0.2569,-0.1315,-0.0453,0.0069,-0.0042,-0.0299,-0.0663,-0.1174,-0.1387,-0.1508,-0.2018,-0.2663,-0.3259,-0.3297,-0.3963,-0.4853,-0.5538,-0.6952,-0.8524,-0.971,-1.0541,-1.1191,-1.178,-1.1892,-1.1968,-1.2275,-1.238,-1.2425,-1.2482,-1.2639,-1.2823,-1.2938,-1.3299,-1.3306,-1.2502,-1.1767,-1.0834,-0.9499,-0.7574,-0.5454,-0.31,-0.3571,-0.2849,0.0104,0.0136,0.044,0.1457,0.1696,0.1732,0.1555,0.1431,0.1374,0.1432,0.0976,0.0613,0.0405,-0.0956,-0.1771,-0.2154,-0.4115,-0.5532,0.231,0.2633,0.2917,0.2949,0.292,0.28,0.2533,0.1887,0.1228,0.0908,0.0178,-0.0732,-0.1826,-0.2474,-0.2985,-0.348,0.0,-0.2224,-0.0985,-0.0267,0.0519,0.0,0.0,0.0,0.0,0.0,0.0,0.0,0.0,0.0,-0.1044,-0.1778,-0.2347,-0.2687,-0.2922,-0.317,-0.3425,-0.3609,-0.3759,-0.3899,-0.3777,-0.3692,-0.3651,-0.4203,-0.4418,-0.438,0.0,-0.5096,-0.4146,-0.4681,-0.3951,-0.2455,-0.2114,-0.1197,-0.0079,-0.0182,-0.0415,-0.0726,-0.1181,-0.1341,-0.1425,-0.1905,-0.226,-0.2612,-0.3158,-0.3629,-0.4127,-0.4925,-0.6182,-0.7531,-0.8616,-0.9498,-1.0279,-1.0847,-1.109,-1.1195,-1.1233,-1.1256,-1.13,-1.1385,-1.1512,-1.1713,-1.1944,-1.2314,-1.2237,-1.1385,-1.0516,-0.9405,-0.7855,-0.5599,-0.355,-0.2004,-0.1196,-0.0444,0.0335,0.0754,0.1318,0.2121,0.1977,0.1796,0.1674,0.1664,0.1544,0.1296,0.1297,0.1024,0.0456,-0.0922,-0.1609,-0.1648,-0.3317,-0.4695,0.178,0.2378,0.3075,0.3119,0.3282,0.3417,0.3379,0.2503,0.1536,0.1067,0.0254,-0.073,-0.1904,-0.2751,0.0,-0.3542,-0.3185,-0.2417,-0.1151,-0.0367,0.0446,0.0,0.0,0.0,0.0,0.0,0.0,0.0,0.0,0.0,-0.1177,-0.1758,-0.2237,-0.2605,-0.2692,-0.2853,-0.3106,-0.2693,-0.2657,-0.2988,-0.2819,-0.2744,-0.2811,-0.3569,-0.4065,-0.4391,-0.574,-0.5711,-0.4714,-0.541,-0.4555,-0.2813,-0.2662,-0.1563,-0.0114,-0.0321,-0.0521,-0.0699,-0.1015,-0.1215,-0.1421,-0.2039,-0.2198,-0.2323,-0.3389,-0.3627,-0.3799,-0.497,-0.5804,-0.6598,-0.7517,-0.838,-0.9168,-0.9767,-1.0095,-1.0243,-1.0157,-1.0145,-1.0144,-1.0239,-1.0339,-1.0521,-1.086,-1.1088,-1.0914,-1.0039,-0.9048,-0.7793,-0.6079,-0.366,-0.1795,-0.0985,0.0729,0.1519,0.0791,0.14,0.2081,0.2693,0.2297,0.1973,0.1834,0.1825,0.1603,0.1118,0.1442,0.1305,0.0639,-0.087,-0.1652,-0.1776,-0.3082,-0.4263,0.2053,0.2658,0.3264,0.3203,0.3075,0.3019,0.3259,0.2422,0.1646,0.178,0.0686,-0.0508,-0.1166,-0.2682,-0.3758,-0.3549,-0.326,-0.2698,-0.1592,0.0,0.0,0.0,0.0,0.0,0.0,0.0,0.0,0.0,0.0,0.0,-0.1273,-0.1851,-0.2256,-0.2415,-0.2488,-0.2626,-0.282,-0.2367,-0.2219,-0.2371,-0.2471,-0.2491,-0.2467,-0.3518,-0.4239,-0.4706,-0.5502,-0.5937,-0.5997,-0.5136,-0.4515,-0.3912,-0.2319,-0.0891,0.023,-0.0033,-0.0183,-0.0304,-0.0766,-0.1121,-0.1495,-0.2157,-0.2581,-0.2939,-0.3522,-0.3876,-0.4294,-0.5494,-0.5945,-0.6139,-0.6602,-0.7306,-0.7991,-0.8364,-0.8552,-0.8739,-0.9054,-0.9066,-0.9012,-0.8958,-0.9081,-0.9271,-0.9431,-0.9526,-0.9169,-0.7996,-0.7314,-0.615,-0.3919,-0.2416,-0.1152,-0.0105,0.0756,0.1378,0.167,0.182,0.2339,0.3371,0.2826,0.2288,0.1915,0.1727,0.146,0.1097,0.1139,0.1125,0.1043,-0.0737,-0.1782,-0.2203,-0.401,-0.4913,0.1848,0.2317,0.2764,0.3116,0.2983,0.2819,0.3014,0.2518,0.1874,0.1323,0.0542,-0.0509,-0.199,0.0,-0.3826,-0.3982,-0.3519,-0.2829,-0.1874,0.0,0.0,0.0,0.0,0.0,0.0,0.0,0.0,0.0,0.0,0.0,0.0,-0.1621,-0.1967,-0.2148,-0.2336,-0.2575,-0.2869,-0.2682,-0.2662,-0.2802,-0.26,-0.2597,-0.2807,-0.3581,-0.4335,-0.5049,-0.5712,-0.5737,-0.5314,-0.5095,-0.4056,-0.2436,-0.098,-0.0017,0.0508,0.02,-0.0111,-0.0509,-0.1315,-0.1858,-0.2329,-0.3033,-0.3647,-0.4208,-0.4852,-0.5261,-0.5638,-0.6383,-0.6537,-0.6589,-0.6938,-0.7647,-0.8262,-0.8146,-0.8572,-0.9046,-0.9202,-0.9213,-0.9192,-0.9286,-0.9254,-0.9274,-0.9469,-0.9429,-0.8939,-0.7562,-0.6289,-0.4738,-0.268,-0.1618,-0.0608,0.06,0.1166,0.1784,0.2607,0.2955,0.3246,0.3479,0.3154,0.2724,0.2297,0.2035,0.1651,0.11,0.1086,0.0976,0.0739,-0.0837,-0.1797,-0.2243,-0.4148,-0.499,0.1555,0.196,0.2367,0.2798,0.2815,0.2735,0.2743,0.2464,0.2052,0.1489,0.0447,-0.0791,-0.2174,0.0,0.0,0.0,-0.3459,-0.2863,0.0,0.0,0.0,0.0,0.0,0.0,0.0,0.0,0.0,0.0,0.0,0.0,0.0,-0.1569,-0.195,-0.2235,-0.2487,-0.2823,-0.3277,-0.3306,-0.3465,-0.3758,-0.3641,-0.3572,-0.3578,-0.4112,-0.4857,-0.5749,-0.5997,-0.5711,-0.5023,-0.4724,-0.3251,-0.1081,0.0018,0.0578,0.073,0.0401,0.002,-0.052,-0.1539,-0.2206,-0.277,-0.3783,-0.4518,-0.5187,-0.6279,-0.6673,-0.6879,-0.7569,-0.7648,-0.7586,-0.7727,-0.7937,-0.8034,-0.777,-0.8332,-0.8977,-0.9021,-0.9145,-0.9249,-0.9259,-0.91,-0.8997,-0.9082,-0.9114,-0.863,-0.7221,-0.5561,-0.3892,-0.2346,-0.1229,-0.0109,0.1133,0.1422,0.1896,0.2777,0.3497,0.3786,0.3527,0.3298,0.2897,0.2233,0.204,0.167,0.1107,0.111,0.0908,0.0504,-0.0575,-0.1471,-0.2243,-0.366,-0.4718,0.1192,0.1685,0.2215,0.2277,0.2549,0.2721,0.2452,0.2186,0.2108,0.2507,0.0463,-0.1394,-0.1405,-0.259,0.0,-0.3055,-0.2986,0.0,0.0,0.0,0.0,0.0,0.0,0.0,0.0,0.0,0.0,0.0,0.0,0.0,0.0,-0.1847,-0.2314,-0.2788,-0.2995,-0.3431,-0.409,-0.4176,-0.4556,-0.5212,-0.5682,-0.553,-0.4831,-0.5158,-0.589,-0.6875,-0.6324,-0.5902,-0.5459,-0.3913,-0.2084,-0.0221,0.0509,0.0851,0.0871,0.0606,0.0246,-0.0248,-0.1327,-0.2015,-0.2672,-0.4292,-0.5093,-0.5794,-0.7662,-0.7986,-0.7976,-0.9106,-0.9315,-0.9142,-0.8889,-0.7927,-0.7015,-0.7108,-0.7698,-0.8223,-0.8223,-0.8677,-0.8995,-0.8583,-0.8332,-0.8185,-0.8047,-0.829,-0.8063,-0.6822,-0.5085,-0.3649,-0.2979,-0.125,0.0348,0.15,0.1502,0.1615,0.2082,0.3218,0.3793,0.354,0.3332,0.2742,0.1673,0.1609,0.1442,0.1111,0.111,0.0908,0.0504,0.0165,-0.0763,-0.2201,-0.2695,-0.4093,0.1129,0.1559,0.193,0.2005,0.2304,0.243,0.1834,0.1634,0.1577,0.1547,0.0501,-0.0759,-0.19,-0.215,0.0,-0.2599,0.0,0.0,0.0,0.0,0.0,0.0,0.0,0.0,0.0,0.0,0.0,0.0,0.0,0.0,0.0,-0.165,-0.21,-0.3051,-0.3234,-0.3766,-0.473,-0.5308,-0.5724,-0.5981,-0.6596,-0.6594,-0.6064,-0.6316,-0.6577,-0.6782,-0.6019,-0.5139,-0.4097,-0.2043,-0.0608,0.0309,0.0758,0.1156,0.1402,0.1005,0.0487,-0.022,-0.1588,-0.2781,-0.397,-0.5462,-0.6905,-0.8223,-0.9018,-0.946,-0.9675,-0.9692,-0.9436,-0.9156,-0.8974,-0.8588,-0.8222,-0.8268,-0.8768,-0.9286,-0.9443,-0.9589,-0.9692,-0.9766,-0.9474,-0.9306,-0.9385,-0.885,-0.8498,-0.8727,-0.6251,-0.3609,-0.1616,-0.0133,0.1298,0.2777,0.3189,0.3419,0.3567,0.3766,0.4145,0.4731,0.45,0.3858,0.2775,0.2006,0.1442,0.1111,0.0808,0.0605,0.0504,0.0165,-0.0763,-0.2207,-0.3016,-0.4403,0.1003,0.1356,0.1698,0.173,0.2086,0.233,0.199,0.1357,0.0812,0.069,0.031,-0.0279,-0.1197,-0.1564,0.0,0.0,0.0,0.0,0.0,0.0,0.0,0.0,0.0,0.0,0.0,0.0,0.0,0.0,0.0,0.0,0.0,-0.219,-0.2705,-0.3571,-0.3912,-0.4557,-0.5541,-0.6247,-0.674,-0.7019,-0.766,-0.7881,-0.7696,-0.7323,-0.7125,-0.7011,-0.5159,-0.3572,-0.2187,-0.0591,0.0424,0.0984,0.1118,0.1424,0.1752,0.1272,0.0682,-0.0051,-0.1499,-0.2776,-0.4054,-0.5804,-0.7361,-0.8799,-0.9741,-1.0135,-1.0238,-1.0018,-0.9626,-0.9231,-0.9036,-0.9089,-0.9053,-0.87,-0.9283,-0.9883,-0.9628,-0.9953,-1.0303,-1.0377,-1.0112,-0.9847,-0.9758,-0.9666,-0.9456,-0.92,-0.681,-0.3953,-0.1013,0.0936,0.2385,0.3287,0.3877,0.4309,0.4544,0.4293,0.4468,0.5266,0.4998,0.4447,0.3663,0.2606,0.1945,0.1744,0.0987,0.0572,0.0572,-0.0384,-0.1346,-0.2209,-0.3151,-0.4522,0.0884,0.1134,0.1443,0.1452,0.1828,0.2227,0.2417,0.1184,0.0,0.0,0.0,0.0043,0.0184,-0.085,-0.1576,0.0,0.0,0.0,0.0,0.0,0.0,0.0,0.0,0.0,0.0,0.0,0.0,0.0,0.0,0.0,0.0,-0.3351,-0.3939,-0.45,-0.5001,-0.5679,-0.6566,-0.7034,-0.7548,0.0,-0.8723,-0.9135,-0.9339,-0.8197,-0.7551,-0.7155,-0.3856,-0.1545,-0.0094,0.0444,0.1097,0.1726,0.154,0.1712,0.197,0.1466,0.092,0.0256,-0.1124,-0.2233,-0.3364,-0.5574,-0.6956,-0.8117,-0.9865,-1.0222,-0.9968,-1.0023,-0.9651,-0.9204,-0.9015,-0.9274,-0.9395,-0.8602,-0.94,-1.0058,-0.9256,-0.9977,-1.0656,-1.047,-1.0278,-1.001,-0.9586,-1.0514,-1.0666,-0.8714,-0.6628,-0.4098,-0.0714,0.1934,0.3421,0.3315,0.3911,0.4544,0.5088,0.4745,0.4711,0.5194,0.4973,0.4646,0.4312,0.3368,0.2812,0.2712,0.1394,0.0719,0.0674,-0.1256,-0.2201,-0.2209,-0.3255,-0.4632,0.1129,0.1035,0.098,0.1082,0.1193,0.1158,0.0691,0.0276,0.0,0.0,0.0,0.0056,0.0244,-0.0057,0.0,0.0,0.0,0.0,0.0,0.0,0.0,0.0,0.0,0.0,0.0,0.0,0.0,0.0,0.0,0.0,-0.4364,-0.4915,-0.573,-0.6846,-0.6582,-0.6911,-0.7882,-0.7901,-0.8005,0.0,-0.8728,-0.9089,-0.9245,-0.9062,-0.7627,-0.5087,-0.2263,-0.048,0.0466,0.1008,0.1534,0.2019,0.2029,0.214,0.2284,0.1943,0.1456,0.0768,-0.0554,-0.1951,-0.3475,-0.5498,-0.7116,-0.8407,-0.9342,-0.9658,-0.9592,-0.9037,-0.8547,-0.824,-0.8397,-0.8318,-0.8373,-0.9006,-0.9722,-1.0239,-0.9933,-1.0092,-1.0201,-0.9844,-1.0124,-1.039,-1.029,-1.0814,-1.0666,-0.8714,-0.4557,-0.0869,0.1267,0.2539,0.3457,0.3939,0.4715,0.5272,0.5406,0.4853,0.4541,0.4659,0.4763,0.4646,0.4312,0.4086,0.3565,0.2716,0.1394,0.0719,0.0674,-0.1256,-0.2201,-0.2254,-0.4085,-0.5407,0.1094,0.1101,0.0936,0.072,0.0855,0.0861,0.0162,0.0,0.0,0.0,0.0,0.0032,0.0137,0.0149,0.0,0.0,0.0,0.0,0.0,0.0,0.0,0.0,0.0,0.0,0.0,0.0,0.0,0.0,0.0,-0.5772,-0.6112,-0.7151,-0.8074,-0.8863,-0.8618,-0.8836,-0.9639,-0.8926,-0.8599,-0.8624,-0.8682,-0.8433,-0.7908,-0.7803,-0.6362,-0.3782,-0.1338,0.0331,0.135,0.1687,0.2046,0.2396,0.239,0.2537,0.2693,0.2395,0.1918,0.1236,0.0216,-0.127,-0.3008,-0.4741,-0.6291,-0.7659,-0.8423,-0.8639,-0.846,-0.7973,-0.7527,-0.7208,-0.7208,-0.7433,-0.7844,-0.852,-0.9451,-1.0151,-1.0024,-1.0307,-1.0399,-0.9969,-0.9978,-1.0146,-1.047,-1.1175,-1.1051,-0.9237,-0.4801,-0.0613,0.2254,0.3408,0.4512,0.5969,0.6521,0.6606,0.6159,0.5655,0.5373,0.5357,0.5458,0.5365,0.499,0.4969,0.4286,0.284,0.2096,0.1302,0.036,-0.1502,-0.2861,-0.3711,-0.4805,-0.5626,0.0812,0.1035,0.0956,0.045,0.0577,0.065,-0.0036,-0.0134,-0.0081,-0.007,-0.0031,-0.0004,-0.0015,0.0,0.0,0.0,0.0,0.0,0.0,0.0,0.0,0.0,0.0,0.0,0.0,0.0,0.0,0.0,0.0,-0.7984,-0.8301,-0.9777,-1.0792,-1.1242,-1.1085,-1.1231,-1.1753,-1.0258,-0.9451,-0.9359,-0.8586,-0.754,-0.628,-0.559,-0.4354,-0.2645,-0.0428,0.1174,0.2229,0.2314,0.2475,0.2662,0.2707,0.2872,0.3066,0.2886,0.242,0.1751,0.0971,-0.0444,-0.2173,-0.3673,-0.5035,-0.6283,-0.718,-0.7307,-0.7012,-0.6706,-0.6303,-0.5955,-0.584,-0.6489,-0.7283,-0.7856,-0.8939,-0.9858,-0.991,-1.0432,-1.0792,-1.0224,-1.0262,-1.0592,-1.1084,-1.1703,-1.151,-0.9873,-0.5758,-0.1505,0.2435,0.4021,0.5602,0.7734,0.8101,0.7808,0.6844,0.6553,0.6401,0.6388,0.6387,0.6152,0.5642,0.5501,0.4666,0.2957,0.2912,0.1927,-0.0,-0.1834,-0.3577,-0.5297,-0.5411,-0.574,0.0132,0.0373,0.0556,0.0424,0.0044,-0.04,-0.0855,-0.0682,-0.0416,0.0,-0.0161,-0.0018,0.0,0.0,0.0,0.0,0.0,0.0,0.0,0.0,0.0,0.0,0.0,0.0,0.0,0.0,0.0,0.0,-0.8676,-0.9866,-1.1497,-1.2788,-1.3967,-1.5122,-1.4181,-1.3944,-1.4465,-1.2186,-1.082,-1.0466,-0.8419,-0.6791,-0.548,-0.3339,-0.187,-0.0914,0.1301,0.2436,0.2696,0.2607,0.2548,0.2567,0.3024,0.3123,0.3058,0.3481,0.319,0.2413,0.138,0.026,-0.1008,-0.2793,-0.3844,-0.4614,-0.5512,-0.562,-0.527,-0.4876,-0.4483,-0.4346,-0.4902,-0.5199,-0.5793,-0.7688,-0.8431,-0.8931,-0.97,-1.0573,-1.0866,-0.9882,-1.1919,-1.3884,-1.3952,-1.2904,-1.151,-0.9873,-0.5758,-0.176,0.141,0.3551,0.5372,0.6833,0.7725,0.7761,0.663,0.6771,0.6863,0.6743,0.6664,0.6257,0.5394,0.4801,0.3968,0.2912,0.2912,0.1927,-0.0,-0.1834,-0.3577,-0.5301,-0.5845,-0.6123,0.0,0.0107,0.0213,0.0183,-0.036,-0.0979,-0.1302,-0.1306,-0.1336,-0.1715,-0.1681,-0.1418,0.0,0.0,0.0,0.0,0.0,0.0,0.0,0.0,0.0,0.0,0.0,0.0,0.0,0.0,0.0,0.0,-1.1094,-1.2312,-1.3709,-1.5067,-1.6258,-1.7265,-1.6658,-1.6228,-1.6024,-1.412,-1.2081,-0.9937,-0.731,-0.5223,-0.3584,-0.1282,-0.0304,-0.0301,0.1805,0.2807,0.2978,0.3105,0.3051,0.2958,0.3529,0.3649,0.3568,0.4115,0.3845,0.3096,0.2382,0.1218,-0.0128,-0.1688,-0.2782,-0.3669,-0.4539,-0.4683,-0.4477,-0.3864,-0.3593,-0.3627,-0.4248,-0.4751,-0.5503,-0.6746,-0.7795,-0.8794,-0.9814,-1.0819,-1.16,-1.1781,-1.3241,-1.4515,-1.4515,-1.3336,-1.1638,-0.9475,-0.5577,-0.1738,0.1528,0.362,0.5157,0.6129,0.6945,0.726,0.6867,0.6962,0.7115,0.73,0.7005,0.6487,0.5744,0.4666,0.3704,0.2912,0.2153,0.0715,-0.1534,-0.2286,-0.3744,-0.5791,-0.644,-0.6712,0.0,0.0,0.0,0.0,-0.0514,-0.1123,-0.1498,0.0,-0.1953,0.0,-0.2691,0.0,0.0,0.0,0.0,0.0,0.0,0.0,0.0,0.0,0.0,0.0,0.0,0.0,0.0,0.0,0.0,0.0,-1.3015,-1.434,-1.5697,-1.6981,-1.8147,-1.9194,-1.8937,-1.8475,-1.7886,-1.5775,-1.2981,-0.9513,-0.6681,-0.4185,-0.2005,-0.001,0.0862,0.0871,0.2319,0.3115,0.3362,0.3496,0.3516,0.3496,0.4017,0.4114,0.4075,0.4648,0.4455,0.3856,0.3385,0.2335,0.0943,-0.0341,-0.1474,-0.2421,-0.3287,-0.3522,-0.3444,-0.2965,-0.2883,-0.3057,-0.3524,-0.4252,-0.5096,-0.5978,-0.7315,-0.8732,-1.0061,-1.162,-1.2851,-1.3174,-1.383,-1.4327,-1.4446,-1.3415,-1.1727,-0.9193,-0.5923,-0.2335,0.1485,0.3414,0.4648,0.5281,0.6018,0.6582,0.6889,0.6985,0.713,0.7391,0.7048,0.652,0.5916,0.4709,0.3792,0.3176,0.176,-0.0216,-0.2691,-0.3135,-0.4353,-0.6232,-0.6815,-0.7085,0.0,0.0,0.0,0.0,-0.0269,-0.0705,-0.136,0.0,-0.1793,-0.1764,-0.2267,0.0,0.0,0.0,0.0,0.0,0.0,0.0,0.0,0.0,0.0,0.0,0.0,0.0,0.0,0.0,0.0,0.0,-1.3768,-1.5401,-1.7823,-1.8564,-1.9731,-2.146,-2.1094,-2.0864,-2.0868,-1.6943,-1.3292,-0.9926,-0.7231,-0.4362,-0.14,-0.0009,0.167,0.3492,0.3406,0.3624,0.4015,0.3584,0.3704,0.4166,0.4391,0.4399,0.4365,0.5104,0.5094,0.4671,0.4261,0.3486,0.2471,0.1267,0.0316,-0.0509,-0.1508,-0.1631,-0.1486,-0.1664,-0.1965,-0.2335,-0.2646,-0.3241,-0.4209,-0.5906,-0.7053,-0.8304,-1.0484,-1.3087,-1.4579,-1.2947,-1.3155,-1.3761,-1.4387,-1.3415,-1.1727,-0.9193,-0.7208,-0.4237,0.082,0.2514,0.3526,0.4136,0.5015,0.5773,0.6307,0.6634,0.676,0.6564,0.6598,0.6309,0.5567,0.4923,0.4355,0.3836,0.2209,0.0049,-0.2691,-0.4353,-0.5517,-0.6232,-0.6815,-0.7085,0.0451,0.0,0.0,0.0,-0.022,-0.0533,-0.0907,-0.1309,-0.1713,-0.2075,-0.2557,0.0,0.0,0.0,0.0,0.0,0.0,0.0,0.0,0.0,0.0,0.0,0.0,0.0,0.0,0.0,0.0,0.0,0.0,-1.6725,-1.882,-1.9431,-2.0531,-2.2296,-2.219,-2.154,-2.0416,-1.6686,-1.3649,-1.1302,-0.7759,-0.4464,-0.1455,0.0843,0.2662,0.402,0.4172,0.4287,0.4348,0.4216,0.4383,0.4733,0.4985,0.5031,0.5029,0.5681,0.5674,0.5298,0.5092,0.4623,0.3862,0.2581,0.1634,0.0816,-0.0062,-0.0194,-0.0133,-0.0274,-0.0686,-0.1171,-0.1857,-0.2665,-0.3975,-0.6193,-0.7825,-0.9222,-1.0413,-1.215,-1.3676,-1.4174,-1.4639,-1.4872,-1.4569,-1.3415,-1.0965,-0.6202,-0.4956,-0.3398,-0.0366,0.1229,0.2382,0.3256,0.3923,0.4593,0.5145,0.546,0.5664,0.5719,0.5647,0.5359,0.4803,0.4408,0.4108,0.3924,0.2871,0.071,-0.2691,-0.4849,-0.6173,-0.682,-0.7359,-0.7842,0.1731,0.0654,-0.0038,-0.0195,-0.0202,-0.0268,-0.0681,-0.1093,-0.1538,-0.2026,-0.2573,0.0,0.0,0.0,0.0,0.0,0.0,0.0,0.0,0.0,0.0,0.0,0.0,0.0,0.0,0.0,0.0,0.0,0.0,0.0,-1.9235,-1.9668,-2.0556,-2.2073,-2.2457,-2.1755,-1.9929,-1.6982,-1.445,-1.2294,-0.8328,-0.4783,-0.1614,0.1053,0.304,0.4379,0.4597,0.4768,0.4859,0.4696,0.4911,0.5348,0.5486,0.5557,0.5664,0.6129,0.6251,0.6143,0.6021,0.5711,0.5178,0.3936,0.3067,0.2318,0.1414,0.1073,0.0901,0.0777,0.0427,-0.0072,-0.1186,-0.2558,-0.4098,-0.616,-0.7878,-0.9395,-1.0765,-1.2134,-1.367,-1.5738,-1.5929,-1.5687,-1.5378,-1.3808,-1.0838,-0.5545,-0.4076,-0.3123,-0.1869,-0.0457,0.0835,0.1891,0.2333,0.2842,0.3528,0.3837,0.4139,0.449,0.4276,0.3945,0.3484,0.3202,0.3123,0.3211,0.2369,0.0312,-0.3026,-0.4574,-0.5946,-0.7139,-0.7628,-0.8002,0.0,0.0,0.0,-0.0547,0.0,0.0,-0.0675,0.0,-0.1241,-0.1514,0.0,0.0,0.0,0.0,0.0,0.0,0.0,0.0,0.0,0.0,0.0,0.0,0.0,0.0,0.0,0.0,0.0,0.0,-1.6938,-1.7967,-1.9159,-1.9382,-1.996,-2.0989,-2.1956,-2.158,-1.9729,-1.7968,-1.5659,-1.2823,-0.9011,-0.5339,-0.1853,0.0492,0.2727,0.4746,0.4751,0.5078,0.559,0.4964,0.5228,0.6009,0.5878,0.5983,0.6221,0.6451,0.6878,0.7265,0.7025,0.6773,0.6395,0.5379,0.4703,0.4134,0.2998,0.2234,0.1675,0.1386,0.1314,0.0887,-0.0853,-0.2821,-0.4693,-0.5854,-0.708,-0.8675,-1.1545,-1.3105,-1.4697,-1.7373,-1.683,-1.6149,-1.6839,-1.4595,-1.1428,-0.7807,-0.5238,-0.3736,-0.3804,-0.2485,-0.1169,-0.0045,0.0169,0.0568,0.1463,0.1766,0.2154,0.2752,0.2552,0.2125,0.1558,0.1246,0.1292,0.1654,0.0579,-0.1248,-0.3694,-0.3638,-0.4846,-0.7139,-0.7681,-0.7628,0.3876,0.0,0.0,0.0,0.0,0.0,0.0,0.0,0.0,-0.0716,0.0,0.0,0.0,0.0,0.0,0.0,0.0,0.0,0.0,0.0,0.0,0.0,0.0,0.0,0.0,0.0,0.0,0.0,-1.7573,-1.8641,-1.9657,-2.0569,-2.1207,-2.1569,-2.1238,-2.0794,-2.0276,-1.7961,-1.6086,-1.4642,-1.0994,-0.6987,-0.2686,-0.0333,0.2524,0.5645,0.5796,0.6072,0.6332,0.5487,0.5581,0.6284,0.6359,0.6344,0.6371,0.7146,0.7544,0.7657,0.758,0.7636,0.7524,0.634,0.5559,0.4982,0.4036,0.3011,0.2167,0.2082,0.1738,0.0927,-0.0861,-0.2273,-0.36,-0.4613,-0.6696,-0.8542,-0.8765,-1.1742,-1.4633,-1.5409,-1.7335,-1.8798,-1.8529,-1.5996,-1.3322,-1.1294,-0.8232,-0.6108,-0.6039,-0.5911,-0.4943,-0.2699,-0.2264,-0.1663,-0.045,-0.027,0.0,0.0635,0.0502,0.014,-0.0386,-0.0674,-0.105,-0.1503,-0.2215,-0.3743,-0.6154,-0.4846,-0.5226,-0.7139,-0.8109,-0.8055,0.5009,0.395,0.2649,0.1264,0.0,0.0,0.081,0.0306,0.0,0.0,0.0,0.0,0.0,0.0,0.0,0.0,0.0,0.0,0.0,0.0,0.0,0.0,0.0,0.0,0.0,-1.605,-1.6642,-1.7075,-1.7808,-1.8548,-1.9243,-2.0667,-2.1353,-2.1026,-2.0921,-2.0521,-1.9793,-1.8046,-1.6508,-1.5193,-1.0439,-0.6548,-0.3372,0.0737,0.3671,0.5537,0.6179,0.6445,0.6365,0.5936,0.6058,0.6537,0.6645,0.6738,0.6929,0.7559,0.8114,0.849,0.8268,0.831,0.8239,0.7099,0.6278,0.5616,0.4706,0.3641,0.2683,0.252,0.1066,-0.0535,-0.1172,-0.2252,-0.3312,-0.3982,-0.5699,-0.7914,-1.0799,-1.4086,-1.6636,-1.7229,-1.9079,-2.07,-2.1101,-1.7877,-1.5001,-1.4013,-1.1971,-1.007,-0.8683,-0.885,-0.8174,-0.5678,-0.4956,-0.4255,-0.3209,-0.2678,-0.2349,-0.2307,-0.1874,-0.1847,-0.2339,-0.2537,-0.2983,-0.3772,-0.4531,-0.5747,-0.7413,-0.6426,-0.6426,-0.7461,-0.7889,-0.7729,0.6613,0.5333,0.3915,0.2656,0.2453,0.0,0.1016,0.0592,0.0279,0.0,0.0,0.0,0.0,0.0,0.0,0.0,0.0,0.0,0.0,0.0,0.0,0.0,0.0,0.0,-1.7087,-1.7219,-1.7345,-1.7727,-1.7796,-1.7979,-1.8289,-1.999,-2.0584,-1.9821,-2.0762,-2.0523,-1.8977,-1.8189,-1.6909,-1.5089,-0.8757,-0.5141,-0.3817,0.2512,0.526,0.5074,0.6195,0.6493,0.6195,0.6415,0.6574,0.6701,0.6816,0.714,0.7579,0.7807,0.8561,0.9432,0.8989,0.8884,0.8737,0.7761,0.692,0.6165,0.5138,0.4072,0.2976,0.2431,-0.0151,-0.2498,-0.1836,-0.2437,-0.3404,-0.4199,-0.5157,-0.8023,-1.5528,-1.8327,-1.9726,-2.1146,-2.1411,-2.183,-2.3178,-1.9632,-1.6425,-1.6012,-1.5773,-1.4601,-1.1632,-1.1614,-1.0995,-0.8725,-0.7813,-0.7007,-0.6201,-0.5104,-0.4672,-0.5147,-0.4186,-0.3786,-0.42,-0.4203,-0.4603,-0.5383,-0.6476,-0.7493,-0.8396,-0.8117,-0.8008,-0.8008,-0.73,-0.7031,0.6879,0.6657,0.6278,0.385,0.0,0.0,0.2126,0.0845,0.0079,0.0,0.0,0.0,0.0,0.0,0.0,0.0,0.0,0.0,0.0,0.0,0.0,0.0,0.0,0.0,-1.7691,-1.8061,-1.8164,-1.8038,-1.7753,-1.7622,-1.7754,-1.8776,-1.9306,-1.9178,-2.0059,-2.0354,-2.0006,-1.8491,-1.7243,-1.6204,-1.0094,-0.5899,-0.3381,0.1315,0.4506,0.6339,0.6543,0.6869,0.7286,0.7175,0.6921,0.6653,0.7042,0.7258,0.7443,0.8171,0.8816,0.9328,0.9336,0.9513,0.9505,0.8477,0.7668,0.6903,0.5638,0.4375,0.2978,0.102,-0.0455,-0.188,-0.3358,-0.2721,-0.2719,-0.6754,-0.9873,-1.3107,-1.7658,-1.9781,-2.1146,-2.2457,-2.2702,-2.1968,-1.9678,-1.8458,-1.7512,-1.6768,-1.7024,-1.6475,-1.4352,-1.4493,-1.3816,-1.1251,-1.0483,-0.9259,-0.7141,-0.6369,-0.5677,-0.5023,-0.4924,-0.5092,-0.5436,-0.5668,-0.6007,-0.6572,-0.8019,-0.9698,-1.1661,-0.9646,-0.8646,-0.8593,-0.709,-0.6657,0.7555,0.7448,0.728,0.5488,0.0,0.0,0.0,0.0,0.0012,0.004,0.0,0.0,0.0,0.0,0.0,0.0,0.0,0.0,0.0,0.0,0.0,0.0,0.0,0.0,-1.744,-1.7631,-1.7532,-1.7216,-1.7022,-1.7092,-1.7527,-1.8374,-1.9042,-1.9472,-1.9898,-1.9715,-1.8902,-1.7933,-1.6736,-1.5212,-0.8274,-0.4504,-0.3444,0.2694,0.574,0.6172,0.6529,0.6853,0.7119,0.7355,0.7181,0.6799,0.7374,0.7739,0.7982,0.8702,0.9305,0.9716,0.9583,0.9719,0.9787,0.87,0.7988,0.7331,0.595,0.4058,0.2062,0.0455,-0.0948,-0.2672,-0.5678,-0.464,-0.3776,-0.7646,-1.1358,-1.4705,-1.6941,-1.787,-1.8775,-2.0332,-1.989,-1.9032,-1.8256,-1.8247,-1.8406,-1.8596,-1.8201,-1.739,-1.6036,-1.6043,-1.5331,-1.3002,-1.1993,-1.0662,-0.855,-0.7448,-0.642,-0.5431,-0.521,-0.5156,-0.5309,-0.5679,-0.6594,-0.8075,-0.8838,-1.0191,-1.2279,-1.1218,-1.005,-0.8771,-0.8549,-0.8027,0.0,0.0,0.0,0.0,0.0,0.4462,0.0,0.0,0.0,0.0,0.0,0.0,0.0,0.0,0.0,0.0,0.0,0.0,0.0,0.0,0.0,0.0,0.0,0.0,0.0,-1.682,-1.6555,-1.6327,-1.6156,-1.6326,-1.6898,-1.7858,-1.861,-1.9118,-1.9291,-1.8698,-1.7271,-1.6704,-1.5183,-1.2699,-0.5351,-0.2069,-0.2239,0.4898,0.7308,0.5928,0.6622,0.6879,0.6876,0.7424,0.747,0.7207,0.7667,0.8067,0.8481,0.8941,0.9542,1.005,0.9765,0.9799,0.9885,0.8827,0.8042,0.713,0.5695,0.3417,0.1111,0.0292,-0.1261,-0.3641,-0.7654,-0.6944,-0.5911,-0.8915,-1.222,-1.4784,-1.5655,-1.5303,-1.5148,-1.6249,-1.5881,-1.6029,-1.8058,-1.8533,-1.8936,-1.9925,-1.9054,-1.7988,-1.7067,-1.6944,-1.6137,-1.4111,-1.2977,-1.1551,-0.9629,-0.8069,-0.6755,-0.5841,-0.5144,-0.4793,-0.4815,-0.5545,-0.7147,-0.9625,-0.971,-1.0694,-1.2564,-1.2821,-1.1854,-0.9705,-1.0597,-0.9964,0.0,0.0,0.0,0.0,0.7927,0.0,0.0,0.0,0.0,0.0,0.0,0.0,0.0,0.0,0.0,0.0,0.0,0.0,0.0,0.0,0.0,0.0,0.0,0.0,0.0,-1.634,-1.6215,-1.6286,-1.5641,-1.5121,-1.4848,-1.6177,-1.6648,-1.6025,-1.6972,-1.7161,-1.6435,-1.4523,-1.1826,-0.8353,-0.2875,0.0765,0.2793,0.6552,0.7784,0.6943,0.7209,0.7459,0.7657,0.7739,0.7932,0.8109,0.7688,0.7743,0.8099,0.8474,0.9063,0.9753,0.9729,0.9873,0.9924,0.9195,0.7656,0.587,0.4332,0.2676,0.1166,0.0291,-0.1261,-0.3641,-0.7654,-0.8367,-0.9036,-1.2972,-1.4229,-1.4784,-1.5655,-1.4279,-1.2413,-1.0766,-1.3141,-1.629,-1.9052,-1.9009,-1.8656,-1.8828,-1.8963,-1.8621,-1.7579,-1.7412,-1.6579,-1.4457,-1.3537,-1.1942,-0.919,-0.7614,-0.6468,-0.5686,-0.4823,-0.4516,-0.4863,-0.6425,-0.8506,-1.1125,-1.1514,-1.2777,-1.4974,-1.451,-1.3802,-1.2957,-1.2533,-1.1615,0.0,0.0,0.0,0.0,0.0,0.0,0.6866,0.0,0.1679,0.0,0.0,0.0,0.0,0.0,0.0,0.0,0.0,0.0,0.0,0.0,0.0,0.0,0.0,0.0,0.0,0.0,0.0,0.0,-1.516,-1.5095,-1.5618,-1.5433,-1.5472,-1.583,-1.5136,-1.442,-1.3698,-1.1187,-0.8573,-0.5896,-0.0764,0.2328,0.3604,0.6591,0.7793,0.7493,0.7315,0.7452,0.7821,0.8065,0.7875,0.7438,0.765,0.7977,0.8376,0.8558,0.8921,0.9417,0.9702,0.968,0.9494,0.8822,0.7319,0.5409,0.3759,0.2314,0.1105,0.0282,-0.1399,-0.3788,-0.771,-1.0047,-1.197,-1.4063,-1.3393,-1.2365,-1.2698,-1.271,-1.1996,-0.9926,-1.0836,-1.2948,-1.6098,-1.7141,-1.7595,-1.7654,-1.7857,-1.7779,-1.72,-1.6989,-1.6237,-1.4433,-1.3781,-1.2334,-0.9666,-0.841,-0.7039,-0.5375,-0.4494,-0.452,-0.5631,-0.7198,-0.9202,-1.1498,-1.3399,-1.4971,-1.6178,-1.7205,-1.7843,-1.7895,-1.4268,-1.249,0.8869,0.0,0.0,0.0,0.0,0.0,0.0,0.0,0.0,0.0,0.0,0.0,0.0,0.0,0.0,0.0,0.0,0.0,0.0,0.0,0.0,0.0,0.0,0.0,0.0,0.0,0.0,0.0,0.0,-1.4433,-1.497,-1.3974,-1.3664,-1.4256,-1.2561,-1.1173,-1.0117,-0.7533,-0.4982,-0.2469,0.1413,0.3834,0.4962,0.7055,0.7936,0.7782,0.7611,0.7708,0.7988,0.8208,0.7887,0.7299,0.7528,0.7987,0.8433,0.8527,0.8862,0.9247,0.9535,0.9504,0.9155,0.8392,0.7116,0.5613,0.3676,0.2328,0.1194,0.021,-0.1485,-0.3894,-0.7979,-1.0732,-1.2663,-1.3101,-1.2042,-1.0751,-1.0371,-1.0335,-1.0127,-0.9279,-0.9191,-1.0084,-1.2522,-1.487,-1.6399,-1.6592,-1.6878,-1.696,-1.6673,-1.6528,-1.5991,-1.4764,-1.4136,-1.2938,-1.0677,-0.9416,-0.7817,-0.5697,-0.5072,-0.5441,-0.7001,-0.8294,-1.0044,-1.2352,-1.4763,-1.6454,-1.745,-1.9375,-2.0825,-2.1717,-1.6204,-1.4153,0.0,0.0,0.0,0.9469,0.0,0.0,0.0,0.0,0.1402,0.0,0.0,0.0,0.0,0.0,0.0,0.0,0.0,0.0,0.0,0.0,0.0,0.0,0.0,0.0,0.0,0.0,0.0,0.0,0.0,0.0,-1.1238,-1.1127,-1.0646,-0.9663,-0.8727,-0.7467,-0.583,-0.3788,-0.0808,0.3053,0.3803,0.5653,0.8441,0.866,0.8402,0.7827,0.8395,0.8548,0.8354,0.8131,0.818,0.8334,0.7395,0.7372,0.7977,0.8189,0.8635,0.9131,0.9136,0.9184,0.915,0.8033,0.733,0.6437,0.4322,0.2714,0.1353,0.022,-0.1527,-0.404,-0.8651,-0.9922,-0.9985,-0.9706,-1.0645,-1.1185,-0.9798,-0.6992,-0.5457,-0.7736,-0.8505,-0.8914,-0.9283,-1.2508,-1.5209,-1.5805,-1.6297,-1.6514,-1.6165,-1.6208,-1.6171,-1.5781,-1.4938,-1.3748,-1.2261,-1.0416,-0.872,-0.7136,-0.7009,-0.7663,-0.9259,-0.9926,-1.148,-1.4182,-1.5232,-1.6849,-1.9247,-2.0331,-2.1773,-2.3395,-1.8516,-1.7245,0.0,0.0,0.8646,0.89,0.0,0.0,0.0,0.0,0.0,0.0,0.0,0.0,0.0,0.0,0.0,0.0,0.0,0.0,0.0,0.0,0.0,0.0,0.0,0.0,0.0,0.0,0.0,0.0,-1.301,0.0,0.0,-0.9726,-0.8699,-0.8428,-0.6,-0.4358,-0.361,-0.0476,0.2027,0.3847,0.5349,0.6999,0.8722,0.8317,0.8346,0.8736,0.8751,0.8578,0.8287,0.8507,0.8101,0.7403,0.7498,0.7473,0.7399,0.7424,0.7772,0.8205,0.8506,0.8722,0.8785,0.7891,0.7078,0.6103,0.4281,0.2746,0.1236,-0.0613,-0.2446,-0.441,-0.722,-0.8941,-0.9835,-0.9472,-0.8041,-0.6907,-0.7326,-0.6917,-0.6617,-0.7335,-0.7555,-0.7953,-0.8703,-1.0187,-1.1814,-1.3657,-1.4278,-1.4571,-1.4611,-1.4559,-1.4636,-1.4844,-1.4807,-1.4477,-1.3893,-1.2035,-1.0554,-0.959,-0.9301,-0.9672,-1.0719,-1.154,-1.2987,-1.5121,-1.6837,-1.858,-2.0361,-2.1061,-2.2213,-2.361,-2.377,-2.285,0.8249,0.839,0.0,0.8478,0.6382,0.0,0.1915,0.0,0.0,0.0,0.0,0.0,0.0,0.0,0.0,0.0,0.0,0.0,0.0,-1.0862,0.0,0.0,0.0,0.0,0.0,0.0,-1.4158,-1.2931,-1.1756,0.0,0.0,0.0,-0.6559,-0.652,-0.37,-0.1877,-0.122,0.1932,0.3984,0.4936,0.6431,0.7636,0.8533,0.8325,0.8524,0.9022,0.8987,0.8898,0.8771,0.8839,0.8417,0.7684,0.7657,0.75,0.7277,0.7241,0.7493,0.7932,0.8241,0.8634,0.8772,0.7867,0.7103,0.6248,0.4333,0.288,0.1376,-0.0769,-0.2563,-0.4253,-0.6158,-0.7081,-0.7704,-0.8387,-0.6736,-0.5292,-0.6214,-0.6205,-0.6109,-0.6415,-0.6073,-0.6006,-0.6818,-0.7646,-0.9128,-1.1667,-1.2492,-1.2946,-1.3464,-1.3608,-1.4043,-1.495,-1.5091,-1.5143,-1.5216,-1.3857,-1.2955,-1.2792,-1.2373,-1.2504,-1.3468,-1.3978,-1.5063,-1.697,-1.8509,-2.007,-2.15,-2.2323,-2.3113,-2.393,-2.6201,-2.5957]}]]